Date StartTime U_cm/s V_cm/s W_cm/s Ustd_cm/s Vstd_cm/s Wstd_cm/s Uvar_(cm/s)^2 Vvar_(cm/s)^2 Wvar_(cm/s)^2 KE_(m/s)^2 TurbulentKE_(m/s)^2 HorizWindSpeed_cm/s FrictionSpeec_cm/s DragCoef SpeedOfSound_m/s SonicTemperature_C Pressure_mb 
05/26/2013  00:00:00     -511.649      -52.906      -41.271      146.893      145.006       85.023    21577.453    21026.596     7228.952       15.805        2.492      514.377       63.906        0.015      339.988       13.695      859.032
05/26/2013  00:01:00     -402.759     -131.391       -9.329      154.045      125.792       69.996    23729.793    15823.637     4899.408       11.200        2.223      423.649       71.466        0.028      339.970       13.666      859.024
05/26/2013  00:02:00     -554.432      -62.939      -28.775      251.627      188.671       85.641    63316.043    35596.904     7334.349       20.920        5.312      557.993      110.420        0.039      339.995       13.706      859.023
05/26/2013  00:03:00     -458.227     -118.940      -25.525      162.551      154.682       86.771    26422.952    23926.531     7529.244       14.131        2.894      473.412       81.301        0.029      340.018       13.746      859.037
05/26/2013  00:04:00     -415.881      -23.906      -31.406      168.620      150.614       75.375    28432.541    22684.464     5681.369       11.565        2.840      416.567       72.258        0.030      340.007       13.726      859.047
05/26/2013  00:05:00     -593.507     -172.831      -31.722      264.656      157.058       89.387    70042.699    24667.213     7990.059       24.290        5.135      618.159       89.893        0.021      340.042       13.787      859.021
05/26/2013  00:06:00     -554.512     -132.666      -30.261      197.600      155.875      104.201    39045.916    24297.078    10857.853       20.009        3.710      570.162      108.736        0.036      340.049       13.797      859.038
05/26/2013  00:07:00     -541.856     -178.109      -16.734      223.147      142.090       99.350    49794.730    20189.474     9870.514       20.272        3.993      570.378      106.624        0.035      340.027       13.759      859.048
05/26/2013  00:08:00     -452.253     -170.700      -13.475      158.744      132.367       80.791    25199.515    17520.901     6527.138       14.154        2.462      483.396       82.087        0.029      339.996       13.708      859.074
05/26/2013  00:09:00     -512.326     -158.129      -15.720      234.839      146.785       91.963    55149.147    21545.897     8457.190       18.643        4.258      536.174      107.373        0.040      340.018       13.745      859.074
05/26/2013  00:10:00     -321.537     -110.209       -1.415      157.552      118.605       68.801    24822.594    14067.109     4733.639        7.957        2.181      339.900       68.446        0.041      339.987       13.694      859.074
05/26/2013  00:11:00     -530.767       35.442      -47.294      202.572      179.274       76.899    41035.306    32139.295     5913.464       18.213        3.954      531.949       73.134        0.019      340.011       13.732      859.063
05/26/2013  00:12:00     -420.173     -149.829      -14.694      169.272      128.699       86.459    28652.988    16563.496     7475.112       12.594        2.635      446.088       89.915        0.041      339.988       13.694      859.063
05/26/2013  00:13:00     -425.456     -166.676      -31.815      204.887      134.856       80.298    41978.664    18186.249     6447.738       13.820        3.331      456.939       79.484        0.030      339.976       13.675      859.064
05/26/2013  00:14:00     -535.040      -63.285      -40.719      181.825      140.527       81.199    33060.500    19747.811     6593.292       17.566        2.970      538.770       83.430        0.024      339.985       13.689      859.105
05/26/2013  00:15:00     -443.951     -129.623      -18.706      171.315      123.047       75.169    29348.768    15140.649     5650.421       13.218        2.507      462.487       75.277        0.026      339.982       13.685      859.104
05/26/2013  00:16:00     -470.053      -69.724      -23.539      197.594      144.726       74.212    39043.272    20945.534     5507.488       14.592        3.275      475.196       72.832        0.023      340.006       13.725      859.094
05/26/2013  00:17:00     -415.328     -147.577        0.163      190.498      148.539       91.754    36289.403    22063.816     8418.764       13.051        3.339      440.768       79.000        0.032      340.017       13.744      859.085
05/26/2013  00:18:00     -436.279     -196.670       -6.292      236.959      181.373      103.457    56149.513    32896.041    10703.283       16.439        4.987      478.559      113.506        0.056      340.016       13.742      859.037
05/26/2013  00:19:00     -482.975     -187.161      -33.990      188.058      185.191       93.159    35365.970    34295.540     8678.590       17.388        3.917      517.971       88.981        0.030      340.020       13.748      859.057
05/26/2013  00:20:00     -482.210      -89.867      -32.519      157.064      171.259      102.874    24669.066    29329.567    10583.044       15.311        3.229      490.512       85.255        0.030      340.053       13.805      859.073
05/26/2013  00:21:00     -532.299     -188.298      -16.762      227.425      147.832       98.224    51721.921    21854.199     9647.872       20.114        4.161      564.622      106.889        0.036      340.083       13.855      859.079
05/26/2013  00:22:00     -530.533      -92.686      -40.575      212.213      167.434       98.644    45034.410    28034.020     9730.736       18.724        4.140      538.568       89.930        0.028      340.065       13.825      859.088
05/26/2013  00:23:00     -492.353     -142.522      -53.917      172.386      166.601       89.088    29717.099    27755.831     7936.711       16.551        3.270      512.566       73.787        0.021      340.079       13.848      859.050
05/26/2013  00:24:00     -573.996     -110.237      -38.439      220.512      165.567       92.358    48625.728    27412.345     8530.076       21.382        4.228      584.486      103.132        0.031      340.069       13.832      859.072
05/26/2013  00:25:00     -590.684     -140.790      -13.999      276.023      170.067       98.641    76188.506    28922.715     9730.103       24.186        5.742      607.231      102.153        0.028      340.069       13.829      859.061
05/26/2013  00:26:00     -368.771     -128.329      -10.880      213.696      161.395       77.442    45665.910    26048.469     5997.300       11.513        3.886      390.462       89.281        0.052      340.032       13.769      859.086
05/26/2013  00:27:00     -486.955      -91.888      -22.728      172.344      131.460       75.390    29702.547    17281.839     5683.657       14.937        2.633      495.549       85.281        0.030      340.022       13.751      859.108
05/26/2013  00:28:00     -297.682      -93.547      -18.178      157.474      134.318       65.943    24798.001    18041.264     4348.519        7.243        2.359      312.035       58.293        0.035      339.996       13.709      859.102
05/26/2013  00:29:00     -448.091     -110.704      -21.698      193.407      162.289       79.197    37406.335    26337.575     6272.163       14.175        3.501      461.564       80.063        0.030      340.021       13.749      859.103
05/26/2013  00:30:00     -554.030      -43.748      -40.070      218.723      212.606       91.159    47839.855    45201.319     8310.045       20.589        5.068      555.754      107.579        0.037      340.050       13.800      859.111
05/26/2013  00:31:00     -348.862     -139.597      -14.853      149.605      137.977       70.670    22381.519    19037.576     4994.231        9.391        2.321      375.755       72.391        0.037      340.005       13.724      859.123
05/26/2013  00:32:00     -489.917     -127.455       -9.166      237.538      198.972       94.284    56424.390    39589.839     8889.410       18.061        5.245      506.225      109.758        0.047      340.045       13.791      859.131
05/26/2013  00:33:00     -439.602     -162.138        0.066      240.705      175.502      101.475    57938.819    30800.973    10297.189       15.927        4.952      468.550      121.013        0.067      340.039       13.781      859.153
05/26/2013  00:34:00     -522.273      -88.903      -30.943      151.484      169.594       89.406    22947.340    28762.119     7993.438       17.066        2.985      529.785       85.785        0.026      340.064       13.824      859.165
05/26/2013  00:35:00     -357.256      -59.739      -30.163      146.134      134.028       74.478    21355.155    17963.463     5547.025        8.848        2.243      362.216       78.574        0.047      340.058       13.812      859.208
05/26/2013  00:36:00     -355.664     -110.064      -14.816      199.370      126.986       76.815    39748.335    16125.497     5900.578       10.029        3.089      372.305       70.317        0.036      340.051       13.802      859.195
05/26/2013  00:37:00     -441.855     -103.651      -22.568      219.737      164.855       96.707    48284.387    27177.163     9352.150       14.564        4.241      453.849      107.815        0.056      340.073       13.840      859.169
05/26/2013  00:38:00     -400.340      -97.712      -14.309      201.436      132.680       76.082    40576.606    17603.946     5788.505       11.699        3.198      412.092       85.033        0.043      340.061       13.818      859.200
05/26/2013  00:39:00     -408.639      -78.479      -23.192      153.339      121.608       68.596    23512.749    14788.502     4705.419       10.834        2.150      416.106       72.143        0.030      340.085       13.857      859.211
05/26/2013  00:40:00     -403.502      -62.049      -13.937      156.100      117.651       76.566    24367.323    13841.647     5862.328       10.546        2.204      408.245       81.043        0.039      340.075       13.842      859.201
05/26/2013  00:41:00     -391.498      -41.010      -27.707      129.114      141.969       70.487    16670.493    20155.203     4968.415        9.875        2.090      393.640       49.530        0.016      340.035       13.774      859.206
05/26/2013  00:42:00     -470.482      -45.173      -31.504      207.028      134.024       79.649    42860.758    17962.370     6344.034       14.577        3.358      472.645       91.575        0.038      340.041       13.784      859.224
05/26/2013  00:43:00     -456.478     -104.306      -26.840      147.280      135.195       75.118    21691.391    18277.655     5642.767       13.278        2.281      468.243       68.452        0.021      340.046       13.794      859.204
05/26/2013  00:44:00     -506.833      -21.501      -39.732      188.624      148.108       86.603    35578.903    21936.121     7500.158       16.196        3.251      507.289       95.927        0.036      340.033       13.771      859.226
05/26/2013  00:45:00     -498.931      -33.681      -43.309      199.923      147.949       75.477    39969.360    21888.974     5696.756       15.974        3.378      500.067       80.924        0.026      340.034       13.772      859.227
05/26/2013  00:46:00     -428.988      -46.406      -36.217      239.989      181.228       95.981    57594.739    32843.469     9212.375       14.356        4.983      431.490      112.165        0.068      340.059       13.814      859.226
05/26/2013  00:47:00     -416.397     -105.837      -32.168      189.383      138.541       89.843    35865.812    19193.560     8071.782       12.437        3.157      429.636       92.906        0.047      340.041       13.783      859.234
05/26/2013  00:48:00     -502.962      -64.410      -35.434      205.981      163.708       90.941    42428.210    26800.340     8270.311       16.792        3.875      507.070      105.048        0.043      340.041       13.785      859.232
05/26/2013  00:49:00     -495.874     -101.089      -35.741      196.721      163.446       86.125    38699.287    26714.654     7417.520       16.510        3.642      506.073       91.625        0.033      340.035       13.774      859.230
05/26/2013  00:50:00     -508.623      -71.308      -33.454      175.576      153.977       83.994    30826.823    23708.782     7055.059       16.324        3.080      513.597       86.619        0.028      340.053       13.804      859.238
05/26/2013  00:51:00     -421.774       -6.140      -34.208      233.684      134.074       67.706    54608.254    17975.942     4584.054       12.812        3.858      421.819       82.566        0.038      340.040       13.781      859.206
05/26/2013  00:52:00     -419.417      -62.425      -36.041      171.364      109.986       88.726    29365.680    12096.832     7872.245       11.521        2.467      424.037       88.401        0.043      339.996       13.709      859.190
05/26/2013  00:53:00     -384.722      -71.482       -4.008      208.525      133.626       87.980    43482.806    17855.871     7740.430       11.110        3.454      391.307      101.360        0.067      339.973       13.671      859.244
05/26/2013  00:54:00     -395.107      -41.565       -5.843      158.902      162.118       76.434    25249.869    26282.378     5842.228       10.761        2.869      397.287       70.943        0.032      339.972       13.669      859.271
05/26/2013  00:55:00     -384.416      -75.885       -4.886      154.669      141.777       76.645    23922.501    20100.594     5874.445       10.172        2.495      391.834       80.789        0.043      339.978       13.678      859.289
05/26/2013  00:56:00     -377.870      -64.934      -32.121      160.332      128.261       75.784    25706.454    16450.789     5743.239        9.796        2.395      383.409       61.590        0.026      339.984       13.687      859.265
05/26/2013  00:57:00     -491.094      -73.012      -51.439      170.778      136.332       93.723    29165.205    18586.417     8784.033       15.283        2.827      496.492       94.489        0.036      340.012       13.733      859.253
05/26/2013  00:58:00     -307.038     -154.634      -31.914      161.943      121.078       76.907    26225.492    14659.778     5914.665        8.299        2.340      343.779       66.487        0.037      339.998       13.713      859.258
05/26/2013  00:59:00     -395.425      -50.733      -24.702      134.709      118.069       71.008    18146.431    13940.226     5042.166        9.833        1.856      398.666       74.207        0.035      339.973       13.671      859.315
05/26/2013  01:00:00     -262.807      -77.443       -4.315      162.769      166.838       67.421    26493.650    27835.036     4545.578        6.697        2.944      273.980       64.909        0.056      340.004       13.723      859.294
05/26/2013  01:01:00     -297.381      -57.121      -22.127      166.057      112.619       56.894    27574.852    12683.035     3236.927        6.783        2.175      302.817       66.250        0.048      339.996       13.709      859.280
05/26/2013  01:02:00     -315.632        5.362      -22.904      171.183      111.130       70.590    29303.555    12349.908     4982.885        7.340        2.332      315.677       78.279        0.061      339.989       13.697      859.307
05/26/2013  01:03:00     -384.915      -55.030      -25.000      213.969      140.600       74.087    45782.663    19768.276     5488.844       11.141        3.552      388.829       79.224        0.042      339.953       13.636      859.341
05/26/2013  01:04:00     -400.414     -142.783      -30.491      123.256      160.971       67.166    15191.931    25911.789     4511.273       11.362        2.281      425.110       59.571        0.020      339.996       13.709      859.357
05/26/2013  01:05:00     -321.216      -95.745       -6.981      162.003      104.951       72.454    26245.079    11014.777     5249.529        7.745        2.125      335.182       76.164        0.052      339.975       13.674      859.329
05/26/2013  01:06:00     -332.742      -55.695      -11.918      144.265      112.789       60.780    20812.313    12721.341     3694.193        7.559        1.861      337.371       63.330        0.035      339.959       13.647      859.306
05/26/2013  01:07:00     -336.020     -139.815       -6.491      103.340      118.151       63.147    10679.179    13959.724     3987.555        8.056        1.431      363.947       51.699        0.020      339.955       13.640      859.321
05/26/2013  01:08:00     -329.761     -120.869      -22.568      126.365      160.845       58.785    15968.224    25871.067     3455.658        8.457        2.265      351.214       49.613        0.020      339.952       13.634      859.296
05/26/2013  01:09:00     -162.544      -56.999       13.580      129.909      105.912       61.066    16876.411    11217.353     3729.077        3.083        1.591      172.248       78.083        0.205      339.903       13.553      859.294
05/26/2013  01:10:00     -265.026     -108.699      -10.732      158.962      110.970       69.444    25268.929    12314.268     4822.527        6.228        2.120      286.452       76.905        0.072      339.916       13.574      859.279
05/26/2013  01:11:00     -319.179     -124.511       -7.677      133.355      109.011       58.050    17783.611    11883.378     3369.855        7.523        1.652      342.605       55.449        0.026      339.879       13.508      859.286
05/26/2013  01:12:00     -206.766     -104.718        0.891      110.286      130.336       77.542    12162.965    16987.547     6012.720        4.444        1.758      231.771       80.859        0.122      339.884       13.518      859.322
05/26/2013  01:13:00     -339.124     -155.844       -7.947      161.584      113.139       62.390    26109.544    12800.417     3892.494        9.107        2.140      373.219       47.792        0.016      339.907       13.558      859.341
05/26/2013  01:14:00     -151.979      -36.416      -14.559      119.123       86.002       55.071    14190.302     7396.342     3032.866        2.462        1.231      156.281       57.883        0.137      339.883       13.518      859.315
05/26/2013  01:15:00     -128.878      -42.816        2.328       94.260       46.667       40.855     8884.944     2177.836     1669.160        1.559        0.637      135.804       49.770        0.134      339.845       13.455      859.303
05/26/2013  01:16:00     -235.211      -74.329        6.743      138.532       93.261       58.679    19191.025     8697.569     3443.199        4.611        1.567      246.676       61.324        0.062      339.852       13.465      859.315
05/26/2013  01:17:00     -378.739      -98.844      -18.327      164.157      128.116       83.184    26947.493    16413.696     6919.583       10.191        2.514      391.425       86.771        0.049      339.885       13.519      859.316
05/26/2013  01:18:00     -115.564      -79.129       14.403      144.881      114.089       74.630    20990.439    13016.248     5569.696        2.969        1.979      140.059       60.072        0.184      339.882       13.517      859.316
05/26/2013  01:19:00     -432.698     -101.722      -34.572      175.241      169.947       83.459    30709.456    28881.896     6965.334       13.265        3.328      444.494       81.317        0.033      339.933       13.601      859.284
05/26/2013  01:20:00     -343.103      -40.612      -20.600      171.629      129.353       70.632    29456.489    16732.284     4988.870        8.548        2.559      345.498       73.450        0.045      339.892       13.533      859.254
05/26/2013  01:21:00     -463.331     -100.955      -13.231      223.637      159.894       87.332    50013.344    25566.141     7626.822       15.411        4.160      474.202       90.449        0.036      339.921       13.582      859.266
05/26/2013  01:22:00     -255.854      -57.356        8.129      193.676      195.964      100.934    37510.520    38402.012    10187.617        7.744        4.305      262.204      107.493        0.168      339.890       13.530      859.287
05/26/2013  01:23:00     -229.051     -142.963        6.387      169.690      139.744       90.494    28794.649    19528.248     8189.185        6.472        2.826      270.005       86.410        0.102      339.928       13.594      859.285
05/26/2013  01:24:00     -315.985      -69.838       -8.358      200.917      114.860       81.514    40367.517    13192.760     6644.538        8.249        3.010      323.611       90.239        0.078      339.909       13.563      859.305
05/26/2013  01:25:00     -371.772       -4.418      -13.267      204.975      141.317       77.088    42014.758    19970.386     5942.563       10.316        3.396      371.798       66.898        0.032      339.921       13.583      859.290
05/26/2013  01:26:00     -284.812     -136.394       -9.289      161.359      140.255       69.329    26036.807    19671.448     4806.578        7.515        2.526      315.787       69.550        0.049      339.924       13.587      859.270
05/26/2013  01:27:00     -426.553     -133.100      -18.444      193.378      149.729       87.088    37395.111    22418.790     7584.245       13.369        3.370      446.837       97.882        0.048      339.931       13.598      859.265
05/26/2013  01:28:00     -527.156     -137.114      -16.436      202.839      166.476       78.265    41143.707    27714.254     6125.488       18.596        3.749      544.696       84.328        0.024      339.942       13.617      859.238
05/26/2013  01:29:00     -434.345     -135.499       -7.959      197.654      130.456       77.870    39067.018    17018.869     6063.671       13.460        3.107      454.990       93.452        0.042      339.920       13.580      859.247
05/26/2013  01:30:00     -348.554     -172.334      -17.978      142.318      130.630       67.379    20254.354    17064.223     4539.889        9.668        2.093      388.830       72.761        0.035      339.924       13.587      859.249
05/26/2013  01:31:00     -429.880      -93.445      -19.033      217.337      183.914       87.353    47235.414    33824.301     7630.545       14.128        4.435      439.919       99.178        0.051      339.956       13.642      859.241
05/26/2013  01:32:00     -215.574      -49.601        3.600      186.048      155.706       77.218    34613.883    24244.366     5962.624        5.687        3.241      221.206       86.584        0.153      339.922       13.585      859.220
05/26/2013  01:33:00     -389.803      -70.242      -14.414      153.969      124.072       79.286    23706.503    15393.786     6286.301       10.123        2.269      396.081       82.099        0.043      339.900       13.547      859.242
05/26/2013  01:34:00     -430.114     -146.510       -8.098      193.127      174.111       93.559    37298.042    30314.538     8753.366       14.143        3.818      454.383      102.016        0.050      339.915       13.572      859.236
05/26/2013  01:35:00     -333.287     -148.137       -1.505      217.802      136.107       83.033    47437.615    18525.035     6894.477       10.293        3.643      364.726      101.534        0.077      339.909       13.563      859.254
05/26/2013  01:36:00     -290.533      -87.692       -2.909      211.771      163.118       83.306    44847.135    26607.639     6939.932        8.524        3.920      303.478      115.861        0.146      339.934       13.606      859.264
05/26/2013  01:37:00     -394.919     -165.339       -7.182      144.491      117.713       77.719    20877.771    13856.304     6040.270       11.206        2.039      428.133       80.846        0.036      339.931       13.599      859.276
05/26/2013  01:38:00     -297.588      -66.712       -8.068      188.589      166.623      109.269    35565.649    27763.159    11939.745        8.416        3.763      304.974      121.429        0.159      339.911       13.566      859.277
05/26/2013  01:39:00     -474.853     -125.804      -15.823      173.230      120.150       78.195    30008.527    14435.923     6114.420       14.605        2.528      491.236       88.344        0.032      339.913       13.568      859.256
05/26/2013  01:40:00     -434.682     -129.115      -15.319      196.688      184.738       91.112    38686.234    34128.069     8301.330       14.347        4.056      453.452      103.798        0.052      339.953       13.635      859.245
05/26/2013  01:41:00     -277.603     -197.809        4.620      229.542      163.712      102.437    52689.587    26801.480    10493.420       10.308        4.499      340.870      120.453        0.125      339.931       13.599      859.232
05/26/2013  01:42:00     -243.345     -179.036        2.528      204.855      167.078      101.748    41965.441    27915.078    10352.589        8.574        4.012      302.111      119.246        0.156      339.911       13.567      859.223
05/26/2013  01:43:00     -281.554      -82.927       -7.237      224.911      131.003       78.818    50585.151    17161.780     6212.302        8.007        3.698      293.513       92.058        0.098      339.908       13.559      859.218
05/26/2013  01:44:00     -284.824      -82.668        7.126      172.929      167.490       86.159    29904.457    28052.802     7423.453        7.668        3.269      296.578       74.987        0.064      339.922       13.585      859.205
05/26/2013  01:45:00     -317.786      -72.596        2.535      180.003      122.773       79.260    32401.029    15073.168     6282.195        8.000        2.688      325.973       97.738        0.090      339.893       13.535      859.204
05/26/2013  01:46:00     -411.526     -212.314       -8.798      181.512      170.175       76.628    32946.658    28959.594     5871.871       14.113        3.389      463.066       84.943        0.034      339.895       13.538      859.211
05/26/2013  01:47:00     -399.064     -205.395      -34.450      141.135      136.448       68.404    19919.227    18618.025     4679.081       12.291        2.161      448.820       72.922        0.026      339.894       13.537      859.200
05/26/2013  01:48:00     -255.518     -158.945       -4.314      217.352      168.033      109.801    47241.934    28235.185    12056.335        8.904        4.377      300.920      112.180        0.139      339.889       13.528      859.169
05/26/2013  01:49:00     -257.827     -110.599       -5.659      183.667      166.035       84.587    33733.579    27567.531     7154.910        7.359        3.423      280.548       91.571        0.107      339.873       13.501      859.172
05/26/2013  01:50:00     -369.798     -114.614      -20.818      178.239      159.272       76.715    31769.204    25367.464     5885.126       10.666        3.151      387.152       70.980        0.034      339.858       13.475      859.181
05/26/2013  01:51:00     -387.849     -132.260      -26.444      215.651      133.844       80.864    46505.275    17914.348     6539.052       11.978        3.548      409.780       88.783        0.047      339.865       13.486      859.191
05/26/2013  01:52:00     -245.188     -162.269       -2.157      179.474      115.641       79.699    32211.090    13372.901     6351.911        6.919        2.597      294.021       81.300        0.076      339.863       13.485      859.219
05/26/2013  01:53:00     -293.170     -148.687        8.759      198.952      179.353       93.700    39581.712    32167.674     8779.600        9.432        4.026      328.719      100.379        0.093      339.846       13.456      859.204
05/26/2013  01:54:00     -220.638      -66.528       -3.748      146.850      103.018       66.056    21564.783    10612.714     4363.357        4.482        1.827      230.449       69.242        0.090      339.807       13.390      859.217
05/26/2013  01:55:00     -260.616     -153.193       -1.432      175.920      185.214       92.063    30947.835    34304.210     8475.640        8.255        3.686      302.306       97.364        0.104      339.821       13.415      859.212
05/26/2013  01:56:00     -255.501     -166.323       -6.213      150.669      119.905       74.250    22701.242    14377.316     5513.078        6.778        2.130      304.868       85.054        0.078      339.812       13.400      859.231
05/26/2013  01:57:00     -296.443     -248.977      -11.274      186.149      118.941       82.910    34651.370    14146.918     6874.040       10.282        2.784      387.128       94.443        0.060      339.797       13.373      859.237
05/26/2013  01:58:00     -247.206      -89.393       -4.910      139.066      112.753       61.799    19339.383    12713.201     3819.069        5.249        1.794      262.873       69.601        0.070      339.753       13.301      859.260
05/26/2013  01:59:00     -285.978     -150.131       24.367      247.127      165.412       86.242    61071.880    27361.033     7437.653       10.038        4.794      322.991      116.129        0.129      339.799       13.378      859.256
05/26/2013  02:00:00     -239.599      -70.000      -25.101      182.745      115.684       81.743    33395.693    13382.692     6681.992        5.819        2.673      249.615       73.728        0.087      339.770       13.330      859.283
05/26/2013  02:01:00     -202.815     -125.617        1.759      111.765       85.736       58.879    12491.318     7350.654     3466.679        4.011        1.165      238.566       63.732        0.071      339.747       13.289      859.308
05/26/2013  02:02:00     -273.860      -43.983       11.167      183.869      130.798      105.074    33807.963    17108.206    11040.646        6.950        3.098      277.369      112.830        0.165      339.737       13.273      859.287
05/26/2013  02:03:00     -349.709      -86.515        6.110      194.136      142.816       85.537    37688.803    20396.332     7316.646        9.760        3.270      360.252       98.816        0.075      339.695       13.201      859.307
05/26/2013  02:04:00     -315.468      -41.289      -12.760      154.092      131.456       79.354    23744.253    17280.663     6297.036        7.435        2.366      318.158       80.736        0.064      339.685       13.186      859.314
05/26/2013  02:05:00     -197.294     -108.868       10.333      147.286      124.860       74.449    21693.112    15589.907     5542.659        4.685        2.141      225.338       82.543        0.134      339.681       13.180      859.319
05/26/2013  02:06:00     -356.067      -98.942      -14.872      152.900      110.632       67.519    23378.285    12239.335     4558.858        8.848        2.009      369.558       59.903        0.026      339.664       13.149      859.337
05/26/2013  02:07:00     -210.685      -41.034       16.550      175.582       88.691       75.609    30828.947     7866.047     5716.715        4.537        2.221      214.644       97.473        0.206      339.623       13.081      859.343
05/26/2013  02:08:00     -220.614      -74.237        5.404      138.115      100.353       70.130    19075.779    10070.810     4918.195        4.413        1.703      232.769       77.644        0.111      339.615       13.066      859.353
05/26/2013  02:09:00     -204.320      -64.609        7.979      153.733      111.744       65.068    23633.737    12486.791     4233.900        4.316        2.018      214.292       75.481        0.124      339.586       13.019      859.365
05/26/2013  02:10:00     -268.202     -100.981       -0.493      114.287       95.438       50.727    13061.523     9108.428     2573.221        5.343        1.237      286.582       48.097        0.028      339.584       13.013      859.387
05/26/2013  02:11:00     -387.686      -47.202       -9.175      185.108      122.562       64.608    34265.155    15021.551     4174.160       10.303        2.673      390.549       79.573        0.042      339.600       13.041      859.410
05/26/2013  02:12:00     -243.912      -69.082       -2.843      117.399      105.990       62.049    13782.634    11233.827     3850.138        4.657        1.443      253.506       50.958        0.040      339.570       12.990      859.433
05/26/2013  02:13:00     -243.866       12.619       -8.390       88.725       76.752       45.461     7872.151     5890.845     2066.673        3.776        0.791      244.192       38.912        0.025      339.580       13.008      859.433
05/26/2013  02:14:00     -366.097      -72.977      -13.659      112.359       88.513       62.985    12624.598     7834.498     3967.081        8.198        1.221      373.300       66.048        0.031      339.581       13.008      859.454
05/26/2013  02:15:00     -325.050      -54.607      -24.520       94.542       81.411       54.984     8938.214     6627.704     3023.289        6.391        0.929      329.605       50.191        0.023      339.545       12.949      859.462
05/26/2013  02:16:00     -352.662      -76.897       -5.106      125.985      134.164       65.526    15872.278    17999.967     4293.691        8.423        1.908      360.948       65.408        0.033      339.588       13.020      859.475
05/26/2013  02:17:00     -338.004      -18.083      -12.161      160.544      128.222       64.012    25774.535    16440.965     4097.583        8.051        2.316      338.488       67.177        0.039      339.538       12.935      859.479
05/26/2013  02:18:00     -341.071      -56.154       -7.776      130.023      130.025       69.219    16905.899    16906.441     4791.206        7.907        1.930      345.663       56.740        0.027      339.558       12.971      859.467
05/26/2013  02:19:00     -399.962      -35.530      -37.933      132.834      100.993       46.869    17644.760    10199.636     2196.676        9.635        1.502      401.537       51.517        0.016      339.545       12.949      859.472
05/26/2013  02:20:00     -329.811      -49.695      -31.803       90.986       99.050       57.569     8278.460     9810.897     3314.245        6.683        1.070      333.534       42.781        0.016      339.530       12.924      859.470
05/26/2013  02:21:00     -362.459      -16.834      -41.377       89.748       85.104       46.324     8054.704     7242.717     2145.949        7.540        0.872      362.849       40.260        0.012      339.507       12.884      859.484
05/26/2013  02:22:00     -184.215      -47.155      -19.562      120.855       75.868       49.829    14605.969     5755.974     2482.974        2.969        1.142      190.154       52.819        0.077      339.468       12.819      859.486
05/26/2013  02:23:00     -257.285     -107.940       -4.092      114.591      115.265       42.694    13131.078    13286.077     1822.763        5.305        1.412      279.010       40.436        0.021      339.479       12.837      859.492
05/26/2013  02:24:00     -317.920      -15.514      -30.460      124.015      109.941       53.274    15379.646    12086.964     2838.115        6.627        1.515      318.298       43.513        0.019      339.457       12.799      859.521
05/26/2013  02:25:00     -316.494      -57.829      -19.153      120.546       93.766       66.435    14531.385     8792.140     4413.650        6.580        1.387      321.733       70.587        0.048      339.454       12.795      859.532
05/26/2013  02:26:00     -271.654      -61.288       -4.974      129.890      122.503       57.752    16871.498    15006.988     3335.291        5.639        1.761      278.482       58.743        0.044      339.425       12.746      859.541
05/26/2013  02:27:00     -406.664      -18.226      -43.539      139.880      106.604       61.787    19566.521    11364.342     3817.685       10.117        1.737      407.072       64.982        0.025      339.434       12.760      859.533
05/26/2013  02:28:00     -315.408      -81.105       -8.098       93.356       80.409       55.137     8715.283     6465.623     3040.041        6.217        0.911      325.669       51.290        0.025      339.393       12.692      859.550
05/26/2013  02:29:00     -311.286       -4.360      -10.018      106.048       81.419       53.062    11246.203     6629.022     2815.539        5.885        1.035      311.317       49.335        0.025      339.401       12.704      859.553
05/26/2013  02:30:00     -284.421      -61.948      -19.742       66.199       78.703       42.285     4382.356     6194.089     1787.991        4.874        0.618      291.089       32.231        0.012      339.368       12.649      859.559
05/26/2013  02:31:00     -309.260     -108.620      -27.170       61.377       89.562       46.567     3767.188     8021.431     2168.460        6.107        0.698      327.781       34.118        0.011      339.363       12.640      859.571
05/26/2013  02:32:00     -253.790      -44.291      -24.468       78.753       80.436       41.485     6202.082     6469.930     1721.011        4.068        0.720      257.626       32.024        0.015      339.330       12.585      859.577
05/26/2013  02:33:00     -299.683      -23.929      -35.241       93.697       96.278       53.057     8779.041     9269.372     2815.018        5.624        1.043      300.637       46.917        0.024      339.374       12.660      859.570
05/26/2013  02:34:00     -260.544      -81.910       -8.973       99.845       92.263       54.721     9969.063     8512.534     2994.381        4.807        1.074      273.116       46.672        0.029      339.332       12.588      859.581
05/26/2013  02:35:00     -349.652       -2.610      -34.028      150.710       88.807       52.511    22713.445     7886.636     2757.387        7.838        1.668      349.662       64.938        0.034      339.357       12.631      859.589
05/26/2013  02:36:00     -297.048      -76.385      -30.649      141.278      118.237       52.694    19959.338    13979.903     2776.708        6.586        1.836      306.712       56.403        0.034      339.379       12.667      859.587
05/26/2013  02:37:00     -476.198     -112.194      -18.616      150.942      115.312       62.645    22783.564    13296.794     3924.448       13.984        2.000      489.236       74.878        0.023      339.400       12.705      859.584
05/26/2013  02:38:00     -389.704      -21.851      -30.931      130.069      139.915       64.642    16917.911    19576.303     4178.634        9.698        2.034      390.317       51.388        0.017      339.417       12.734      859.574
05/26/2013  02:39:00     -365.795     -132.090      -27.211      130.759       81.169       62.339    17097.796     6588.460     3886.129        8.978        1.379      388.914       59.343        0.023      339.404       12.711      859.574
05/26/2013  02:40:00     -288.173      -54.386      -15.873      117.027       83.861       55.063    13695.236     7032.715     3031.929        5.500        1.188      293.260       61.888        0.045      339.359       12.634      859.583
05/26/2013  02:41:00     -234.244     -112.256       -7.891      105.323       78.210       49.833    11092.876     6116.841     2483.281        4.361        0.985      259.753       53.123        0.042      339.279       12.500      859.599
05/26/2013  02:42:00     -235.904      -15.917      -29.080       82.726       89.063       43.102     6843.540     7932.196     1857.780        3.669        0.832      236.440       34.734        0.022      339.261       12.469      859.602
05/26/2013  02:43:00     -213.367      -33.393      -40.852      107.754       74.995       48.974    11610.980     5624.312     2398.437        3.397        0.982      215.965       37.876        0.031      339.238       12.432      859.588
05/26/2013  02:44:00     -185.075      -25.946      -16.461       77.577       63.915       31.329     6018.205     4085.146      981.535        2.314        0.554      186.885       35.044        0.035      339.207       12.380      859.580
05/26/2013  02:45:00     -159.297       51.386      -25.910       58.110      110.988       44.081     3376.791    12318.261     1943.157        2.316        0.882      167.380       27.636        0.027      339.208       12.381      859.561
05/26/2013  02:46:00     -252.545     -108.296      -26.874      100.768      101.038       49.241    10154.149    10208.687     2424.699        4.950        1.139      274.786       52.574        0.037      339.223       12.405      859.575
05/26/2013  02:47:00     -253.288      -83.280       -5.632      126.917      105.494       59.693    16107.958    11129.077     3563.302        5.096        1.540      266.628       61.697        0.054      339.204       12.374      859.580
05/26/2013  02:48:00     -363.813      -45.959      -26.670      119.268       82.602       50.542    14224.902     6823.016     2554.486        7.939        1.180      366.705       55.720        0.023      339.234       12.425      859.584
05/26/2013  02:49:00     -298.767      -97.805      -11.879       86.056       87.014       46.688     7405.588     7571.476     2179.776        5.806        0.858      314.369       39.181        0.016      339.226       12.410      859.587
05/26/2013  02:50:00     -277.755      -90.073      -11.230       83.603       88.080       54.022     6989.467     7758.097     2918.353        5.152        0.883      291.994       46.468        0.025      339.241       12.437      859.582
05/26/2013  02:51:00     -223.458      -53.170      -13.363       98.093       79.216       50.767     9622.327     6275.099     2577.282        3.570        0.924      229.697       36.706        0.026      339.225       12.408      859.577
05/26/2013  02:52:00     -230.620      -90.382      -22.674       76.330       60.594       41.778     5826.342     3671.598     1745.396        3.655        0.562      247.698       42.948        0.030      339.188       12.345      859.578
05/26/2013  02:53:00     -132.912      -34.345       -1.126       62.572       62.577       30.309     3915.266     3915.842      918.618        1.380        0.437      137.277       13.587        0.010      339.150       12.286      859.569
05/26/2013  02:54:00     -218.546      -23.212      -12.717       97.616       92.312       44.538     9528.880     8521.469     1983.666        3.425        1.002      219.775       42.525        0.037      339.188       12.347      859.582
05/26/2013  02:55:00     -188.892      -30.070      -15.771       64.098       86.150       35.448     4108.571     7421.887     1256.573        2.481        0.639      191.271       20.389        0.011      339.146       12.277      859.583
05/26/2013  02:56:00     -238.227      -57.444       -9.023      118.424       96.363       56.929    14024.189     9285.771     3240.877        4.334        1.328      245.055       52.719        0.046      339.177       12.328      859.587
05/26/2013  02:57:00     -209.530      -40.568       -0.226       97.159       95.550       53.205     9439.964     9129.762     2830.774        3.347        1.070      213.422       48.655        0.052      339.113       12.222      859.587
05/26/2013  02:58:00     -199.114        1.614      -16.815      110.179      112.580       55.803    12139.407    12674.246     3113.974        3.392        1.396      199.120       50.428        0.064      339.211       12.386      859.601
05/26/2013  02:59:00     -263.742      -38.355      -29.831      117.144      104.538       56.044    13722.662    10928.288     3140.962        4.985        1.390      266.517       55.460        0.043      339.269       12.483      859.580
05/26/2013  03:00:00     -200.165       18.749      -30.603       77.806       80.061       39.642     6053.702     6409.833     1571.473        2.769        0.702      201.041       19.255        0.009      339.269       12.485      859.617
05/26/2013  03:01:00     -198.545        0.783      -35.804       54.634       93.290       38.843     2984.914     8702.950     1508.783        2.695        0.660      198.547       33.185        0.028      339.262       12.472      859.646
05/26/2013  03:02:00     -144.669      -35.043       -5.818       56.694       43.263       36.666     3214.184     1871.706     1344.410        1.431        0.322      148.853       31.144        0.044      339.224       12.410      859.640
05/26/2013  03:03:00     -133.909       92.725      -14.316       82.117       72.524       44.274     6743.283     5259.712     1960.159        2.035        0.698      162.879       29.220        0.032      339.269       12.484      859.630
05/26/2013  03:04:00     -167.244      -27.422      -13.529       91.324       98.493       41.578     8339.999     9700.870     1728.748        2.433        0.988      169.477       36.931        0.047      339.247       12.447      859.637
05/26/2013  03:05:00     -181.446      -74.567       -7.148       97.911       68.672       36.855     9586.567     4715.868     1358.316        2.709        0.783      196.171       23.860        0.015      339.148       12.280      859.640
05/26/2013  03:06:00      -97.404       -2.059      -18.103       67.597       60.288       39.932     4569.416     3634.626     1594.579        0.981        0.490       97.426       28.715        0.087      339.226       12.413      859.651
05/26/2013  03:07:00     -239.039      -30.974      -21.703       96.680       73.317       52.506     9346.930     5375.318     2756.830        3.802        0.874      241.037       33.415        0.019      339.279       12.499      859.619
05/26/2013  03:08:00     -247.910      -50.997      -18.354       85.964       97.165       40.571     7389.823     9441.001     1646.009        4.143        0.924      253.101       44.254        0.031      339.282       12.507      859.610
05/26/2013  03:09:00     -100.522       -5.888       -6.831       57.879       98.397       36.117     3349.931     9681.909     1304.448        1.226        0.717      100.695       29.505        0.086      339.228       12.418      859.609
05/26/2013  03:10:00      -92.935        9.998        2.219       55.383       77.909       41.781     3067.255     6069.805     1745.690        0.981        0.544       93.472       32.601        0.122      339.220       12.403      859.596
05/26/2013  03:11:00     -286.410      -19.033      -40.691       60.097       51.399       36.913     3611.617     2641.861     1362.556        4.583        0.381      287.042       13.685        0.002      339.256       12.462      859.595
05/26/2013  03:12:00     -139.211      -32.413       -1.816       70.188       59.867       34.907     4926.339     3584.002     1218.466        1.508        0.486      142.935       32.887        0.053      339.171       12.321      859.590
05/26/2013  03:13:00     -174.396        3.292      -14.142       71.373       45.506       34.736     5094.097     2070.760     1206.603        1.950        0.419      174.427       29.882        0.029      339.234       12.428      859.590
05/26/2013  03:14:00     -140.534       -9.055      -17.107       50.047       65.905       36.461     2504.700     4343.408     1329.378        1.415        0.409      140.825       24.504        0.030      339.155       12.294      859.589
05/26/2013  03:15:00     -222.790      -71.628      -17.533       70.175       59.418       36.099     4924.485     3530.503     1303.168        3.241        0.488      234.021       36.847        0.025      339.116       12.227      859.584
05/26/2013  03:16:00     -137.534      -22.314      -10.590       64.156       55.782       41.643     4115.959     3111.637     1734.114        1.424        0.448      139.333       34.719        0.062      339.086       12.179      859.589
05/26/2013  03:17:00     -118.045      -53.984      -12.946       74.150       50.009       29.922     5498.290     2500.882      895.297        1.295        0.445      129.803       19.818        0.023      339.065       12.142      859.591
05/26/2013  03:18:00     -160.462      -73.656      -12.447       98.634       53.047       35.748     9728.738     2813.973     1277.924        2.257        0.691      176.560       30.294        0.029      339.078       12.163      859.603
05/26/2013  03:19:00     -189.794      -90.528      -12.022      140.326       77.011       44.317    19691.356     5930.723     1963.963        3.597        1.379      210.279       44.272        0.044      339.053       12.122      859.608
05/26/2013  03:20:00     -290.173      -65.701      -19.778       73.737       66.295       41.778     5437.214     4395.023     1745.421        5.024        0.579      297.518       35.522        0.014      339.072       12.151      859.628
05/26/2013  03:21:00     -307.169      -29.013      -36.121       62.946       67.107       39.334     3962.182     4503.325     1547.128        5.325        0.501      308.536       37.069        0.014      339.059       12.129      859.615
05/26/2013  03:22:00     -319.715        1.170      -33.533       55.767       71.973       32.475     3109.906     5180.085     1054.598        5.634        0.467      319.717       19.484        0.004      339.068       12.145      859.614
05/26/2013  03:23:00     -246.506      -89.134      -19.030      109.239       81.338       54.194    11933.261     6615.890     2937.039        4.528        1.074      262.126       58.921        0.051      339.059       12.129      859.626
05/26/2013  03:24:00     -321.060     -124.616      -22.589       78.130       70.757       38.218     6104.289     5006.562     1460.625        6.584        0.629      344.396       40.874        0.014      339.050       12.114      859.633
05/26/2013  03:25:00     -238.400      -59.980       -7.050       66.133       64.661       34.085     4373.620     4181.007     1161.784        3.510        0.486      245.830       26.693        0.012      339.035       12.089      859.608
05/26/2013  03:26:00     -186.609      -59.481      -10.570       90.983       78.365       40.600     8277.942     6141.084     1648.330        2.727        0.803      195.859       41.945        0.046      339.004       12.037      859.603
05/26/2013  03:27:00     -209.117      -79.586      -16.002       76.774       56.693       43.911     5894.318     3214.152     1928.200        3.068        0.552      223.749       42.139        0.035      338.949       11.944      859.594
05/26/2013  03:28:00     -213.986      -29.210      -13.711       52.865       53.097       33.821     2794.747     2819.321     1143.856        2.679        0.338      215.971       18.102        0.007      338.938       11.926      859.600
05/26/2013  03:29:00     -177.894      -47.029      -15.882       83.775       58.834       44.079     7018.177     3461.392     1943.001        2.326        0.621      184.006       44.890        0.060      338.989       12.014      859.609
05/26/2013  03:30:00     -264.748      -71.813      -13.751       77.051       88.926       45.122     5936.881     7907.756     2035.986        4.566        0.794      274.315       39.750        0.021      338.993       12.019      859.620
05/26/2013  03:31:00     -219.235      -28.797      -17.904       78.687       84.178       33.639     6191.576     7086.014     1131.579        3.181        0.720      221.118       31.056        0.020      339.011       12.048      859.612
05/26/2013  03:32:00     -221.199     -113.922       -8.827       86.044       59.721       44.374     7403.651     3566.620     1969.039        3.746        0.647      248.811       32.256        0.017      339.026       12.074      859.606
05/26/2013  03:33:00     -176.939      -53.623        2.264       85.264       73.783       46.066     7269.958     5443.867     2122.043        2.451        0.742      184.886       48.649        0.069      338.936       11.923      859.616
05/26/2013  03:34:00     -244.949       21.135      -19.708      101.616      102.199       39.574    10325.782    10444.668     1566.130        4.158        1.117      245.859       28.204        0.013      339.012       12.050      859.625
05/26/2013  03:35:00     -216.260      -31.158      -14.736       83.443       88.433       38.183     6962.767     7820.445     1457.949        3.210        0.812      218.493       39.971        0.033      339.043       12.102      859.619
05/26/2013  03:36:00     -195.965      -75.788      -13.257       81.016       63.991       41.856     6563.656     4094.897     1751.884        2.836        0.621      210.110       34.076        0.026      339.026       12.073      859.613
05/26/2013  03:37:00     -271.260      -72.016      -20.565       81.635       71.533       44.841     6664.193     5116.996     2010.758        4.649        0.690      280.657       29.141        0.011      339.055       12.124      859.612
05/26/2013  03:38:00     -296.533      -94.846      -13.655       69.542       56.318       41.091     4836.105     3171.735     1688.453        5.340        0.485      311.332       28.109        0.008      339.069       12.146      859.614
05/26/2013  03:39:00     -292.691      -79.312      -13.436       62.360       59.897       34.658     3888.731     3587.624     1201.146        5.041        0.434      303.246       33.465        0.012      339.062       12.134      859.616
05/26/2013  03:40:00     -284.955      -89.102       -4.295       84.236       79.612       38.189     7095.671     6338.049     1458.386        5.202        0.745      298.560       37.128        0.015      339.040       12.098      859.626
05/26/2013  03:41:00     -213.961      -86.961       -4.266       88.051       74.714       44.663     7752.918     5582.153     1994.817        3.434        0.766      230.958       31.507        0.019      338.979       11.996      859.620
05/26/2013  03:42:00     -257.273      -43.917       -6.051      147.602       88.807       56.116    21786.273     7886.769     3149.001        5.048        1.641      260.994       70.666        0.073      339.019       12.064      859.616
05/26/2013  03:43:00     -211.510       24.501      -12.423      108.636      106.756       53.375    11801.723    11396.807     2848.942        3.576        1.302      212.924       41.379        0.038      339.117       12.228      859.611
05/26/2013  03:44:00     -281.236      -33.550       -0.470      127.577       92.041       58.288    16275.956     8471.533     3397.483        5.418        1.407      283.230       55.342        0.038      339.081       12.166      859.626
05/26/2013  03:45:00     -340.417     -101.496      -19.982       88.852       99.271       49.466     7894.610     9854.670     2446.904        7.339        1.010      355.226       43.555        0.015      339.148       12.279      859.629
05/26/2013  03:46:00     -305.295     -109.980      -17.342      114.679      118.003       56.117    13151.186    13924.737     3149.136        6.791        1.511      324.501       55.118        0.029      339.196       12.360      859.638
05/26/2013  03:47:00     -213.545      -59.576       -8.916       72.528       84.471       36.343     5260.267     7135.311     1320.817        3.147        0.686      221.699       26.186        0.014      339.142       12.270      859.647
05/26/2013  03:48:00     -205.532      -24.776      -13.110       92.155       66.347       46.592     8492.478     4401.907     2170.848        2.904        0.753      207.020       39.694        0.037      339.116       12.227      859.648
05/26/2013  03:49:00     -294.372      -36.424      -33.745       82.431       88.654       51.142     6794.821     7859.572     2615.551        5.319        0.863      296.617       36.821        0.015      339.119       12.231      859.659
05/26/2013  03:50:00     -208.013      -78.165      -13.731       79.785       74.092       44.958     6365.617     5489.599     2021.250        3.172        0.694      222.214       28.186        0.016      339.114       12.223      859.662
05/26/2013  03:51:00     -211.415      -41.688      -10.327       66.359       73.400       41.458     4403.554     5387.601     1718.765        2.902        0.575      215.486       38.935        0.033      339.089       12.181      859.673
05/26/2013  03:52:00     -133.498      -48.839      -12.542       54.445       50.113       31.999     2964.274     2511.278     1023.930        1.343        0.325      142.151       19.482        0.019      339.063       12.140      859.666
05/26/2013  03:53:00     -133.057      -85.639        1.106       79.704       49.711       41.679     6352.738     2471.160     1737.179        1.780        0.528      158.235       42.000        0.070      339.048       12.113      859.675
05/26/2013  03:54:00     -187.612      -50.993      -14.656      102.068       92.301       48.169    10417.825     8519.402     2320.252        2.963        1.063      194.418       53.007        0.074      339.074       12.157      859.662
05/26/2013  03:55:00     -261.224      -22.086      -30.008       81.834       58.045       41.023     6696.782     3369.212     1682.880        4.069        0.587      262.156       42.004        0.026      339.129       12.246      859.644
05/26/2013  03:56:00     -157.863      -21.163       -8.096       43.607       64.269       30.832     1901.543     4130.479      950.616        1.621        0.349      159.275       25.381        0.025      339.114       12.225      859.632
05/26/2013  03:57:00     -222.411      -54.604      -15.935       98.145       77.139       50.725     9632.364     5950.453     2573.042        3.543        0.908      229.016       34.994        0.023      339.110       12.216      859.648
05/26/2013  03:58:00     -268.132        2.846      -30.476       88.589       50.537       33.438     7847.936     2553.997     1118.123        4.217        0.576      268.147       36.162        0.018      339.155       12.292      859.638
05/26/2013  03:59:00     -167.487       -2.333       -8.957       64.363       48.831       30.622     4142.619     2384.447      937.680        1.780        0.373      167.504       32.381        0.037      339.140       12.266      859.634
05/26/2013  04:00:00     -224.356      -93.256      -17.714       50.193       58.801       39.338     2519.354     3457.506     1547.487        3.343        0.376      242.966       26.059        0.012      339.112       12.219      859.625
05/26/2013  04:01:00     -216.676      -25.566      -22.284      111.034       57.146       49.680    12328.606     3265.638     2468.134        3.308        0.903      218.179       59.025        0.073      339.147       12.279      859.622
05/26/2013  04:02:00     -187.024      -35.429       -6.510       89.979       68.419       41.321     8096.255     4681.208     1707.456        2.538        0.724      190.350       39.732        0.044      339.087       12.177      859.628
05/26/2013  04:03:00     -157.032      -29.514      -13.034       43.819       40.155       28.789     1920.098     1612.455      828.818        1.503        0.218      159.781       16.808        0.011      339.071       12.152      859.631
05/26/2013  04:04:00     -147.145       44.497      -15.716       58.476       52.729       27.530     3419.468     2780.335      757.891        1.542        0.348      153.725       26.540        0.030      339.101       12.203      859.635
05/26/2013  04:05:00     -134.654       22.231      -12.128       60.071       55.824       29.353     3608.580     3116.349      861.611        1.318        0.379      136.476       29.807        0.048      338.996       12.028      859.627
05/26/2013  04:06:00      -91.699      -23.649        1.771       38.623       32.911       19.838     1491.725     1083.124      393.537        0.597        0.148       94.699        9.443        0.010      338.951       11.953      859.631
05/26/2013  04:07:00     -111.363      -20.369      -10.543       36.414       34.661       24.613     1326.001     1201.374      605.784        0.803        0.157      113.211       18.222        0.026      338.978       11.997      859.618
05/26/2013  04:08:00     -122.654       33.550      -15.708       55.450       58.016       34.409     3074.705     3365.800     1183.982        1.202        0.381      127.160       36.359        0.082      338.980       12.001      859.602
05/26/2013  04:09:00     -174.189      -33.166      -17.175      101.095       58.247       36.071    10220.259     3392.732     1301.124        2.332        0.746      177.318       42.028        0.056      339.003       12.037      859.590
05/26/2013  04:10:00     -131.655      -61.566      -11.790       62.069       36.557       32.660     3852.553     1336.437     1066.687        1.376        0.313      145.339       32.818        0.051      339.042       12.103      859.596
05/26/2013  04:11:00     -156.151      -61.572      -13.054       63.863       53.856       27.402     4078.532     2900.511      750.881        1.804        0.386      167.851       26.592        0.025      338.999       12.032      859.604
05/26/2013  04:12:00     -216.910       40.868      -21.396       71.817       46.159       36.073     5157.652     2130.665     1301.269        2.888        0.429      220.727       36.320        0.027      338.979       11.994      859.601
05/26/2013  04:13:00     -219.420       23.104      -17.552       62.314       61.161       32.647     3883.007     3740.728     1065.855        2.884        0.434      220.633       22.558        0.010      339.038       12.095      859.592
05/26/2013  04:14:00     -134.222      -62.974       -0.154       60.587       60.710       34.835     3670.740     3685.650     1213.503        1.527        0.428      148.260       35.463        0.057      338.941       11.934      859.588
05/26/2013  04:15:00     -206.815      -58.926       -3.495      103.249       69.577       46.768    10660.391     4841.017     2187.205        3.197        0.884      215.046       56.858        0.070      338.976       11.991      859.591
05/26/2013  04:16:00     -111.169        2.749       11.583       73.683       60.986       39.473     5429.115     3719.258     1558.155        1.160        0.535      111.203       34.908        0.099      338.909       11.879      859.594
05/26/2013  04:17:00     -141.285      -11.359       -1.330       71.237       58.055       30.785     5074.689     3370.372      947.705        1.474        0.470      141.741       33.008        0.054      338.918       11.895      859.598
05/26/2013  04:18:00     -183.621       47.481      -13.787       77.063      100.558       49.102     5938.706    10111.921     2411.045        2.731        0.923      189.660       49.533        0.068      339.011       12.048      859.601
05/26/2013  04:19:00     -100.624        5.845      -13.853       87.880       97.343       48.456     7722.969     9475.750     2347.976        1.495        0.977      100.794       45.000        0.199      338.965       11.972      859.598
05/26/2013  04:20:00     -142.498      -41.034       -1.312       97.654       99.933       47.224     9536.342     9986.610     2230.148        2.187        1.088      148.289       57.032        0.148      339.020       12.066      859.602
05/26/2013  04:21:00      -81.920       33.024        5.476       69.632       54.739       38.303     4848.677     2996.395     1467.127        0.857        0.466       88.326       38.900        0.194      338.981       12.002      859.607
05/26/2013  04:22:00     -134.841       -5.318      -26.917       75.045       60.093       28.530     5631.736     3611.125      813.942        1.449        0.503      134.946       35.583        0.070      339.106       12.212      859.633
05/26/2013  04:23:00     -108.335        3.325      -15.626       56.729       58.810       26.982     3218.152     3458.626      728.013        0.970        0.370      108.386       20.899        0.037      339.062       12.138      859.643
05/26/2013  04:24:00     -146.182       20.999      -11.293       54.713       60.340       31.172     2993.558     3640.932      971.672        1.477        0.380      147.683       28.173        0.036      339.078       12.164      859.651
05/26/2013  04:25:00     -135.038       22.805      -20.202       62.971       44.544       32.339     3965.408     1984.211     1045.793        1.308        0.350      136.950       11.020        0.006      339.082       12.172      859.650
05/26/2013  04:26:00     -181.445       88.789      -19.288      113.103       77.835       43.183    12792.196     6058.221     1864.741        3.094        1.036      202.005       47.136        0.054      339.102       12.203      859.649
05/26/2013  04:27:00     -218.423      -23.961      -25.104       85.208      102.159       47.025     7260.480    10436.515     2211.316        3.441        0.995      219.733       47.952        0.048      339.156       12.293      859.656
05/26/2013  04:28:00     -129.167       23.097      -16.667       81.249       51.596       37.115     6601.433     2662.131     1377.552        1.407        0.532      131.216       31.067        0.056      339.151       12.285      859.661
05/26/2013  04:29:00     -184.027       50.553      -27.669       70.238       86.399       42.532     4933.398     7464.781     1808.968        2.569        0.710      190.844       42.173        0.049      339.214       12.392      859.671
05/26/2013  04:30:00     -116.100       39.271      -22.241       51.076       68.571       35.693     2608.711     4701.945     1274.010        1.205        0.429      122.562       24.785        0.041      339.124       12.243      859.686
05/26/2013  04:31:00     -184.794       83.062      -29.249       95.561       70.158       39.379     9131.824     4922.130     1550.703        2.875        0.780      202.603       47.162        0.054      339.151       12.287      859.692
05/26/2013  04:32:00     -185.860       91.569      -23.395       88.278       77.947       45.286     7792.918     6075.775     2050.855        2.970        0.796      207.193       44.516        0.046      339.151       12.284      859.680
05/26/2013  04:33:00     -157.243       35.447      -11.967       76.992       67.851       34.290     5927.763     4603.761     1175.828        1.891        0.585      161.189       33.084        0.042      339.134       12.257      859.688
05/26/2013  04:34:00     -216.030      -46.040      -24.347       71.889       90.541       47.471     5167.991     8197.730     2253.530        3.250        0.781      220.882       28.939        0.017      339.158       12.296      859.697
05/26/2013  04:35:00     -223.449      -45.645       -9.401       68.835       74.516       41.788     4738.220     5552.572     1746.272        3.207        0.602      228.064       29.112        0.016      339.081       12.167      859.708
05/26/2013  04:36:00     -205.751      -70.323      -19.385       78.264       74.067       48.189     6125.257     5485.891     2322.203        3.079        0.697      217.436       43.125        0.039      339.097       12.193      859.718
05/26/2013  04:37:00     -226.613      -69.445      -16.655       74.802       73.069       49.092     5595.293     5339.038     2410.072        3.490        0.667      237.015       24.802        0.011      339.143       12.272      859.710
05/26/2013  04:38:00     -422.669     -139.048      -21.663      116.143       94.036       64.159    13489.096     8842.737     4116.403       11.245        1.322      444.953       63.815        0.021      339.263       12.472      859.679
05/26/2013  04:39:00     -327.780      -40.230      -15.643      123.822      139.598       61.798    15331.772    19487.580     3818.978        7.396        1.932      330.240       55.893        0.029      339.266       12.480      859.673
05/26/2013  04:40:00     -284.271     -125.802      -11.290      144.987      102.540       68.305    21021.188    10514.375     4665.531        6.648        1.810      310.863       68.592        0.049      339.216       12.395      859.693
05/26/2013  04:41:00     -283.269      -20.901      -33.945      108.589       95.845       46.288    11791.501     9186.174     2142.602        5.247        1.156      284.039       48.073        0.029      339.190       12.349      859.691
05/26/2013  04:42:00     -310.704       -1.224      -39.441       75.753       67.101       49.706     5738.585     4502.585     2470.682        5.540        0.636      310.707       43.372        0.019      339.148       12.280      859.678
05/26/2013  04:43:00     -395.566       -8.256      -42.098      116.030       86.209       62.472    13462.868     7431.957     3902.713        9.155        1.240      395.652       60.739        0.024      339.199       12.366      859.667
05/26/2013  04:44:00     -256.954       95.270      -28.877      109.693       96.321       51.087    12032.481     9277.639     2609.893        4.992        1.196      274.047       47.858        0.030      339.210       12.384      859.678
05/26/2013  04:45:00     -143.428       74.993      -32.407       81.506      105.286       55.390     6643.283    11085.194     3068.080        2.402        1.040      161.851       38.489        0.057      339.125       12.243      859.674
05/26/2013  04:46:00     -301.434      -82.051      -34.029      111.428       84.063       51.960    12416.157     7066.602     2699.793        6.046        1.109      312.402       53.029        0.029      339.122       12.236      859.670
05/26/2013  04:47:00     -174.128      -47.660       -0.468       77.099       90.660       35.185     5944.254     8219.250     1237.990        2.399        0.770      180.533       33.148        0.034      339.037       12.093      859.657
05/26/2013  04:48:00     -270.996      -80.601      -14.113      138.652       77.096       56.571    19224.281     5943.838     3200.262        5.425        1.418      282.728       66.035        0.055      339.030       12.081      859.648
05/26/2013  04:49:00     -227.972      -87.762       -6.457      168.445       80.417       52.861    28373.881     6466.882     2794.251        4.867        1.882      244.281       69.258        0.080      339.039       12.097      859.646
05/26/2013  04:50:00     -112.659       32.788      -16.280       67.362      107.826       46.702     4537.606    11626.361     2181.042        1.619        0.917      117.333       27.246        0.054      339.057       12.128      859.670
05/26/2013  04:51:00     -101.444      -41.263       -5.356       83.784       89.668       44.922     7019.792     8040.388     2017.991        1.455        0.854      109.515       35.550        0.105      339.051       12.118      859.685
05/26/2013  04:52:00      -87.822      -67.085        0.414      102.542       64.824       45.823    10514.820     4202.181     2099.761        1.451        0.841      110.513       43.139        0.152      338.996       12.025      859.693
05/26/2013  04:53:00     -151.198      -44.140       -0.488       92.561       65.998       43.538     8567.466     4355.736     1895.549        1.981        0.741      157.509       38.335        0.059      338.922       11.902      859.695
05/26/2013  04:54:00     -257.650      -83.157      -30.641       75.999       76.129       41.244     5775.887     5795.694     1701.058        4.375        0.664      270.737       39.727        0.022      338.964       11.970      859.685
05/26/2013  04:55:00     -230.965     -112.987       -7.038       88.168       71.237       47.905     7773.595     5074.764     2294.842        4.065        0.757      257.120       49.097        0.036      338.940       11.930      859.704
05/26/2013  04:56:00     -149.130     -103.944        3.912      126.922       74.766       42.768    16109.092     5589.966     1829.116        2.829        1.176      181.780       57.521        0.100      338.908       11.877      859.759
05/26/2013  04:57:00      -69.415     -123.021        2.171       60.828       60.070       29.601     3700.072     3608.464      876.205        1.407        0.409      141.254       28.867        0.042      338.908       11.879      859.796
05/26/2013  04:58:00      -50.929      -99.465       -9.689       71.114       62.062       28.943     5057.180     3851.669      837.690        1.116        0.487      111.745       24.407        0.048      338.928       11.913      859.775
05/26/2013  04:59:00      -62.720      -53.804       14.010       66.785       63.125       36.700     4460.303     3984.783     1346.919        0.841        0.490       82.636       35.132        0.181      338.848       11.779      859.779
05/26/2013  05:00:00     -104.728     -116.736       -4.033       61.381       80.144       32.592     3767.666     6423.014     1062.242        1.793        0.563      156.829       33.769        0.046      338.838       11.761      859.796
05/26/2013  05:01:00     -102.747     -152.013       -4.519       47.974       48.867       34.429     2301.500     2387.937     1185.371        1.978        0.294      183.480       24.566        0.018      338.834       11.752      859.799
05/26/2013  05:02:00      -68.861     -118.373        0.015       58.937       36.361       33.904     3473.514     1322.103     1149.458        1.235        0.297      136.945       31.001        0.051      338.837       11.760      859.810
05/26/2013  05:03:00      -25.345     -157.130       -5.216       45.972       59.911       32.196     2113.457     3589.314     1036.596        1.605        0.337      159.161       21.065        0.018      338.810       11.713      859.803
05/26/2013  05:04:00      -55.756      -54.932       -1.395       44.530       49.474       27.131     1982.898     2447.683      736.076        0.565        0.258       78.271       25.858        0.109      338.764       11.638      859.795
05/26/2013  05:05:00      -99.315     -119.657       -9.039       74.629       46.252       30.300     5569.550     2139.247      918.072        1.644        0.431      155.503       18.599        0.014      338.824       11.738      859.794
05/26/2013  05:06:00      -73.134      -70.367      -11.591       41.235       35.686       18.341     1700.328     1273.496      336.401        0.687        0.166      101.489       12.673        0.016      338.833       11.753      859.788
05/26/2013  05:07:00      -50.321      -98.447       -2.800       33.469       38.464       23.388     1120.145     1479.473      546.984        0.769        0.157      110.563       13.863        0.016      338.826       11.742      859.790
05/26/2013  05:08:00     -101.156      -98.440       -3.081       75.650       53.599       34.178     5722.882     2872.838     1168.104        1.485        0.488      141.148       25.395        0.032      338.780       11.664      859.782
05/26/2013  05:09:00     -114.014      -69.166      -10.372       73.357       30.165       26.343     5381.314      909.915      693.954        1.244        0.349      133.353       12.329        0.009      338.778       11.660      859.790
05/26/2013  05:10:00     -156.607      -88.832        1.841       83.286       91.920       40.079     6936.535     8449.331     1606.318        2.470        0.850      180.047       42.709        0.056      338.750       11.610      859.788
05/26/2013  05:11:00     -122.292      -94.582       -8.432       47.848       57.654       31.798     2289.412     3324.007     1011.130        1.530        0.331      154.600       23.205        0.023      338.772       11.650      859.771
05/26/2013  05:12:00     -133.508      -94.815       -4.205       74.056       54.715       38.999     5484.276     2993.736     1520.898        1.841        0.500      163.750       35.828        0.048      338.826       11.741      859.744
05/26/2013  05:13:00     -178.208      -35.262      -14.756       72.158       37.183       32.474     5206.757     1382.565     1054.542        2.043        0.382      181.663       32.414        0.032      338.819       11.729      859.715
05/26/2013  05:14:00      -66.595      -41.005       -5.009       53.438       24.835       23.103     2855.656      616.791      533.734        0.507        0.200       78.207       26.221        0.112      338.752       11.618      859.703
05/26/2013  05:15:00     -156.713        3.684        1.373      120.291       61.886       41.835    14469.929     3829.907     1750.166        2.231        1.003      156.756       45.278        0.083      338.712       11.551      859.701
05/26/2013  05:16:00     -181.973      -90.419       -7.721      100.402       55.546       37.942    10080.654     3085.308     1439.633        2.798        0.730      203.199       38.575        0.036      338.758       11.626      859.717
05/26/2013  05:17:00     -204.070      -62.126      -18.962      104.983       92.695       39.025    11021.464     8592.350     1522.981        3.350        1.057      213.317       36.389        0.029      338.838       11.760      859.719
05/26/2013  05:18:00      -84.254      -52.117        6.788       72.335       51.882       32.821     5232.342     2691.727     1077.192        0.943        0.450       99.070       35.065        0.125      338.790       11.680      859.711
05/26/2013  05:19:00     -172.778      -83.375       -8.021       79.514      112.397       40.337     6322.481    12633.090     1627.099        2.872        1.029      191.843       47.478        0.061      338.821       11.731      859.718
05/26/2013  05:20:00      -86.593       -5.043        7.783       93.875       82.304       52.475     8812.493     6774.029     2753.578        1.296        0.917       86.740       46.490        0.287      338.804       11.704      859.701
05/26/2013  05:21:00     -259.774      -77.436       -2.061      137.172      117.691       65.332    18816.218    13851.231     4268.309        5.520        1.847      271.070       73.265        0.073      338.859       11.793      859.706
05/26/2013  05:22:00     -216.214      -95.637      -11.221       94.080       72.025       43.808     8851.128     5187.623     1919.178        3.599        0.798      236.421       40.991        0.030      338.857       11.791      859.718
05/26/2013  05:23:00     -234.870     -110.399        1.295      145.370      108.906       69.792    21132.434    11860.432     4870.915        5.260        1.893      259.522       80.738        0.097      338.898       11.861      859.717
05/26/2013  05:24:00     -144.585     -124.598        8.335      127.041      107.261       61.020    16139.389    11504.847     3723.384        3.393        1.568      190.865       70.788        0.138      338.866       11.809      859.708
05/26/2013  05:25:00      -97.424      -76.598       18.993       98.364       69.667       56.572     9675.399     4853.449     3200.425        1.672        0.886      123.930       57.718        0.217      338.854       11.789      859.731
05/26/2013  05:26:00     -111.489     -105.236        4.400      106.149       78.200       50.473    11267.583     6115.198     2547.529        2.172        0.997      153.311       51.926        0.115      338.928       11.912      859.724
05/26/2013  05:27:00     -131.004     -136.709        1.263      102.602       69.827       44.975    10527.125     4875.759     2022.744        2.664        0.871      189.345       44.131        0.054      338.917       11.894      859.745
05/26/2013  05:28:00     -120.411     -128.590       13.367       81.777       72.766       43.588     6687.414     5294.844     1899.900        2.255        0.694      176.165       38.392        0.047      338.914       11.887      859.761
05/26/2013  05:29:00      -71.878     -106.953        8.617       57.232       58.979       40.912     3275.445     3478.517     1673.823        1.255        0.421      128.862       38.036        0.087      338.865       11.806      859.770
05/26/2013  05:30:00       -6.460     -149.579       -1.409       78.270       88.389       35.673     6126.132     7812.657     1272.563        1.881        0.761      149.718       25.984        0.030      338.771       11.648      859.763
05/26/2013  05:31:00       67.292     -147.174      -15.190       78.988       68.004       48.406     6239.086     4624.612     2343.167        1.981        0.660      161.828       52.433        0.105      338.518       11.222      859.731
05/26/2013  05:32:00      -23.216      -39.557       -6.510       52.700       58.737       33.701     2777.261     3450.040     1135.766        0.475        0.368       45.867       27.504        0.360      338.507       11.206      859.768
05/26/2013  05:33:00       -4.757      -46.057        8.655       34.827       56.743       28.436     1212.936     3219.737      808.586        0.373        0.262       46.302       27.033        0.341      338.411       11.042      859.769
05/26/2013  05:34:00       51.354      -75.177       12.328       60.932       70.838       34.680     3712.690     5017.990     1202.694        0.919        0.497       91.043       38.338        0.177      338.341       10.926      859.762
05/26/2013  05:35:00       51.196     -118.288      -13.625       58.062       71.363       37.848     3371.193     5092.720     1432.504        1.335        0.495      128.892       25.414        0.039      338.234       10.744      859.735
05/26/2013  05:36:00       10.452     -107.414       -6.680       35.811       45.143       36.903     1282.396     2037.918     1361.846        0.819        0.234      107.921       27.997        0.067      338.286       10.834      859.734
05/26/2013  05:37:00       24.503      -24.810       16.933       59.708       36.605       28.272     3565.027     1339.890      799.281        0.360        0.285       34.870       22.293        0.409      338.206       10.699      859.748
05/26/2013  05:38:00      -31.432      -13.696       15.562       63.070       40.954       26.677     3977.826     1677.256      711.660        0.389        0.318       34.286       34.946        1.039      338.141       10.591      859.762
05/26/2013  05:39:00      -59.249      -43.543        0.277       18.875       23.425       16.915      356.272      548.736      286.104        0.330        0.060       73.528       10.978        0.022      338.161       10.623      859.743
05/26/2013  05:40:00      -12.022      -11.094       -1.897       28.697       41.165       21.935      823.496     1694.561      481.149        0.163        0.150       16.359       15.818        0.935      338.128       10.569      859.716
05/26/2013  05:41:00      -52.758     -132.998      -12.489       70.188       64.921       34.683     4926.385     4214.745     1202.900        1.548        0.517      143.080       29.225        0.042      338.314       10.881      859.721
05/26/2013  05:42:00      -76.750      -43.869       -2.099       46.729       50.299       27.852     2183.559     2529.963      775.754        0.665        0.274       88.403       25.753        0.085      338.106       10.532      859.755
05/26/2013  05:43:00      -17.589      -74.413       -0.927       32.984       63.557       27.432     1087.922     4039.532      752.522        0.586        0.294       76.463       31.446        0.169      338.120       10.557      859.780
05/26/2013  05:44:00        8.313     -111.631       -1.210       37.426       55.075       29.020     1400.684     3033.222      842.138        0.890        0.264      111.940       18.532        0.027      338.360       10.958      859.771
05/26/2013  05:45:00      -63.203     -109.810       -1.583       79.856       53.306       34.937     6377.057     2841.568     1220.580        1.325        0.522      126.700       28.296        0.050      338.356       10.953      859.760
05/26/2013  05:46:00     -120.242      -82.430       -7.194       69.484       56.701       36.295     4828.038     3215.019     1317.309        1.533        0.468      145.783       44.122        0.092      338.388       11.005      859.770
05/26/2013  05:47:00      -26.896      -73.504        0.756       29.307       46.743       20.740      858.879     2184.872      430.141        0.480        0.174       78.270       23.122        0.087      338.465       11.134      859.765
05/26/2013  05:48:00      -14.893      -69.825      -12.696       35.638       45.370       22.469     1270.064     2058.474      504.844        0.455        0.192       71.396       22.500        0.099      338.333       10.913      859.759
05/26/2013  05:49:00       -9.918      -35.358        2.514       22.667       32.511       21.570      513.800     1056.938      465.268        0.170        0.102       36.723       16.857        0.211      338.345       10.934      859.742
05/26/2013  05:50:00       -9.218      -37.956        9.242       27.212       40.435       21.840      740.477     1634.992      476.966        0.223        0.143       39.060       21.230        0.295      338.473       11.150      859.727
05/26/2013  05:51:00        7.439      -93.487       -6.598       51.614       31.404       28.656     2664.031      986.218      821.156        0.665        0.224       93.783       14.086        0.023      338.488       11.174      859.755
05/26/2013  05:52:00      -80.971     -125.025       -4.829       73.498       76.957       41.359     5401.891     5922.413     1710.567        1.762        0.652      148.955       38.359        0.066      338.628       11.406      859.767
05/26/2013  05:53:00       32.777      -84.130       -1.254       38.231       27.447       25.930     1461.600      753.365      672.347        0.552        0.144       90.290       11.820        0.017      338.436       11.086      859.786
05/26/2013  05:54:00      -56.616     -100.772        7.384       40.075       39.825       30.387     1605.993     1586.029      923.346        0.876        0.206      115.587       26.137        0.051      338.438       11.089      859.821
05/26/2013  05:55:00      -49.048      -73.460       11.334       75.603       44.741       33.491     5715.772     2001.750     1121.638        0.838        0.442       88.329       38.204        0.187      338.383       10.997      859.845
05/26/2013  05:56:00      -26.076     -100.928        6.870       67.565       53.380       33.440     4564.965     2849.472     1118.265        0.972        0.427      104.242       31.905        0.094      338.370       10.975      859.860
05/26/2013  05:57:00       40.871      -94.111      -18.459       68.265       60.925       35.928     4660.150     3711.898     1290.794        1.026        0.483      102.603       27.318        0.071      338.389       11.006      859.866
05/26/2013  05:58:00       22.803      -78.655       -0.142       73.199       73.880       52.176     5358.138     5458.303     2722.308        1.012        0.677       81.894       47.699        0.339      338.272       10.811      859.854
05/26/2013  05:59:00      -49.947     -100.499        3.900       94.225       89.396       41.349     8878.362     7991.659     1709.733        1.559        0.929      112.226       42.474        0.143      338.285       10.831      859.863
05/26/2013  06:00:00      -68.194      -34.657       10.137       43.931       42.843       28.124     1929.895     1835.489      790.956        0.525        0.228       76.496       24.552        0.103      338.187       10.668      859.885
05/26/2013  06:01:00      -39.220      -81.111        4.950       33.005       46.099       33.434     1089.345     2125.100     1117.858        0.624        0.217       90.095       19.112        0.045      338.321       10.893      859.874
05/26/2013  06:02:00      -10.273      -49.722       12.682       41.172       42.874       37.403     1695.145     1838.198     1399.019        0.383        0.247       50.772       31.938        0.396      338.303       10.862      859.853
05/26/2013  06:03:00       11.196      -90.622       -2.548       41.080       53.204       36.021     1687.587     2830.622     1297.521        0.708        0.291       91.311       25.034        0.075      338.378       10.989      859.859
05/26/2013  06:04:00        7.169      -63.051        2.710       31.444       41.639       26.900      988.694     1733.810      723.628        0.374        0.172       63.457       24.444        0.148      338.404       11.034      859.857
05/26/2013  06:05:00       23.055     -112.728      -22.380       38.585       35.460       24.084     1488.785     1257.426      580.017        0.853        0.166      115.061       15.571        0.018      338.425       11.068      859.836
05/26/2013  06:06:00      -52.676      -54.862        0.393       41.030       53.888       26.688     1683.488     2903.876      712.275        0.554        0.265       76.056       15.867        0.044      338.490       11.178      859.836
05/26/2013  06:07:00      -16.014      -20.462       -5.632       24.778       26.347       18.198      613.939      694.161      331.172        0.117        0.082       25.984        9.525        0.134      338.444       11.100      859.864
05/26/2013  06:08:00       -7.071      -41.051        2.043       34.070       41.251       23.230     1160.744     1701.618      539.648        0.257        0.170       41.655       25.640        0.379      338.420       11.059      859.875
05/26/2013  06:09:00      -31.355      -22.275        0.323       31.006       35.153       21.528      961.375     1235.755      463.473        0.207        0.133       38.462       20.990        0.298      338.375       10.983      859.899
05/26/2013  06:10:00      -17.529      -91.105        8.717       24.730       73.507       19.329      611.581     5403.327      373.592        0.753        0.319       92.776       29.090        0.098      338.302       10.862      859.905
05/26/2013  06:11:00      -11.421      -99.378        6.943       35.170       34.770       30.126     1236.929     1208.931      907.577        0.670        0.168      100.032       21.723        0.047      338.362       10.962      859.906
05/26/2013  06:12:00      -16.372      -45.170        8.125       28.663       25.842       20.409      821.577      667.796      416.519        0.214        0.095       48.046       14.133        0.087      338.425       11.068      859.898
05/26/2013  06:13:00       -2.206      -37.196       -8.841       47.031       36.526       24.934     2211.877     1334.147      621.694        0.282        0.208       37.262       12.398        0.111      338.399       11.024      859.895
05/26/2013  06:14:00      -14.605      -18.738        5.147       38.284       30.597       31.975     1465.656      936.146     1022.421        0.201        0.171       23.758       24.054        1.025      338.348       10.938      859.917
05/26/2013  06:15:00      -13.026      -55.821       -1.119       37.454       37.472       27.803     1402.804     1404.173      772.999        0.343        0.179       57.320       27.879        0.237      338.395       11.017      859.933
05/26/2013  06:16:00      -21.843      -48.373       10.743       31.760       47.091       25.189     1008.702     2217.549      634.490        0.340        0.193       53.076       24.540        0.214      338.540       11.261      859.964
05/26/2013  06:17:00      -58.866      -69.887        0.209       55.313       51.931       25.283     3059.575     2696.819      639.245        0.737        0.320       91.375       28.488        0.097      338.447       11.105      859.987
05/26/2013  06:18:00     -118.865     -163.800        0.083       70.517       60.774       34.407     4972.673     3693.432     1183.835        2.540        0.492      202.384       36.647        0.033      338.364       10.962      860.014
05/26/2013  06:19:00     -102.301     -137.385       -5.426       77.731       85.280       50.743     6042.143     7272.627     2574.853        2.263        0.794      171.289       41.867        0.060      338.309       10.872      860.012
05/26/2013  06:20:00      -49.078     -120.882       -8.418       69.675       47.774       36.809     4854.654     2282.311     1354.896        1.279        0.425      130.465       22.601        0.030      338.365       10.966      860.008
05/26/2013  06:21:00       -7.230     -127.897       13.103       48.470       70.204       54.223     2349.382     4928.606     2940.180        1.340        0.511      128.101       38.412        0.090      338.444       11.099      859.996
05/26/2013  06:22:00       46.429     -108.426      -20.869       60.449       56.010       40.327     3654.056     3137.071     1626.230        1.138        0.421      117.948       22.071        0.035      338.435       11.083      860.000
05/26/2013  06:23:00      -38.493      -56.789      -17.472       45.092       36.895       27.499     2033.329     1361.249      756.201        0.458        0.208       68.605       19.102        0.078      338.497       11.189      860.028
05/26/2013  06:24:00      -49.535      -11.273       -1.879       39.070       30.232       19.789     1526.426      913.996      391.605        0.271        0.142       50.801        9.236        0.033      338.527       11.240      860.042
05/26/2013  06:25:00      -45.454      -15.560      -12.491       44.562       32.405       21.696     1985.777     1050.109      470.696        0.298        0.175       48.043       13.231        0.076      338.515       11.220      860.054
05/26/2013  06:26:00      -44.725      -64.805        3.191       61.698       30.818       29.677     3806.640      949.767      880.716        0.592        0.282       78.740       23.766        0.091      338.413       11.048      860.075
05/26/2013  06:27:00      -57.204      -75.885      -14.533       40.227       32.292       21.113     1618.174     1042.756      445.753        0.617        0.155       95.031       16.250        0.029      338.497       11.188      860.057
05/26/2013  06:28:00      -42.808      -67.353        7.622       42.919       41.955       38.470     1842.037     1760.210     1479.979        0.575        0.254       79.806       24.623        0.095      338.573       11.316      860.053
05/26/2013  06:29:00      -31.078      -14.448        6.889       25.131       33.620       18.686      631.552     1130.278      349.183        0.167        0.106       34.272       11.381        0.110      338.597       11.356      860.056
05/26/2013  06:30:00      -20.773      -62.059      -10.393       72.279       44.399       33.126     5224.320     1971.311     1097.302        0.634        0.415       65.443       23.794        0.132      338.596       11.356      860.040
05/26/2013  06:31:00      -44.801     -126.234        0.872       47.177       46.840       28.823     2225.670     2194.013      830.787        1.160        0.263      133.949       19.623        0.021      338.733       11.584      860.052
05/26/2013  06:32:00      -15.864      -60.977        9.664       65.517       41.609       35.606     4292.461     1731.341     1267.781        0.568        0.365       63.006       33.872        0.289      338.766       11.641      860.051
05/26/2013  06:33:00      -63.043      -91.215        4.035       54.992       46.965       26.626     3024.100     2205.691      708.944        0.912        0.297      110.881       25.843        0.054      338.759       11.630      860.053
05/26/2013  06:34:00      -17.997      -91.094       15.180       69.792       57.678       36.424     4870.938     3326.746     1326.723        0.919        0.476       92.855       32.210        0.120      338.741       11.598      860.058
05/26/2013  06:35:00      -41.717      -46.812        4.809       66.513       38.106       27.960     4423.917     1452.105      781.751        0.531        0.333       62.703       29.492        0.221      338.759       11.630      860.080
05/26/2013  06:36:00      -26.205      -45.168       15.273       23.410       37.932       16.791      548.042     1438.827      281.923        0.261        0.113       52.219       12.455        0.057      338.909       11.881      860.076
05/26/2013  06:37:00       23.348      -50.157       26.593       44.924       47.891       23.306     2018.126     2293.549      543.157        0.431        0.243       55.325       24.414        0.195      338.923       11.906      860.091
05/26/2013  06:38:00      -14.274      -34.199       19.634       12.867       48.632       19.200      165.559     2365.104      368.625        0.233        0.145       37.059       24.491        0.437      338.967       11.979      860.082
05/26/2013  06:39:00      -15.741      -26.626        7.141       27.998       37.504       19.240      783.904     1406.516      370.196        0.178        0.128       30.931       26.158        0.715      338.975       11.992      860.088
05/26/2013  06:40:00      -71.625      -58.632       -1.155       24.707       27.526       16.447      610.430      757.704      270.510        0.510        0.082       92.563       13.510        0.021      338.938       11.932      860.113
05/26/2013  06:41:00       -3.679      -23.578       23.101       18.902       30.548       17.248      357.294      933.196      297.499        0.135        0.079       23.863        9.818        0.169      339.096       12.196      860.126
05/26/2013  06:42:00      -30.530       32.699       21.422       36.157       31.903       19.515     1307.342     1017.795      380.822        0.258        0.135       44.736       19.023        0.181      339.068       12.149      860.131
05/26/2013  06:43:00       19.912       49.382       29.839       44.392       15.586       21.084     1970.682      242.918      444.533        0.319        0.133       53.246        6.732        0.016      339.045       12.109      860.152
05/26/2013  06:44:00       21.263       26.627       15.114       20.488       23.968       11.608      419.760      574.475      134.755        0.126        0.056       34.075        6.474        0.036      339.030       12.085      860.162
05/26/2013  06:45:00      -22.088       82.119      -13.248       19.220       35.203       12.331      369.397     1239.275      152.050        0.458        0.088       85.038       12.993        0.023      338.948       11.947      860.179
05/26/2013  06:46:00      -38.764      117.230      -17.943       20.421       32.362       18.036      417.018     1047.302      325.284        0.868        0.089      123.473       10.579        0.007      338.764       11.636      860.178
05/26/2013  06:47:00        0.780      105.791       -6.527       34.026       47.960       27.160     1157.761     2300.145      737.658        0.771        0.210      105.794       31.235        0.087      338.822       11.735      860.147
05/26/2013  06:48:00       -7.893      178.681      -18.238       25.509       29.976       16.481      650.731      898.532      271.632        1.707        0.091      178.855       13.248        0.005      338.627       11.409      860.140
05/26/2013  06:49:00       32.115      129.045       -5.665       28.193       69.674       34.088      794.845     4854.522     1161.983        1.226        0.341      132.981       41.863        0.099      338.767       11.643      860.129
05/26/2013  06:50:00       74.167       63.576       17.096       64.882       44.757       33.229     4209.657     2003.167     1104.170        0.857        0.366       97.687       26.114        0.071      338.860       11.800      860.129
05/26/2013  06:51:00      112.151       71.730       14.912       25.912       18.445       22.333      671.434      340.227      498.748        0.973        0.076      133.128       14.529        0.012      338.733       11.584      860.134
05/26/2013  06:52:00       80.354       55.685        2.392       42.692       31.138       19.419     1822.640      969.554      377.099        0.637        0.158       97.763       14.697        0.023      338.834       11.754      860.144
05/26/2013  06:53:00       65.329       52.664       14.423       47.992       35.142       27.014     2303.186     1234.954      729.747        0.576        0.213       83.913       15.509        0.034      338.918       11.896      860.143
05/26/2013  06:54:00      147.050       63.770       14.239       69.704       39.924       37.750     4858.619     1593.949     1425.093        1.688        0.394      160.282       29.624        0.034      338.714       11.552      860.160
05/26/2013  06:55:00       57.591       31.186       48.015       48.207       51.140       40.585     2323.925     2615.290     1647.123        0.659        0.329       65.493       34.557        0.278      338.999       12.032      860.164
05/26/2013  06:56:00       52.912       74.449       73.837       55.987       42.601       42.568     3134.562     1814.877     1812.028        1.028        0.338       91.336       36.452        0.159      338.841       11.765      860.155
05/26/2013  06:57:00       59.101       23.229       39.252       55.257       54.016       35.918     3053.284     2917.739     1290.115        0.642        0.363       63.502       36.524        0.331      338.988       12.013      860.152
05/26/2013  06:58:00        7.003       17.775       51.722       23.773       32.253       21.908      565.139     1040.256      479.942        0.256        0.104       19.105       15.514        0.659      339.239       12.437      860.141
05/26/2013  06:59:00       30.006       -4.719       28.944       34.315       45.755       28.083     1177.521     2093.540      788.674        0.291        0.203       30.375       30.055        0.979      339.071       12.153      860.130
05/26/2013  07:00:00       70.498       71.445       38.524       49.835       29.038       38.019     2483.565      843.227     1445.448        0.816        0.239      100.371       33.473        0.111      338.923       11.903      860.123
05/26/2013  07:01:00       25.142       21.891       31.140       29.688       25.291       22.723      881.348      639.649      516.342        0.206        0.102       33.337       13.827        0.172      339.176       12.330      860.114
05/26/2013  07:02:00       -5.972        7.502       34.001       19.035       37.577       21.761      362.345     1412.041      473.538        0.175        0.112        9.589       15.793        2.713      339.334       12.597      860.117
05/26/2013  07:03:00        8.675      -53.830       -0.545       26.524       27.913       16.269      703.508      779.132      264.692        0.236        0.087       54.525       16.923        0.096      339.011       12.053      860.127
05/26/2013  07:04:00        6.689        9.629       36.710       20.496       38.509       20.013      420.096     1482.953      400.538        0.189        0.115       11.724       20.563        3.076      339.384       12.680      860.137
05/26/2013  07:05:00       11.482        4.419       42.843       24.480       36.352       20.448      599.278     1321.476      418.104        0.216        0.117       12.303       16.080        1.708      339.398       12.704      860.130
05/26/2013  07:06:00       49.871      -30.061       25.290       48.717       41.113       40.064     2373.308     1690.313     1605.113        0.485        0.283       58.231       39.325        0.456      339.251       12.456      860.133
05/26/2013  07:07:00       25.926      -14.281       35.478       32.807       67.816       45.036     1076.311     4599.074     2028.231        0.492        0.385       29.599       47.478        2.573      339.316       12.566      860.134
05/26/2013  07:08:00       24.273       94.988      105.013       57.594       60.079       41.910     3317.040     3609.473     1756.466        1.466        0.434       98.040       37.290        0.145      339.146       12.280      860.114
05/26/2013  07:09:00       20.256       21.015       69.939       37.962       72.222       41.091     1441.115     5216.039     1688.432        0.704        0.417       29.188       46.251        2.511      339.208       12.385      860.115
05/26/2013  07:10:00       10.779       53.506       84.938       35.590       61.475       39.238     1266.645     3779.128     1539.623        0.839        0.329       54.581       37.058        0.461      339.459       12.806      860.130
05/26/2013  07:11:00       19.424       45.054       89.862       37.781       51.510       31.912     1427.400     2653.279     1018.387        0.779        0.255       49.063       34.100        0.483      339.383       12.678      860.134
05/26/2013  07:12:00       28.497       81.866      100.392       53.732       45.826       34.050     2887.133     2099.997     1159.395        1.187        0.307       86.684       35.645        0.169      339.277       12.500      860.138
05/26/2013  07:13:00      127.223       84.180       61.983       63.132       50.604       42.896     3985.587     2560.805     1840.036        1.775        0.419      152.551       29.435        0.037      339.168       12.314      860.136
05/26/2013  07:14:00       56.715       77.500       83.844       41.125       34.581       28.662     1691.238     1195.867      821.530        0.998        0.185       96.036       20.231        0.044      339.216       12.396      860.149
05/26/2013  07:15:00       56.230       39.606       39.179       40.350       26.945       22.313     1628.104      726.015      497.885        0.456        0.143       68.778       15.339        0.050      339.335       12.597      860.166
05/26/2013  07:16:00       50.426       23.140       14.677       34.128       27.895       32.518     1164.701      778.157     1057.391        0.315        0.150       55.482       24.173        0.190      339.395       12.699      860.181
05/26/2013  07:17:00       72.062       35.781        5.726       36.556       28.987       26.507     1336.305      840.229      702.629        0.469        0.144       80.456       18.752        0.054      339.476       12.835      860.164
05/26/2013  07:18:00        6.372       41.121       53.332       42.790       36.395       22.198     1830.974     1324.578      492.757        0.411        0.182       41.612       19.623        0.222      339.709       13.228      860.148
05/26/2013  07:19:00       11.454       53.067       86.769       44.611       38.814       28.244     1990.151     1506.538      797.736        0.738        0.215       54.289       29.046        0.286      339.729       13.264      860.152
05/26/2013  07:20:00      -12.946       30.565       57.381       16.753       23.995       18.701      280.664      575.767      349.727        0.280        0.060       33.194       17.695        0.284      339.794       13.371      860.153
05/26/2013  07:21:00        3.353       20.371       25.311       25.566       21.995       26.008      653.598      483.790      676.410        0.144        0.091       20.645       21.519        1.086      339.825       13.424      860.150
05/26/2013  07:22:00      -19.964       25.134       29.140       27.957       26.828       20.353      781.568      719.751      414.224        0.190        0.096       32.098       13.289        0.171      339.782       13.352      860.138
05/26/2013  07:23:00       23.093       42.265       43.267       31.971       27.424       20.859     1022.164      752.056      435.116        0.320        0.110       48.162       13.604        0.080      339.781       13.349      860.123
05/26/2013  07:24:00       52.791       68.360       53.687       39.129       22.702       32.583     1531.057      515.374     1061.671        0.672        0.155       86.371       16.297        0.036      339.682       13.182      860.118
05/26/2013  07:25:00       74.065       37.741       19.482       31.780       35.062       32.453     1009.939     1229.364     1053.197        0.529        0.165       83.126       15.480        0.035      339.759       13.313      860.104
05/26/2013  07:26:00       23.459       12.866       23.643       35.328       33.654       20.146     1248.054     1132.601      405.868        0.203        0.139       26.756       19.709        0.543      340.227       14.102      860.099
05/26/2013  07:27:00       28.331      -25.234       28.932       40.182       66.932       41.192     1614.570     4479.899     1696.754        0.503        0.390       37.939       40.228        1.124      340.032       13.773      860.101
05/26/2013  07:28:00       31.771       31.992       68.669       61.218       82.839       69.107     3747.684     6862.287     4775.820        1.106        0.769       45.087       70.328        2.433      339.897       13.546      860.094
05/26/2013  07:29:00        5.157      -46.254       32.534       36.437       42.192       39.495     1327.647     1780.190     1559.819        0.395        0.233       46.541       28.932        0.386      340.042       13.791      860.110
05/26/2013  07:30:00       30.530       56.763       38.690       25.435       27.352       30.508      646.943      748.149      930.728        0.399        0.116       64.453       21.816        0.115      339.775       13.339      860.117
05/26/2013  07:31:00       30.215       14.327       23.778       33.396       43.930       31.503     1115.297     1929.847      992.417        0.286        0.202       33.440       17.341        0.269      339.785       13.355      860.126
05/26/2013  07:32:00       62.808      -54.147       18.932       36.181       52.997       34.197     1309.091     2808.732     1169.444        0.626        0.264       82.926       34.843        0.177      339.675       13.171      860.147
05/26/2013  07:33:00       36.522      -67.465        9.015       35.222       52.869       35.707     1240.558     2795.126     1274.994        0.564        0.266       76.716       39.254        0.262      339.798       13.379      860.154
05/26/2013  07:34:00        5.498       -3.639       38.430       22.791       51.833       27.622      519.447     2686.702      762.964        0.274        0.198        6.593       34.029       26.642      340.028       13.766      860.165
05/26/2013  07:35:00       49.204      -44.329       21.869       32.179       49.785       29.816     1035.458     2478.555      888.978        0.463        0.220       66.228       28.088        0.180      339.724       13.253      860.166
05/26/2013  07:36:00       -5.064      -14.725       22.511       39.569       31.572       21.261     1565.698      996.774      452.051        0.188        0.151       15.572       18.516        1.414      339.839       13.448      860.180
05/26/2013  07:37:00      -11.249        6.577       27.876       26.417       28.055       21.032      697.833      787.078      442.336        0.144        0.096       13.030       18.649        2.048      339.813       13.403      860.201
05/26/2013  07:38:00       19.615        4.995        5.267       27.025       28.646       26.225      730.337      820.588      687.757        0.134        0.112       20.241       18.271        0.815      339.577       13.006      860.201
05/26/2013  07:39:00       74.759       58.247      -14.545       35.580       34.979       25.215     1265.929     1223.550      635.785        0.616        0.156       94.772        9.058        0.009      339.349       12.621      860.196
05/26/2013  07:40:00      164.998       95.607       23.160       29.737       35.828       40.985      884.283     1283.668     1679.739        2.037        0.192      190.696       17.096        0.008      339.450       12.789      860.189
05/26/2013  07:41:00      101.923       83.789        6.815       36.796       25.386       32.247     1353.977      644.435     1039.854        1.025        0.152      131.943       20.532        0.024      339.545       12.951      860.186
05/26/2013  07:42:00       76.618       78.383       37.365       48.612       31.787       39.111     2363.093     1010.402     1529.659        0.916        0.245      109.609       37.326        0.116      339.782       13.351      860.192
05/26/2013  07:43:00        5.329       54.947       58.481       35.118       41.242       36.457     1233.266     1700.867     1329.131        0.536        0.213       55.205       26.288        0.227      340.059       13.819      860.206
05/26/2013  07:44:00       14.680       42.859       65.249       38.095       55.789       29.628     1451.247     3112.457      877.805        0.587        0.272       45.303       27.418        0.366      340.212       14.076      860.211
05/26/2013  07:45:00       55.693       48.930       25.847       30.698       17.980       23.356      942.352      323.264      545.507        0.399        0.091       74.134        5.033        0.005      339.599       13.041      860.225
05/26/2013  07:46:00       25.167       25.689        7.288       21.148       22.240       22.402      447.236      494.598      501.854        0.139        0.072       35.962       11.144        0.096      339.901       13.554      860.238
05/26/2013  07:47:00       25.660       26.085       14.164       17.784       22.481       18.674      316.258      505.414      348.731        0.135        0.059       36.590       14.018        0.147      340.067       13.832      860.240
05/26/2013  07:48:00       -1.616       40.699        3.315       17.451       36.916       24.540      304.555     1362.824      602.223        0.197        0.113       40.731       26.108        0.411      340.343       14.300      860.260
05/26/2013  07:49:00      -38.587       57.799       -4.228       26.811       25.735       23.177      718.820      662.283      537.170        0.338        0.096       69.495       16.169        0.054      339.890       13.534      860.275
05/26/2013  07:50:00      -93.560       44.924      -17.462       18.679       19.249       14.511      348.916      370.509      210.570        0.600        0.046      103.786        7.934        0.006      339.590       13.027      860.282
05/26/2013  07:51:00      -72.222       37.999       -1.655       39.250       29.953       26.520     1540.537      897.210      703.289        0.490        0.157       81.609       27.127        0.110      339.892       13.537      860.298
05/26/2013  07:52:00      -40.366       68.280       -7.175       42.004       40.645       30.715     1764.314     1652.007      943.397        0.535        0.218       79.319       27.350        0.119      340.156       13.981      860.301
05/26/2013  07:53:00        8.672       28.968       -5.555       25.183       21.977       21.846      634.188      482.983      477.263        0.127        0.080       30.238        8.057        0.071      340.198       14.053      860.290
05/26/2013  07:54:00       21.838        8.322       30.060       43.003       48.012       34.742     1849.285     2305.192     1207.006        0.340        0.268       23.370       32.272        1.907      340.654       14.825      860.295
05/26/2013  07:55:00        3.012       -5.742       36.007       25.660       70.345       37.515      658.455     4948.366     1407.356        0.418        0.351        6.484       18.660        8.281      340.326       14.271      860.293
05/26/2013  07:56:00       -3.972      -76.588        8.875       41.158       44.791       35.503     1693.952     2006.265     1260.462        0.546        0.248       76.690       25.673        0.112      340.123       13.927      860.305
05/26/2013  07:57:00     -116.484      -64.574       -8.026       63.436       95.756       27.031     4024.093     9169.286      730.684        1.586        0.696      133.185       26.716        0.040      339.908       13.561      860.288
05/26/2013  07:58:00     -149.749     -147.350       -0.947       70.385       57.635       42.095     4953.981     3321.768     1771.990        2.709        0.502      210.087       40.606        0.037      339.948       13.630      860.297
05/26/2013  07:59:00     -158.665     -112.950       -3.465       91.774       77.314       43.611     8422.493     5977.436     1901.912        2.712        0.815      194.763       38.060        0.038      339.912       13.567      860.287
05/26/2013  08:00:00     -213.981      -73.838       -6.837      102.491       85.712       51.892    10504.507     7346.577     2692.747        3.591        1.027      226.362       53.631        0.056      339.953       13.636      860.267
05/26/2013  08:01:00     -116.011       12.601       -0.329       73.576       53.789       43.479     5413.441     2893.210     1890.391        1.191        0.510      116.693       46.934        0.162      340.176       14.016      860.258
05/26/2013  08:02:00      -59.514       16.826        7.837       45.635       48.173       33.583     2082.511     2320.617     1127.848        0.471        0.277       61.847       29.658        0.230      340.239       14.122      860.240
05/26/2013  08:03:00     -173.869      -52.209       -2.888      105.537       72.150       41.795    11138.041     5205.643     1746.846        2.552        0.905      181.538       54.037        0.089      340.072       13.838      860.254
05/26/2013  08:04:00     -188.234      -22.791       -0.664      116.503       87.214       54.861    13572.847     7606.264     3009.770        3.007        1.209      189.609       59.724        0.099      339.972       13.670      860.245
05/26/2013  08:05:00     -184.257      -72.987        0.591      114.423       52.944       32.295    13092.510     2803.063     1042.994        2.811        0.847      198.186       34.793        0.031      339.889       13.532      860.264
05/26/2013  08:06:00      -49.247       24.240       11.763       37.435       32.310       26.266     1401.367     1043.905      689.928        0.314        0.157       54.890       22.705        0.171      340.227       14.102      860.278
05/26/2013  08:07:00     -104.228      -17.146       -0.181       49.873       58.136       30.583     2487.339     3379.846      935.316        0.898        0.340      105.629       25.328        0.057      339.965       13.659      860.283
05/26/2013  08:08:00     -180.379       87.493       -7.329      106.416       74.148       54.660    11324.346     5497.858     2987.770        3.002        0.990      200.478       47.957        0.057      340.002       13.719      860.277
05/26/2013  08:09:00     -275.735       -1.111      -11.760      144.914       97.941       55.347    21000.033     9592.524     3063.294        5.491        1.683      275.737       48.913        0.031      339.953       13.637      860.269
05/26/2013  08:10:00      -62.249      -67.397       28.038      144.036       63.495       60.174    20746.240     4031.601     3620.955        1.880        1.420       91.746       78.461        0.731      340.254       14.147      860.290
05/26/2013  08:11:00     -165.704     -188.839        1.804      130.732      110.550       54.689    17090.865    12221.261     2990.921        4.771        1.615      251.233       50.810        0.041      340.019       13.748      860.309
05/26/2013  08:12:00     -169.722     -198.275       -3.592       70.746       84.913       48.070     5004.949     7210.275     2310.737        4.133        0.726      260.995       50.864        0.038      339.913       13.567      860.311
05/26/2013  08:13:00     -176.660     -119.982      -13.730       55.953       57.070       38.223     3130.743     3257.016     1460.999        2.682        0.392      213.552       25.852        0.015      339.856       13.474      860.302
05/26/2013  08:14:00      -23.860     -115.950        4.431       65.666       42.483       25.950     4312.040     1804.793      673.419        1.041        0.340      118.379       22.599        0.036      339.886       13.528      860.293
05/26/2013  08:15:00        6.125      -16.826       37.587       36.740       51.751       46.646     1349.833     2678.120     2175.873        0.397        0.310       17.906       36.318        4.114      340.462       14.501      860.252
05/26/2013  08:16:00      -18.837       24.054       14.243       45.537       26.705       23.359     2073.633      713.140      545.620        0.223        0.167       30.552       26.806        0.770      340.169       14.006      860.239
05/26/2013  08:17:00      -37.024        0.440      -13.594       31.920       15.984       21.319     1018.881      255.503      454.520        0.164        0.086       37.026       12.978        0.123      340.187       14.034      860.226
05/26/2013  08:18:00      -37.262      -65.928        2.018       42.947       33.572       22.297     1844.424     1127.099      497.146        0.460        0.173       75.729       21.548        0.081      340.099       13.887      860.222
05/26/2013  08:19:00      -66.223      -88.697        6.427       70.372       47.259       28.990     4952.244     2233.405      840.395        1.016        0.401      110.691       32.961        0.089      340.169       14.003      860.221
05/26/2013  08:20:00     -126.663     -101.600       -9.228       39.639       51.796       30.150     1571.247     2682.839      909.012        1.581        0.258      162.377       22.252        0.019      340.163       13.993      860.217
05/26/2013  08:21:00      -60.648       -7.074        8.784       30.205       27.407       23.712      912.320      751.116      562.240        0.302        0.111       61.059       16.987        0.077      340.425       14.436      860.206
05/26/2013  08:22:00       -8.103       -8.246        3.174       25.244       44.983       19.916      637.235     2023.444      396.644        0.160        0.153       11.560       19.443        2.829      340.710       14.918      860.206
05/26/2013  08:23:00      -29.759      -35.649       23.641       65.159       34.771       34.395     4245.713     1209.046     1182.987        0.468        0.332       46.438       27.891        0.361      340.576       14.692      860.207
05/26/2013  08:24:00      -79.879      -39.045       22.327       98.398       46.284       41.030     9682.081     2142.225     1683.435        1.095        0.675       88.911       52.520        0.349      340.498       14.562      860.204
05/26/2013  08:25:00     -122.541      -70.561       -5.235       59.038       54.591       26.222     3485.438     2980.222      687.606        1.359        0.358      141.404       22.317        0.025      340.169       14.003      860.202
05/26/2013  08:26:00      -46.652      -95.963       10.924       46.249       38.392       25.646     2139.000     1473.958      657.693        0.789        0.214      106.702       19.402        0.033      340.189       14.038      860.203
05/26/2013  08:27:00      -52.552      -27.236        4.125       31.515       23.569       18.288      993.211      555.517      334.437        0.270        0.094       59.190       16.277        0.076      340.017       13.747      860.207
05/26/2013  08:28:00       15.610       14.357       40.113       38.599       52.889       36.480     1489.886     2797.244     1330.821        0.384        0.281       21.208       26.149        1.520      340.752       14.990      860.191
05/26/2013  08:29:00      -10.068      -24.385       22.935       31.675       53.941       35.797     1003.327     2909.654     1281.424        0.321        0.260       26.382       26.077        0.977      340.733       14.958      860.198
05/26/2013  08:30:00       26.664      -44.467       37.310       53.435       74.099       50.747     2855.292     5490.734     2575.229        0.750        0.546       51.849       43.632        0.708      340.848       15.152      860.181
05/26/2013  08:31:00       22.991       52.455       95.509       37.269       59.446       35.900     1388.955     3533.783     1288.807        0.931        0.311       57.273       35.634        0.387      340.727       14.947      860.188
05/26/2013  08:32:00       30.046       49.617       80.197       51.455       72.669       41.368     2647.584     5280.727     1711.293        0.972        0.482       58.005       43.398        0.560      340.557       14.660      860.199
05/26/2013  08:33:00       75.972      108.870      110.970       78.401       53.846       42.504     6146.651     2899.369     1806.614        2.039        0.543      132.757       38.139        0.083      340.351       14.311      860.192
05/26/2013  08:34:00       80.876       64.723       39.522       63.890       53.283       59.721     4081.871     2839.106     3566.651        1.139        0.524      103.586       43.123        0.173      340.434       14.450      860.206
05/26/2013  08:35:00       21.625       63.142       78.582       41.368       35.326       28.392     1711.317     1247.955      806.108        0.720        0.188       66.742       23.527        0.124      340.526       14.607      860.198
05/26/2013  08:36:00      -24.832       -5.484       37.372       28.877       36.802       34.300      833.901     1354.357     1176.503        0.270        0.168       25.430       31.817        1.565      340.835       15.129      860.204
05/26/2013  08:37:00       26.947      -57.004        4.801       44.135       41.316       33.795     1947.916     1707.042     1142.078        0.440        0.240       63.052       26.168        0.172      340.722       14.939      860.211
05/26/2013  08:38:00        5.543       26.618       48.402       24.627       45.163       31.817      606.489     2039.663     1012.329        0.337        0.183       27.189       28.045        1.064      340.965       15.351      860.195
05/26/2013  08:39:00       27.472       34.994      114.781       71.135      114.208       79.107     5060.181    13043.370     6257.916        1.975        1.218       44.489       81.530        3.358      341.009       15.423      860.177
05/26/2013  08:40:00       80.697     -122.323      -13.064       87.029      115.823       66.603     7574.118    13415.041     4435.933        2.353        1.271      146.543       68.059        0.216      340.646       14.808      860.187
05/26/2013  08:41:00       23.402     -165.086       -7.476       83.429       73.084       49.094     6960.365     5341.343     2410.212        2.128        0.736      166.737       28.383        0.029      340.479       14.525      860.217
05/26/2013  08:42:00       -0.892      -95.281       -3.320       76.159       65.989       33.610     5800.237     4354.508     1129.657        1.019        0.564       95.285       29.475        0.096      340.623       14.773      860.224
05/26/2013  08:43:00      -53.832      -45.698       18.880       72.669       55.969       41.081     5280.742     3132.510     1687.641        0.772        0.505       70.613       43.229        0.375      340.548       14.646      860.222
05/26/2013  08:44:00       57.057     -100.669       15.403       58.939      107.099       46.718     3473.784    11470.299     2182.593        1.537        0.856      115.714       61.013        0.278      340.534       14.619      860.239
05/26/2013  08:45:00       66.745      -73.318        7.139       84.525      118.909       83.884     7144.491    14139.311     7036.566        1.910        1.416       99.149       80.545        0.660      340.933       15.293      860.199
05/26/2013  08:46:00       69.501      -64.129       16.616       72.065       90.426       66.571     5193.416     8176.938     4431.667        1.351        0.890       94.567       65.998        0.487      340.897       15.236      860.220
05/26/2013  08:47:00       68.422     -143.024       -5.485       46.478       88.474       51.867     2160.178     7827.736     2690.170        1.892        0.634      158.548       48.538        0.094      340.471       14.512      860.221
05/26/2013  08:48:00       61.871      -23.479       17.230       36.458       89.328       36.031     1329.214     7979.521     1298.237        0.764        0.530       66.176       40.421        0.373      340.551       14.650      860.226
05/26/2013  08:49:00       -8.126       -8.546       17.016       34.739       40.874       26.821     1206.779     1670.702      719.367        0.201        0.180       11.792       30.013        6.478      340.764       15.010      860.216
05/26/2013  08:50:00       59.548       81.865       71.290       47.511       53.247       39.238     2257.266     2835.214     1539.587        1.098        0.332      101.232       23.807        0.055      340.820       15.104      860.211
05/26/2013  08:51:00       42.221       58.644       78.110       61.187       44.071       30.256     3743.811     1942.247      915.418        0.896        0.330       72.262       23.632        0.107      340.830       15.123      860.212
05/26/2013  08:52:00       17.372        5.349       38.976       42.740       71.673       45.667     1826.729     5137.019     2085.492        0.545        0.452       18.177       39.498        4.722      341.281       15.885      860.219
05/26/2013  08:53:00        9.932      -34.857       30.898       64.917       86.619       59.022     4214.267     7502.836     3483.545        0.873        0.760       36.245       51.224        1.997      341.151       15.666      860.208
05/26/2013  08:54:00       49.847     -102.081        8.740       75.946       70.145       67.499     5767.766     4920.256     4556.174        1.411        0.762      113.601       48.652        0.183      340.921       15.275      860.215
05/26/2013  08:55:00       27.097       40.808      115.046       58.264      111.555       75.843     3394.698    12444.411     5752.201        1.861        1.080       48.985       78.845        2.591      341.231       15.799      860.212
05/26/2013  08:56:00       21.362       27.402      108.845       59.545      130.404       71.887     3545.665    17005.248     5167.748        1.938        1.286       34.745       88.958        6.555      340.840       15.137      860.225
05/26/2013  08:57:00       52.035     -113.156       17.020       44.410       95.591       65.804     1972.256     9137.686     4330.211        1.562        0.772      124.547       73.007        0.344      340.614       14.757      860.251
05/26/2013  08:58:00       33.521       -5.706       50.459       48.991       86.539       54.254     2400.147     7488.966     2943.487        0.827        0.642       34.003       38.984        1.314      340.995       15.401      860.238
05/26/2013  08:59:00       66.613      -22.424       43.244       64.420       84.917       62.127     4149.992     7210.911     3859.820        1.101        0.761       70.286       55.881        0.632      340.902       15.243      860.243
05/26/2013  09:00:00      -33.235      -36.165       46.384       43.784       65.794       50.663     1917.028     4328.911     2566.701        0.669        0.441       49.117       47.567        0.938      340.950       15.324      860.244
05/26/2013  09:01:00      -34.676      -58.669      -12.079       50.674       37.321       24.229     2567.895     1392.860      587.054        0.467        0.227       68.151       20.612        0.091      340.808       15.085      860.250
05/26/2013  09:02:00       21.379      -26.224       29.888       43.920       54.091       45.468     1928.962     2925.821     2067.367        0.448        0.346       33.834       40.986        1.467      341.277       15.878      860.232
05/26/2013  09:03:00       72.206       41.163       45.380       56.572       47.160       37.131     3200.375     2224.083     1378.729        0.788        0.340       83.115       34.858        0.176      341.129       15.629      860.221
05/26/2013  09:04:00      166.337       89.549       29.314       64.897       52.022       50.185     4211.604     2706.339     2518.582        2.299        0.472      188.910       16.354        0.007      340.760       15.001      860.214
05/26/2013  09:05:00      121.162       44.368       43.923       70.478       62.481       56.214     4967.136     3903.908     3160.041        1.530        0.602      129.030       33.059        0.066      341.136       15.638      860.189
05/26/2013  09:06:00      130.332       79.277       66.838       79.507       52.923       48.055     6321.406     2800.888     2309.287        1.958        0.572      152.550       46.101        0.091      341.203       15.751      860.186
05/26/2013  09:07:00       99.819       98.165       81.078       58.538       57.115       55.866     3426.685     3262.086     3121.046        1.799        0.490      140.000       36.828        0.069      341.157       15.675      860.173
05/26/2013  09:08:00       28.477       10.806       50.670       56.857       77.189       34.362     3232.677     5958.098     1180.764        0.693        0.519       30.458       27.662        0.825      341.488       16.235      860.163
05/26/2013  09:09:00      107.885      -93.214       50.884       92.260      193.623       89.610     8511.820    37489.985     8029.894        3.847        2.702      142.577      120.878        0.719      341.001       15.409      860.129
05/26/2013  09:10:00       64.680      -18.864       69.655       91.621      163.329       94.025     8394.331    26676.493     8840.739        2.664        2.196       67.375      120.293        3.188      341.041       15.478      860.132
05/26/2013  09:11:00       73.944     -116.988      -13.253       79.916      139.066       79.435     6386.618    19339.491     6309.910        2.568        1.602      138.398       78.863        0.325      341.018       15.437      860.135
05/26/2013  09:12:00       81.608       10.430       73.110      100.611      165.615       95.138    10122.571    27428.485     9051.185        2.935        2.330       82.272      109.769        1.780      340.934       15.297      860.148
05/26/2013  09:13:00       35.564       45.715      132.493       74.063       88.272       74.353     5485.268     7792.015     5528.415        1.985        0.940       57.919       61.804        1.139      341.189       15.728      860.173
05/26/2013  09:14:00       97.559     -108.210       -3.426       65.147       81.872       46.007     4244.110     6703.013     2116.676        1.715        0.653      145.695       45.119        0.096      340.871       15.191      860.208
05/26/2013  09:15:00      -33.531       -2.138       21.037       40.399       29.572       27.501     1632.060      874.523      756.280        0.242        0.163       33.599       23.875        0.505      341.046       15.487      860.180
05/26/2013  09:16:00       86.239       64.420       61.629       83.832       47.428       50.413     7027.764     2249.423     2541.506        1.360        0.591      107.643       23.846        0.049      341.209       15.762      860.157
05/26/2013  09:17:00      198.780      114.555       31.934       99.263       67.724       66.025     9853.172     4586.487     4359.311        3.622        0.940      229.426       56.367        0.060      340.669       14.847      860.118
05/26/2013  09:18:00      138.101       98.078       34.095       76.953       58.600       53.689     5921.832     3433.908     2882.515        2.104        0.612      169.385       14.044        0.007      340.667       14.844      860.100
05/26/2013  09:19:00      189.376      124.848       12.990       64.466       59.387       54.925     4155.855     3526.859     3016.727        3.116        0.535      226.827       41.060        0.033      340.655       14.821      860.068
05/26/2013  09:20:00      120.065      123.202       97.999      115.501      101.794       94.088    13340.402    10361.978     8852.557        3.587        1.628      172.030       83.801        0.237      340.933       15.293      860.030
05/26/2013  09:21:00      161.410       87.489       73.693       99.333       92.961       69.480     9867.096     8641.744     4827.474        3.123        1.167      183.596       52.786        0.083      340.943       15.311      860.011
05/26/2013  09:22:00       87.495      -21.930       74.877      100.480       96.984       62.447    10096.274     9405.899     3899.580        1.857        1.170       90.201       49.337        0.299      341.281       15.883      860.015
05/26/2013  09:23:00      129.741      -51.034       27.848      111.083       94.425       64.874    12339.440     8916.041     4208.688        2.283        1.273      139.418       58.434        0.176      341.218       15.777      860.043
05/26/2013  09:24:00       75.749     -100.758       -1.359       89.989      107.462       67.522     8098.100    11548.142     4559.159        2.004        1.210      126.056       67.997        0.291      341.141       15.646      860.047
05/26/2013  09:25:00       66.066     -102.457       28.243       67.692       95.049       77.625     4582.244     9034.319     6025.622        1.765        0.982      121.911       63.140        0.268      341.161       15.681      860.049
05/26/2013  09:26:00       73.998        7.474      103.147       70.777       87.207       52.561     5009.344     7604.979     2762.709        1.577        0.769       74.374       43.718        0.346      341.382       16.055      860.073
05/26/2013  09:27:00       83.171       55.601      104.658      100.495      135.568       78.039    10099.301    18378.759     6090.131        2.776        1.728      100.044       78.109        0.610      341.146       15.654      860.087
05/26/2013  09:28:00      205.037      104.691       60.336       85.960       88.902       64.060     7389.199     7903.486     4103.707        3.802        0.970      230.218       49.929        0.047      340.784       15.042      860.130
05/26/2013  09:29:00      134.389       87.664       41.567       84.405       57.004       62.066     7124.204     3249.405     3852.200        2.085        0.711      160.453       18.475        0.013      341.015       15.433      860.115
05/26/2013  09:30:00      152.318       93.249       30.360       52.098       57.507       42.784     2714.183     3307.083     1830.441        2.033        0.393      178.595       31.628        0.031      340.826       15.113      860.111
05/26/2013  09:31:00      157.124       76.526       64.414       83.129       71.374       53.451     6910.488     5094.292     2857.028        2.478        0.743      174.769       30.968        0.031      341.276       15.874      860.096
05/26/2013  09:32:00      117.268      105.863       79.246       76.942       68.080       58.355     5920.022     4634.926     3405.248        2.260        0.698      157.983       43.483        0.076      340.994       15.398      860.075
05/26/2013  09:33:00      106.379       97.824       23.961       63.291       45.702       53.989     4005.731     2088.695     2914.783        1.523        0.450      144.520       34.259        0.056      341.079       15.543      860.063
05/26/2013  09:34:00      -16.284       20.326        5.931       19.188       44.328       29.780      368.167     1964.997      886.870        0.197        0.161       26.045       23.048        0.783      341.461       16.192      860.028
05/26/2013  09:35:00       33.097      -27.497       44.977       43.123       93.116       40.806     1859.621     8670.520     1665.123        0.803        0.610       43.029       45.811        1.133      341.845       16.841      860.024
05/26/2013  09:36:00      137.527     -146.299      -38.626       73.921       89.266       50.722     5464.265     7968.377     2572.689        2.890        0.800      200.792       45.947        0.052      341.366       16.025      860.014
05/26/2013  09:37:00       75.189      -57.296       39.981       67.217       82.660       54.011     4518.181     6832.745     2917.218        1.240        0.713       94.532       60.444        0.409      341.403       16.091      860.031
05/26/2013  09:38:00       55.044       75.272      109.565       65.093      115.625       78.170     4237.120    13369.049     6110.584        2.220        1.186       93.251       74.443        0.637      341.245       15.822      860.014
05/26/2013  09:39:00       69.222      -40.538       42.252       57.043       76.832       43.770     3253.934     5903.088     1915.804        0.964        0.554       80.219       52.594        0.430      341.493       16.246      860.028
05/26/2013  09:40:00       40.714      -42.329       50.667       76.169      116.478       70.795     5801.710    13567.139     5011.878        1.519        1.219       58.731       86.046        2.146      341.740       16.663      860.031
05/26/2013  09:41:00       41.695      -83.585       12.971       90.554       95.753       64.357     8199.970     9168.625     4141.840        1.520        1.076       93.407       67.225        0.518      341.353       16.007      860.037
05/26/2013  09:42:00        2.882      -67.617       20.146       73.699       87.947       46.995     5431.591     7734.741     2208.560        1.018        0.769       67.678       44.433        0.431      341.610       16.443      860.036
05/26/2013  09:43:00      -84.052     -110.793       -2.297      117.481       97.829       47.796    13801.769     9570.490     2284.422        2.250        1.283      139.068       51.522        0.137      341.364       16.023      860.019
05/26/2013  09:44:00       56.122     -117.754       12.565       93.374      107.013       54.002     8718.649    11451.801     2916.197        2.013        1.154      130.445       64.491        0.244      341.414       16.108      860.022
05/26/2013  09:45:00       46.234     -182.414      -24.025      108.238      113.299       63.850    11715.571    12836.755     4076.818        3.230        1.431      188.182       70.079        0.139      341.176       15.706      860.007
05/26/2013  09:46:00       67.008     -170.270      -23.744       80.281       94.181       59.458     6445.030     8870.138     3535.287        2.644        0.943      182.980       47.094        0.066      341.163       15.683      859.995
05/26/2013  09:47:00       66.234     -166.106      -15.043       96.764       85.699       50.502     9363.349     7344.322     2550.501        2.573        0.963      178.825       47.670        0.071      340.950       15.322      859.992
05/26/2013  09:48:00     -118.074      -75.340       -6.052       63.326       74.425       40.868     4010.204     5539.045     1670.163        1.543        0.561      140.063       21.816        0.024      340.966       15.352      859.989
05/26/2013  09:49:00     -118.800      -47.299        8.813       73.538       56.046       37.232     5407.892     3141.162     1386.238        1.318        0.497      127.870       36.510        0.082      341.032       15.463      859.970
05/26/2013  09:50:00     -161.980     -145.447       -7.994       67.078       56.283       29.889     4499.514     3167.760      893.360        2.801        0.428      217.698       21.266        0.010      340.918       15.266      859.986
05/26/2013  09:51:00     -174.059      -66.324      -21.722       52.667       66.194       29.982     2773.795     4381.640      898.895        2.161        0.403      186.267       25.416        0.019      340.666       14.843      859.984
05/26/2013  09:52:00     -109.386       12.713      -22.040       51.278       46.602       23.414     2629.408     2171.775      548.216        0.898        0.267      110.122       29.995        0.074      340.685       14.877      859.980
05/26/2013  09:53:00      -61.045       -9.252       -7.720       28.746       30.101       16.351      826.309      906.063      267.351        0.294        0.100       61.742       12.007        0.038      340.865       15.180      859.977
05/26/2013  09:54:00      -44.830      -29.761       -4.944       27.319       33.070       15.306      746.323     1093.613      234.279        0.250        0.104       53.810       12.770        0.056      341.044       15.484      859.995
05/26/2013  09:55:00       -8.499      -51.456       -3.204       30.121       30.298       29.200      907.294      917.997      852.618        0.270        0.134       52.153       21.015        0.162      341.228       15.795      859.994
05/26/2013  09:56:00        8.622       50.672       76.329       46.508       94.917       60.104     2162.972     9009.273     3612.521        1.162        0.739       51.401       64.703        1.585      341.896       16.927      859.977
05/26/2013  09:57:00       82.719       30.268       86.941       82.213      133.731       71.326     6758.938    17884.011     5087.430        2.252        1.487       88.083       87.712        0.992      341.565       16.365      859.944
05/26/2013  09:58:00       65.662      -51.033       41.336      109.586      133.043       81.282    12009.193    17700.331     6606.831        2.246        1.816       83.161       90.799        1.192      341.688       16.574      859.921
05/26/2013  09:59:00       33.521      -64.130       58.744       73.359      135.181       95.781     5381.476    18273.877     9173.937        2.075        1.641       72.363       95.645        1.747      341.603       16.429      859.941
05/26/2013  10:00:00       41.796      -33.839       23.806       53.069       75.957       51.760     2816.277     5769.441     2679.076        0.736        0.563       53.777       52.968        0.970      341.724       16.636      859.964
05/26/2013  10:01:00       18.583        2.169       22.204       49.221       24.713       29.248     2422.753      610.737      855.445        0.237        0.194       18.709       17.895        0.915      341.764       16.705      859.953
05/26/2013  10:02:00       80.891       81.354       54.927       76.882       51.142       41.480     5910.852     2615.524     1720.581        1.321        0.512      114.725       43.349        0.143      341.350       16.002      859.908
05/26/2013  10:03:00       61.846       72.834       38.701       50.675       35.627       37.404     2567.906     1269.256     1399.077        0.793        0.262       95.549       16.600        0.030      341.175       15.705      859.889
05/26/2013  10:04:00      -18.432      -16.993       21.470       28.871       36.935       22.593      833.525     1364.220      510.439        0.190        0.135       25.070        9.450        0.142      341.399       16.084      859.860
05/26/2013  10:05:00       35.077       52.330       50.583       51.286       50.963       43.020     2630.287     2597.241     1850.756        0.680        0.354       62.998       43.870        0.485      341.635       16.485      859.852
05/26/2013  10:06:00      141.658      120.499       88.557      113.434       61.194       68.699    12867.378     3744.682     4719.577        3.188        1.067      185.976       61.961        0.111      341.105       15.584      859.834
05/26/2013  10:07:00       78.861      -64.878       21.489       71.137      129.930       46.225     5060.442    16881.748     2136.782        1.748        1.204      102.119       65.112        0.407      341.330       15.966      859.838
05/26/2013  10:08:00      -55.264     -111.974       -0.419       60.951       62.353       31.750     3715.062     3887.956     1008.045        1.210        0.431      124.869       27.979        0.050      341.058       15.507      859.832
05/26/2013  10:09:00       14.914      -91.174       30.233       69.463       70.491       50.813     4825.162     4968.930     2581.985        1.091        0.619       92.386       33.784        0.134      341.760       16.697      859.835
05/26/2013  10:10:00       84.246       61.629       41.987       61.206       71.583       40.655     3746.221     5124.125     1652.811        1.159        0.526      104.381       30.922        0.088      341.447       16.167      859.835
05/26/2013  10:11:00       -6.874      -48.906       14.091       44.862       39.992       28.767     2012.639     1599.327      827.568        0.354        0.222       49.387       16.186        0.107      341.582       16.394      859.834
05/26/2013  10:12:00       72.141     -154.753        1.795       66.905      150.191       59.752     4476.251    22557.458     3570.346        2.987        1.530      170.742       76.070        0.198      341.596       16.417      859.807
05/26/2013  10:13:00       83.944      -93.236       11.772       87.142       99.808       74.960     7593.809     9961.691     5619.059        1.952        1.159      125.458       72.630        0.335      341.649       16.505      859.799
05/26/2013  10:14:00       33.387      -45.370       69.667       74.139      101.130       70.596     5496.590    10227.252     4983.738        1.436        1.035       56.331       65.122        1.337      342.182       17.414      859.776
05/26/2013  10:15:00       66.346      -67.898       15.946       92.529      109.172       76.213     8561.532    11918.468     5808.443        1.777        1.314       94.931       67.208        0.501      341.916       16.962      859.773
05/26/2013  10:16:00       12.614      -14.717       24.773       48.004       58.698       50.908     2304.401     3445.447     2591.652        0.466        0.417       19.383       45.771        5.576      341.811       16.784      859.783
05/26/2013  10:17:00      -21.852      -14.444        7.247       24.666       29.458       20.505      608.411      867.751      420.468        0.132        0.095       26.194       14.436        0.304      341.573       16.380      859.772
05/26/2013  10:18:00      -14.143      -21.654        9.282       28.828       40.007       30.772      831.053     1600.528      946.928        0.207        0.169       25.863       28.939        1.252      341.880       16.901      859.758
05/26/2013  10:19:00       37.820      -53.327       34.153       50.812       72.976       45.709     2581.872     5325.545     2089.278        0.772        0.500       65.377       33.029        0.255      342.304       17.621      859.741
05/26/2013  10:20:00       81.498     -123.312       -9.417       88.289       99.308       57.351     7794.975     9862.101     3289.090        2.144        1.047      147.810       60.138        0.166      341.620       16.457      859.734
05/26/2013  10:21:00       30.299      -50.423       24.099       36.851       63.793       47.034     1357.995     4069.510     2212.157        0.584        0.382       58.826       43.152        0.538      341.595       16.418      859.729
05/26/2013  10:22:00       10.349       28.318       38.156       32.929       55.200       55.478     1084.294     3047.064     3077.767        0.479        0.360       30.150       46.575        2.386      341.808       16.778      859.739
05/26/2013  10:23:00       23.042       47.661       50.399       49.265       45.023       33.884     2427.031     2027.086     1148.145        0.547        0.280       52.939       22.544        0.181      341.883       16.906      859.749
05/26/2013  10:24:00       61.416       87.409       81.536       55.089       68.599       53.453     3034.819     4705.801     2857.227        1.433        0.530      106.828       34.305        0.103      341.407       16.097      859.747
05/26/2013  10:25:00      114.046       74.123       48.478       92.564       57.465       50.700     8568.093     3302.219     2570.537        1.764        0.722      136.017       47.481        0.122      341.763       16.699      859.710
05/26/2013  10:26:00      223.355      151.402       62.983       73.023       62.521       74.770     5332.307     3908.880     5590.553        4.580        0.742      269.834       41.130        0.023      341.525       16.294      859.677
05/26/2013  10:27:00      150.841      150.301       94.771      169.964      101.730      103.500    28887.845    10348.989    10712.329        5.213        2.497      212.940      110.252        0.268      341.613       16.445      859.595
05/26/2013  10:28:00      116.597      171.772      169.145      114.571       95.322       74.500    13126.401     9086.264     5550.212        4.973        1.388      207.607       56.883        0.075      341.916       16.959      859.573
05/26/2013  10:29:00      202.766      141.585      109.149      115.359       80.730       74.343    13307.685     6517.380     5526.931        4.921        1.268      247.306       47.576        0.037      341.648       16.503      859.553
05/26/2013  10:30:00       78.981        6.938       83.856       78.612      101.658       58.475     6179.861    10334.373     3419.323        1.662        0.997       79.285       54.014        0.464      342.041       17.173      859.561
05/26/2013  10:31:00       87.311       -7.726       91.834      103.354      133.532       77.775    10681.946    17830.708     6048.875        2.533        1.728       87.652       82.276        0.881      342.203       17.446      859.580
05/26/2013  10:32:00      210.204     -316.873      -59.010       91.044       88.966       48.057     8289.086     7914.932     2309.437        8.329        0.926      380.255       36.562        0.009      341.582       16.391      859.610
05/26/2013  10:33:00      120.810     -183.552       -6.198       79.787      108.816       61.192     6365.963    11840.988     3744.461        3.513        1.098      219.742       73.421        0.112      341.813       16.784      859.630
05/26/2013  10:34:00       59.320      -93.287       -4.660       62.611       79.753       36.078     3920.157     6360.477     1301.649        1.191        0.579      110.550       21.753        0.039      342.055       17.197      859.677
05/26/2013  10:35:00       21.673     -118.865      -14.356       81.418       82.097       43.511     6628.852     6739.990     1893.247        1.503        0.763      120.825       39.785        0.108      342.017       17.130      859.696
05/26/2013  10:36:00       78.761      -79.881       14.062       79.576      143.040       65.301     6332.342    20460.443     4264.219        2.191        1.553      112.180       80.667        0.517      342.067       17.216      859.676
05/26/2013  10:37:00       20.514      -47.461       10.758       40.404       54.770       32.620     1632.453     2999.755     1064.071        0.424        0.285       51.704       27.335        0.279      341.565       16.366      859.672
05/26/2013  10:38:00       -4.873       19.569       30.295       38.552       21.753       29.928     1486.250      473.198      895.708        0.209        0.143       20.167       28.557        2.005      342.369       17.730      859.655
05/26/2013  10:39:00       12.042       -1.662       29.325       23.967       15.091       10.430      574.437      227.723      108.792        0.096        0.046       12.156        4.952        0.166      342.605       18.133      859.632
05/26/2013  10:40:00      -68.719      -17.531       -8.155      100.991       28.883       24.657    10199.267      834.242      607.976        0.837        0.582       70.919       35.636        0.252      341.706       16.604      859.640
05/26/2013  10:41:00      -69.532      -40.194        9.025       96.246       66.000       47.185     9263.321     4356.032     2226.378        1.119        0.792       80.313       57.767        0.517      341.926       16.978      859.627
05/26/2013  10:42:00      -66.312        9.646        7.193      124.170      113.500       48.749    15418.227    12882.150     2376.486        1.760        1.534       67.010       34.867        0.271      342.038       17.168      859.556
05/26/2013  10:43:00       98.623      158.056       11.877      121.540       98.491       68.181    14771.983     9700.496     4648.582        3.198        1.456      186.301       55.580        0.089      342.448       17.863      859.477
05/26/2013  10:44:00      146.584       57.672       87.782      174.240      249.058      123.213    30359.744    62029.718    15181.524        7.003        5.379      157.522      141.262        0.804      342.659       18.221      859.328
05/26/2013  10:45:00      -73.554     -135.079       -1.845      145.075       79.783       70.587    21046.818     6365.330     4982.551        2.802        1.620      153.807       49.050        0.102      342.444       17.856      859.548
05/26/2013  10:46:00     -184.181     -137.825       -0.594       98.203       86.823       54.522     9643.820     7538.163     2972.640        3.653        1.008      230.040       44.131        0.037      342.181       17.409      859.650
05/26/2013  10:47:00     -241.852     -120.426        8.829      183.399      119.095       72.208    33635.355    14183.558     5214.016        6.304        2.652      270.176       86.363        0.102      342.085       17.246      859.628
05/26/2013  10:48:00     -274.833      -52.294      -12.630      114.830      112.332       58.114    13185.900    12618.493     3377.281        5.380        1.459      279.764       54.774        0.038      341.879       16.895      859.615
05/26/2013  10:49:00      -57.226        7.686       -5.181       92.037      130.705       42.159     8470.764    17083.894     1777.422        1.534        1.367       57.740       35.103        0.370      342.104       17.281      859.585
05/26/2013  10:50:00      -68.552      -82.122        8.209      108.821       53.893       32.546    11842.102     2904.503     1059.248        1.366        0.790      106.973       42.411        0.157      341.873       16.888      859.537
05/26/2013  10:51:00      -68.436       -3.251       -3.386       76.239       68.517       30.698     5812.441     4694.568      942.361        0.808        0.572       68.513       41.821        0.373      341.786       16.739      859.499
05/26/2013  10:52:00     -200.868      -43.782       -5.816      148.023      103.963       54.339    21910.850    10808.404     2952.720        3.898        1.784      205.584       61.020        0.088      342.181       17.410      859.473
05/26/2013  10:53:00     -274.806       15.703      -14.076      152.224      126.887       70.248    23172.240    16100.392     4934.813        6.008        2.210      275.255       71.300        0.067      342.327       17.656      859.404
05/26/2013  10:54:00     -225.551       23.034      -16.914      153.135      112.358       63.333    23450.204    12624.283     4011.053        4.588        2.004      226.725       77.059        0.116      342.495       17.942      859.353
05/26/2013  10:55:00       52.750      -48.020       54.229       80.615      175.110       73.384     6498.760    30663.578     5385.174        2.528        2.127       71.334       93.318        1.711      342.977       18.764      859.245
05/26/2013  10:56:00      115.933     -245.177       -0.406      150.143      174.150       89.426    22542.993    30328.262     7996.965        6.720        3.043      271.205       97.495        0.129      342.522       17.989      859.401
05/26/2013  10:57:00       20.619     -306.463      -16.754      108.827      139.188       65.625    11843.320    19373.231     4306.624        6.507        1.776      307.156       48.867        0.025      342.393       17.769      859.547
05/26/2013  10:58:00     -111.143     -131.165       28.714      204.344      106.410       74.393    41756.572    11323.126     5534.270        4.449        2.931      171.922       80.756        0.221      342.450       17.865      859.562
05/26/2013  10:59:00     -196.942      -72.830       28.890      122.770      100.237       55.186    15072.369    10047.416     3045.456        3.654        1.408      209.977       63.896        0.093      342.301       17.612      859.593
05/26/2013  11:00:00      -63.500      -33.261       13.948       87.230       46.128       44.808     7609.033     2127.773     2007.777        0.854        0.587       71.683       38.484        0.288      342.546       18.030      859.614
05/26/2013  11:01:00     -237.536      -21.836       -9.234       97.645       77.163       36.442     9534.466     5954.083     1328.022        3.690        0.841      238.537       30.051        0.016      342.365       17.721      859.632
05/26/2013  11:02:00      -85.244      -42.134        4.434      141.032      120.439       63.458    19890.162    14505.658     4026.964        2.374        1.921       95.089       39.529        0.173      342.493       17.939      859.634
05/26/2013  11:03:00     -186.087      -56.680       11.366      153.070      164.839       85.792    23430.356    27171.997     7360.337        4.796        2.898      194.527       77.630        0.159      342.710       18.308      859.638
05/26/2013  11:04:00     -365.241     -146.164      -14.896      171.032      180.668       81.693    29252.043    32641.106     6673.709       11.177        3.428      393.402       91.015        0.054      342.163       17.377      859.683
05/26/2013  11:05:00     -150.045      -43.076       13.176      136.832      118.369       66.912    18722.901    14011.251     4477.196        3.087        1.861      156.106       70.060        0.201      342.428       17.829      859.681
05/26/2013  11:06:00     -177.972     -199.537       10.532      156.077      129.360       85.874    24359.986    16734.090     7374.311        6.003        2.423      267.374       92.718        0.120      342.257       17.538      859.674
05/26/2013  11:07:00     -226.840     -194.586       -4.811      111.643      106.207       59.438    12464.254    11279.927     3532.882        5.831        1.364      298.864       60.179        0.041      342.089       17.250      859.659
05/26/2013  11:08:00     -251.186     -185.824        0.367      156.771      119.161       73.048    24577.301    14199.427     5335.967        7.086        2.206      312.450       79.163        0.064      342.269       17.557      859.617
05/26/2013  11:09:00     -234.546     -143.804      -14.450      122.405       81.361       53.231    14982.897     6619.674     2833.589        5.016        1.222      275.121       57.572        0.044      342.056       17.196      859.612
05/26/2013  11:10:00     -114.415      -57.518       17.246      114.792       79.955       55.430    13177.223     6392.785     3072.511        1.967        1.132      128.059       65.315        0.260      342.526       17.997      859.606
05/26/2013  11:11:00     -229.683     -149.199       -8.598      190.773      118.769       72.758    36394.467    14106.049     5293.712        6.543        2.790      273.888       81.974        0.090      342.364       17.720      859.604
05/26/2013  11:12:00     -318.331      -93.414      -20.044      108.414      127.390       58.170    11753.637    16228.230     3383.749        7.091        1.568      331.754       55.092        0.028      341.914       16.955      859.580
05/26/2013  11:13:00     -267.548       29.060      -10.531       97.449       81.631       52.039     9496.240     6663.681     2708.037        4.570        0.943      269.121       49.400        0.034      342.314       17.634      859.530
05/26/2013  11:14:00     -388.063      -79.689      -11.781      180.255      151.602       75.274    32491.740    22983.070     5666.109       10.910        3.057      396.161       75.286        0.036      342.689       18.271      859.571
05/26/2013  11:15:00     -529.211     -267.020      -31.237      166.389      178.469       86.641    27685.208    31851.297     7506.617       20.968        3.352      592.760       70.573        0.014      342.271       17.560      859.563
05/26/2013  11:16:00     -472.512     -120.023        0.350      187.169      154.002       83.116    35032.205    23716.679     6908.303       15.165        3.283      487.517       88.540        0.033      342.150       17.355      859.604
05/26/2013  11:17:00     -595.308     -178.828       -6.757      253.521      188.099      108.490    64272.803    35381.276    11770.026       24.890        5.571      621.587      115.524        0.035      342.213       17.462      859.601
05/26/2013  11:18:00     -335.805     -100.984        8.527      248.327      108.449       79.279    61666.258    11761.207     6285.174       10.136        3.986      350.660      101.208        0.083      342.407       17.793      859.628
05/26/2013  11:19:00     -240.992     -167.504      -17.439      135.899      102.637       61.547    18468.451    10534.298     3788.061        5.961        1.640      293.487       66.116        0.051      342.488       17.928      859.653
05/26/2013  11:20:00     -224.342     -201.761       15.070      168.637      125.613       75.647    28438.347    15778.514     5722.393        7.059        2.497      301.723       83.680        0.077      342.503       17.956      859.652
05/26/2013  11:21:00     -415.667     -294.639       -9.844      193.818      171.964       85.831    37565.297    29571.491     7366.973       16.708        3.725      509.501       73.688        0.021      342.249       17.523      859.637
05/26/2013  11:22:00     -298.082     -191.208       -1.917      164.326      184.051       77.452    27002.883    33874.786     5998.820        9.614        3.344      354.138       79.900        0.051      342.358       17.709      859.637
05/26/2013  11:23:00     -223.287     -148.661        2.428      127.979      112.364       69.471    16378.518    12625.615     4826.197        5.289        1.692      268.249       66.145        0.061      342.380       17.746      859.603
05/26/2013  11:24:00      -62.093      -90.618       18.358      131.057       94.016       54.199    17175.949     8839.016     2937.487        2.067        1.448      109.851       44.783        0.166      342.695       18.282      859.555
05/26/2013  11:25:00     -251.956     -191.025        8.946      285.822      150.145       69.010    81694.257    22543.666     4762.419       10.451        5.450      316.185       94.434        0.089      342.821       18.497      859.514
05/26/2013  11:26:00     -546.551     -317.882       -2.516      251.207      174.659      113.994    63105.084    30505.602    12994.655       25.317        5.330      632.271      130.309        0.042      342.343       17.683      859.509
05/26/2013  11:27:00     -363.576     -105.086       -2.507      277.358      158.464       98.094    76927.372    25110.962     9622.406       12.743        5.583      378.458       91.288        0.058      342.609       18.134      859.551
05/26/2013  11:28:00     -242.243      -15.211       14.460      173.906      123.064       78.039    30243.445    15144.853     6090.070        5.529        2.574      242.720       81.048        0.111      342.851       18.548      859.586
05/26/2013  11:29:00      -71.175      -42.550       23.503       84.819       81.510       48.045     7194.309     6643.877     2308.326        1.178        0.807       82.924       39.383        0.226      343.051       18.891      859.567
05/26/2013  11:30:00     -381.369     -117.230      -14.779      211.873      155.696       74.257    44890.341    24241.269     5514.083       11.701        3.732      398.980      100.501        0.063      342.780       18.426      859.559
05/26/2013  11:31:00     -416.166      -74.691      -19.749      271.131      203.019       95.097    73511.824    41216.561     9043.366       15.145        6.189      422.815      126.029        0.089      342.660       18.223      859.584
05/26/2013  11:32:00     -286.311     -156.890      -20.593      207.249      142.326       87.027    42952.330    20256.669     7573.736        8.889        3.539      326.479       97.417        0.089      342.713       18.313      859.593
05/26/2013  11:33:00     -275.095     -178.809      -15.418      140.010      132.781       62.149    19602.887    17630.698     3862.485        7.448        2.055      328.100       65.484        0.040      342.543       18.024      859.609
05/26/2013  11:34:00     -221.750     -226.185       15.010      169.173      187.393       72.280    28619.604    35116.187     5224.405        8.475        3.448      316.753       88.277        0.078      342.618       18.150      859.619
05/26/2013  11:35:00     -439.099     -256.638      -13.523      230.064      210.995      110.255    52929.654    44518.869    12156.253       18.421        5.480      508.597      107.349        0.045      342.685       18.265      859.599
05/26/2013  11:36:00     -524.307     -160.695      -15.955      169.055      128.578       73.679    28579.637    16532.392     5428.548       17.575        2.527      548.380       76.643        0.020      342.247       17.520      859.606
05/26/2013  11:37:00     -248.729      -62.790      -17.077      205.169      113.990       68.755    42094.132    12993.655     4727.297        6.295        2.991      256.532       49.645        0.037      342.663       18.227      859.611
05/26/2013  11:38:00     -552.995      -40.464      -42.773      230.112      161.936       82.345    52951.316    26223.393     6780.742       19.760        4.298      554.474      102.869        0.034      342.531       18.003      859.622
05/26/2013  11:39:00     -397.645      -14.511      -26.396      219.035      120.691       86.188    47976.112    14566.285     7428.456       11.449        3.499      397.910      100.228        0.063      342.799       18.459      859.619
05/26/2013  11:40:00     -523.549       95.184      -37.265      171.373      136.381       78.880    29368.722    18599.789     6222.065       16.936        2.710      532.131       63.999        0.014      342.603       18.126      859.613
05/26/2013  11:41:00     -482.278       50.775      -50.957      163.619      188.090       85.083    26771.123    35377.707     7239.073       15.357        3.469      484.943       74.014        0.023      342.524       17.990      859.582
05/26/2013  11:42:00     -499.399     -128.364      -27.798      300.209      170.939       99.121    90125.292    29220.264     9825.059       19.789        6.459      515.632      114.921        0.050      342.501       17.952      859.564
05/26/2013  11:43:00     -567.740     -178.465      -19.396      205.024      204.216       97.718    42034.860    41704.155     9548.843       22.391        4.664      595.129      106.238        0.032      342.467       17.894      859.547
05/26/2013  11:44:00     -536.463     -173.168      -31.692      217.725      187.245       88.538    47404.375    35060.654     7838.938       20.453        4.515      563.720       86.939        0.024      342.689       18.271      859.505
05/26/2013  11:45:00     -440.194     -120.511       -8.008      303.183      239.174       99.010    91919.799    57204.251     9802.882       18.362        7.946      456.392      108.249        0.056      342.749       18.374      859.575
05/26/2013  11:46:00     -473.849     -303.043      -17.423      255.514      196.496       91.413    65287.262    38610.577     8356.329       21.444        5.613      562.466       94.784        0.028      342.610       18.137      859.568
05/26/2013  11:47:00     -421.843     -143.524      -23.240      321.884      200.063      116.457   103609.081    40025.345    13562.192       17.812        7.860      445.590      150.830        0.115      342.474       17.906      859.586
05/26/2013  11:48:00     -503.164     -216.063      -13.502      190.545      157.111       80.388    36307.509    24683.874     6462.302       18.374        3.373      547.592       87.791        0.026      342.383       17.751      859.612
05/26/2013  11:49:00     -361.033     -132.516      -27.691      126.646      110.477       60.434    16039.212    12205.208     3652.218        9.028        1.595      384.585       60.652        0.025      342.411       17.799      859.597
05/26/2013  11:50:00     -513.436       24.143      -59.294      236.015      188.738       66.819    55703.010    35622.090     4464.719       18.174        4.789      514.003       41.742        0.007      342.683       18.260      859.586
05/26/2013  11:51:00     -525.053     -111.051       -7.159      223.822      149.590       96.641    50096.473    22377.177     9339.574       18.492        4.091      536.668      114.183        0.045      342.509       17.965      859.616
05/26/2013  11:52:00     -446.881     -150.042      -18.416      232.049      165.926       75.034    53846.607    27531.535     5630.157       15.477        4.350      471.397       94.924        0.041      342.404       17.787      859.618
05/26/2013  11:53:00     -469.954     -273.120      -13.614      268.191      178.587      110.406    71926.388    31893.140    12189.414       20.580        5.800      543.554      130.614        0.058      342.358       17.710      859.603
05/26/2013  11:54:00     -260.010     -129.387        9.179      166.662      161.107       73.622    27776.334    25955.550     5420.132        7.178        2.958      290.425       83.843        0.083      342.667       18.234      859.571
05/26/2013  11:55:00     -319.912      -82.719       -6.428      168.275      113.293       75.415    28316.623    12835.228     5687.455        7.803        2.342      330.433       86.111        0.068      342.547       18.030      859.587
05/26/2013  11:56:00     -170.149       -6.344      -15.700      222.501      137.454       71.972    49506.572    18893.715     5179.918        5.140        3.679      170.267       81.376        0.228      342.952       18.720      859.531
05/26/2013  11:57:00     -386.951      -77.953      -17.164      270.332      150.352       83.728    73079.325    22605.793     7010.381       12.938        5.135      394.725      108.504        0.076      342.825       18.503      859.560
05/26/2013  11:58:00     -355.374     -180.528       -0.173      227.979      211.920      101.005    51974.418    44910.233    10201.924       13.297        5.354      398.599      109.921        0.076      342.669       18.238      859.562
05/26/2013  11:59:00     -208.854      -90.994        1.559      205.132      155.654       90.293    42079.329    24228.250     8152.839        6.317        3.723      227.816      110.783        0.236      342.905       18.639      859.495
05/26/2013  12:00:00     -402.850     -159.653       -6.498      195.489      130.243       78.466    38215.865    16963.120     6156.980       12.457        3.067      433.332       88.005        0.041      342.691       18.276      859.517
05/26/2013  12:01:00     -217.783      -67.916       -4.752      144.222      128.131       67.248    20799.844    16417.622     4522.361        4.690        2.087      228.128       64.460        0.080      342.932       18.685      859.538
05/26/2013  12:02:00     -326.931     -264.748       -6.532      198.681      138.679       88.119    39474.321    19231.726     7765.022       12.173        3.324      420.685       94.976        0.051      342.952       18.719      859.529
05/26/2013  12:03:00     -259.253     -144.048       20.926      187.240      171.721       89.996    35058.921    29488.063     8099.331        8.051        3.632      296.584       86.314        0.085      343.256       19.236      859.546
05/26/2013  12:04:00     -420.207     -345.948       -5.335      293.279      239.755      135.370    86012.810    57482.622    18325.012       22.902        8.091      544.292      138.801        0.065      342.712       18.310      859.588
05/26/2013  12:05:00     -441.902     -327.759      -32.290      246.427      155.323       97.951    60726.429    24125.266     9594.448       19.908        4.722      550.185       92.260        0.028      342.331       17.662      859.638
05/26/2013  12:06:00     -342.377     -338.181      -13.217      214.386      202.001      102.863    45961.185    40804.580    10580.890       16.454        4.867      481.236       95.073        0.039      342.540       18.018      859.641
05/26/2013  12:07:00     -381.786     -336.166       16.119      226.393      198.379      116.998    51253.840    39354.106    13688.523       18.164        5.215      508.692      128.253        0.064      342.571       18.071      859.651
05/26/2013  12:08:00     -348.306      -98.385        5.459      255.293      189.432       89.807    65174.275    35884.541     8065.309       12.006        5.456      361.935      112.752        0.097      342.683       18.263      859.662
05/26/2013  12:09:00     -407.892      -93.923      -25.696      163.350      187.211       89.051    26683.120    35048.008     7930.086       12.275        3.483      418.566       96.632        0.053      342.719       18.322      859.644
05/26/2013  12:10:00     -272.592      -40.614      -22.325      154.245      101.712       55.242    23791.479    10345.304     3051.682        5.682        1.859      275.601       60.012        0.047      342.827       18.507      859.633
05/26/2013  12:11:00     -229.958      -50.024        0.739      139.555      110.350       55.351    19475.698    12177.148     3063.733        4.504        1.736      235.336       55.196        0.055      342.931       18.684      859.600
05/26/2013  12:12:00     -462.351       47.776      -14.939      178.131      126.332       72.750    31730.488    15959.761     5292.495       13.462        2.649      464.813       75.099        0.026      342.759       18.390      859.562
05/26/2013  12:13:00     -384.219     -197.820       -2.629      171.098      206.357       98.411    29274.586    42583.186     9684.805       13.414        4.077      432.154       91.597        0.045      342.759       18.389      859.597
05/26/2013  12:14:00     -369.126     -178.194        7.877      180.877      163.119       87.964    32716.435    26607.970     7737.595       11.755        3.353      409.887       89.689        0.048      342.705       18.299      859.585
05/26/2013  12:15:00     -218.580     -105.596       14.088      196.409      167.750       71.030    38576.316    28140.118     5045.269        6.543        3.588      242.750       62.912        0.067      342.952       18.721      859.595
05/26/2013  12:16:00     -402.698     -177.975       12.975      249.580      176.426      108.272    62290.370    31126.032    11722.757       14.956        5.257      440.273      121.841        0.077      342.715       18.314      859.592
05/26/2013  12:17:00     -363.917     -169.743       -5.627      220.907      179.979       90.410    48800.028    32392.616     8173.957       12.531        4.468      401.558      110.306        0.075      342.699       18.290      859.599
05/26/2013  12:18:00     -409.213     -189.991      -16.221      208.656      170.312       90.452    43537.413    29006.310     8181.612       14.226        4.036      451.167      104.133        0.053      342.828       18.508      859.594
05/26/2013  12:19:00     -254.833      -64.195       -0.705      184.332      127.704       60.782    33978.413    16308.211     3694.443        6.151        2.699      262.794       55.822        0.045      342.804       18.470      859.624
05/26/2013  12:20:00     -128.822      -11.387       19.537      125.638       87.027       50.432    15784.901     7573.629     2543.369        2.150        1.295      129.325       53.566        0.172      343.213       19.165      859.589
05/26/2013  12:21:00     -131.519     -133.814       14.682      152.003      113.455       60.802    23104.970    12871.969     3696.937        3.754        1.984      187.625       56.087        0.089      342.651       18.208      859.581
05/26/2013  12:22:00     -183.771     -218.950        9.566      145.401      135.894       61.259    21141.583    18467.043     3752.642        6.257        2.168      285.851       47.047        0.027      342.760       18.393      859.584
05/26/2013  12:23:00     -207.216     -263.578        3.419      197.992      178.222       78.546    39200.845    31763.093     6169.452        9.477        3.857      335.278       98.479        0.086      342.698       18.287      859.594
05/26/2013  12:24:00      -95.834     -109.019       34.369      104.973      113.205       53.482    11019.376    12815.262     2860.371        2.447        1.335      145.153       44.081        0.092      342.877       18.593      859.574
05/26/2013  12:25:00      -34.825      -94.005        6.682       60.389      115.633       75.125     3646.790    13370.919     5643.811        1.637        1.133      100.249       59.128        0.348      343.017       18.834      859.514
05/26/2013  12:26:00     -158.887     -164.998      -18.795       90.722      159.148       52.682     8230.463    25328.195     2775.342        4.457        1.817      229.062       62.103        0.074      342.812       18.479      859.474
05/26/2013  12:27:00     -258.685      -40.472       -8.027      232.570      128.532       63.205    54088.958    16520.518     3994.852        7.160        3.730      261.832       63.099        0.058      343.023       18.841      859.475
05/26/2013  12:28:00     -189.557     -175.458        9.075      198.595      125.032       70.424    39439.881    15633.055     4959.570        6.341        3.002      258.297       80.701        0.098      343.335       19.372      859.492
05/26/2013  12:29:00     -344.885     -309.199      -16.515      189.230      184.129       84.112    35807.954    33903.596     7074.817       14.579        3.839      463.195       94.524        0.042      343.093       18.956      859.525
05/26/2013  12:30:00     -156.471     -345.102       -5.426      157.515      184.571       71.043    24810.844    34066.513     5047.038       10.376        3.196      378.918       78.097        0.042      342.976       18.761      859.565
05/26/2013  12:31:00      -73.862     -254.057      -40.270      204.031      149.422       97.639    41628.711    22326.909     9533.388        7.254        3.674      264.576       74.884        0.080      342.977       18.762      859.493
05/26/2013  12:32:00        3.585     -197.135      -33.186      186.020      133.183       63.610    34603.335    17737.600     4046.188        4.817        2.819      197.167       42.097        0.046      342.956       18.726      859.463
05/26/2013  12:33:00     -227.991     -164.855       -7.616      128.986      113.796       51.466    16637.339    12949.619     2648.713        5.572        1.612      281.349       59.853        0.045      342.967       18.744      859.492
05/26/2013  12:34:00     -151.838     -332.886      -18.254      145.723      138.530       75.058    21235.215    19190.509     5633.640        9.012        2.303      365.879       37.857        0.011      342.891       18.615      859.493
05/26/2013  12:35:00     -191.312     -199.610        3.005      175.083      133.116       70.428    30654.205    17719.790     4960.082        6.488        2.667      276.486       73.649        0.071      343.161       19.075      859.465
05/26/2013  12:36:00      -68.546     -194.973       -5.305       97.061      112.603       73.285     9420.753    12679.465     5370.707        3.510        1.374      206.671       64.981        0.099      343.243       19.216      859.466
05/26/2013  12:37:00      -93.368     -242.418        1.687      124.705      183.691       75.037    15551.365    33742.348     5630.563        6.120        2.746      259.777       56.822        0.048      343.193       19.128      859.476
05/26/2013  12:38:00     -125.597     -147.507       -3.649      119.129      150.798       58.620    14191.724    22740.024     3436.349        3.895        2.018      193.734       51.589        0.071      343.246       19.221      859.456
05/26/2013  12:39:00     -284.684     -202.801       -4.250      178.651      111.588       77.343    31916.108    12451.899     5981.994        8.626        2.518      349.532       79.151        0.051      342.988       18.781      859.441
05/26/2013  12:40:00     -338.687     -220.872       -8.709      266.331      193.188       89.263    70931.973    37321.482     7967.929       13.988        5.811      404.343      110.522        0.075      342.902       18.635      859.378
05/26/2013  12:41:00     -243.720     -308.953       -9.689      168.969      178.264       84.777    28550.501    31778.068     7187.062       11.122        3.376      393.512       75.978        0.037      342.931       18.683      859.452
05/26/2013  12:42:00     -347.508     -359.386       -9.493      208.663      227.953       89.432    43540.433    51962.417     7998.071       17.674        5.175      499.920       90.765        0.033      342.844       18.533      859.441
05/26/2013  12:43:00     -346.828     -170.129       -2.431      182.363      166.419       86.185    33256.338    27695.239     7427.855       10.880        3.419      386.307       85.776        0.049      343.031       18.852      859.476
05/26/2013  12:44:00     -206.990     -247.299       16.015      170.865      136.550       86.005    29194.896    18645.992     7396.803        7.974        2.762      322.493       90.058        0.078      342.880       18.595      859.450
05/26/2013  12:45:00     -194.714     -253.530        3.979      151.282      150.298       78.452    22886.356    22589.359     6154.730        7.691        2.582      319.673       79.010        0.061      342.905       18.638      859.428
05/26/2013  12:46:00     -402.395     -240.069      -11.395      210.509      175.878       96.010    44314.176    30932.921     9217.962       15.206        4.223      468.567      111.041        0.056      343.022       18.838      859.422
05/26/2013  12:47:00     -539.864     -282.076      -33.675      249.847      211.985      102.812    62423.302    44937.539    10570.254       24.502        5.897      609.114      116.636        0.037      342.783       18.431      859.437
05/26/2013  12:48:00     -344.201     -213.653       -6.004      163.834      152.696       73.479    26841.582    23315.930     5399.160       10.985        2.778      405.120       78.266        0.037      342.801       18.462      859.469
05/26/2013  12:49:00     -253.206     -227.044        0.917      164.999      110.892       86.378    27224.782    12297.065     7461.103        8.132        2.349      340.092       90.020        0.070      342.770       18.410      859.429
05/26/2013  12:50:00     -482.210     -104.207      -22.114      288.162      163.714       73.319    83037.522    26802.407     5375.658       17.953        5.761      493.342       69.181        0.020      342.712       18.312      859.338
05/26/2013  12:51:00     -297.843     -127.651       -7.997      250.495      160.176       88.547    62747.624    25656.196     7840.650       10.064        4.812      324.045      118.378        0.133      342.945       18.707      859.369
05/26/2013  12:52:00     -157.725     -281.945       -3.853      127.787      127.562       66.756    16329.473    16271.969     4456.335        7.072        1.853      323.064       54.596        0.029      342.761       18.392      859.430
05/26/2013  12:53:00      -67.372      -78.079       27.686      126.060      140.688       69.769    15891.096    19793.190     4867.721        2.597        2.028      103.128       87.173        0.715      343.016       18.829      859.399
05/26/2013  12:54:00      -92.540     -221.354      -10.127      139.161      132.443       48.729    19365.792    17541.136     2374.537        4.847        1.964      239.919       37.174        0.024      342.801       18.462      859.350
05/26/2013  12:55:00       95.545     -334.873       -6.250      150.774      150.892       89.332    22732.717    22768.368     7980.246        8.739        2.674      348.237       82.049        0.056      343.124       19.013      859.328
05/26/2013  12:56:00      -66.598     -264.011      -15.988      145.801      136.349       76.281    21258.011    18591.077     5818.838        6.002        2.283      272.281       58.101        0.046      342.865       18.572      859.343
05/26/2013  12:57:00      -80.264     -286.718        1.472      117.215      152.661       75.556    13739.397    23305.433     5708.672        6.570        2.138      297.741       77.170        0.067      343.016       18.827      859.353
05/26/2013  12:58:00       36.915     -199.731        0.802      144.144      115.483       82.636    20777.361    13336.307     6828.733        4.109        2.047      203.113       38.762        0.036      343.048       18.882      859.353
05/26/2013  12:59:00       75.361     -208.835       18.280      131.531      246.914      131.664    17300.416    60966.750    17335.350        7.260        4.780      222.016      142.859        0.414      343.034       18.859      859.295
05/26/2013  13:00:00      -51.252       -9.438       58.760       97.748       94.825       81.681     9554.670     8991.724     6671.740        1.569        1.261       52.114       73.968        2.015      343.394       19.474      859.295
05/26/2013  13:01:00     -275.662     -145.207       -0.179      158.438      166.498       68.357    25102.653    27721.558     4672.682        7.728        2.875      311.568       87.487        0.079      343.336       19.373      859.366
05/26/2013  13:02:00     -290.188     -118.996      -12.159      114.274      133.465       71.299    13058.630    17812.953     5083.496        6.723        1.798      313.638       49.559        0.025      343.049       18.884      859.375
05/26/2013  13:03:00     -204.699      -64.392        9.513      118.397      115.845       46.641    14017.777    13419.971     2175.429        3.787        1.481      214.588       46.039        0.046      343.303       19.316      859.365
05/26/2013  13:04:00     -160.341      -65.163        5.730      111.483      122.716       67.890    12428.381    15059.282     4609.102        3.104        1.605      173.077       62.744        0.131      343.490       19.636      859.346
05/26/2013  13:05:00     -187.455     -268.061        3.448      164.688      138.023       78.367    27122.155    19050.319     6141.339        7.965        2.616      327.103       66.176        0.041      343.279       19.276      859.379
05/26/2013  13:06:00     -341.919     -291.108        1.857      229.122      220.723       99.577    52496.908    48718.570     9915.574       15.637        5.557      449.057      110.581        0.061      343.197       19.136      859.383
05/26/2013  13:07:00     -489.313     -379.630        2.621      269.926      205.703      116.771    72860.193    42313.595    13635.531       25.616        6.440      619.311      106.964        0.030      343.096       18.964      859.381
05/26/2013  13:08:00     -503.214     -348.518      -12.187      243.317      175.797       95.695    59203.043    30904.665     9157.600       23.703        4.963      612.118      100.389        0.027      342.904       18.637      859.412
05/26/2013  13:09:00     -435.978     -344.551      -29.935      159.421      192.017       95.069    25414.934    36870.619     9038.100       19.049        3.566      555.690       97.949        0.031      342.951       18.717      859.432
05/26/2013  13:10:00     -452.012     -259.757      -20.227      190.131      146.977       91.976    36149.763    21602.293     8459.593       16.919        3.311      521.333       62.333        0.014      342.985       18.774      859.418
05/26/2013  13:11:00     -314.420     -385.509       -9.396      235.114      160.711       97.169    55278.358    25827.919     9441.736       16.904        4.527      497.470      103.403        0.043      342.988       18.780      859.449
05/26/2013  13:12:00     -190.514     -294.134        8.243      122.256      141.577       65.891    14946.437    20044.052     4341.574        8.110        1.967      350.443       53.024        0.023      342.899       18.628      859.485
05/26/2013  13:13:00     -302.540     -263.816      -13.152      189.328      186.086       86.036    35845.245    34628.156     7402.232       11.958        3.894      401.409       82.838        0.043      343.059       18.903      859.443
05/26/2013  13:14:00     -346.203     -229.888      -11.341      220.008      135.464       80.103    48403.709    18350.510     6416.565       12.299        3.659      415.578      103.695        0.062      342.900       18.632      859.408
05/26/2013  13:15:00     -108.053     -131.438        0.118       84.193       80.113       46.794     7088.518     6418.038     2189.686        2.232        0.785      170.151       39.797        0.055      343.014       18.825      859.421
05/26/2013  13:16:00      -80.605      -79.454       20.295      109.360      105.506       49.876    11959.532    11131.587     2487.602        1.940        1.279      113.182       56.509        0.249      343.412       19.504      859.389
05/26/2013  13:17:00     -231.481     -238.727        4.376      185.107      142.080       77.228    34264.636    20186.755     5964.208        8.549        3.021      332.527       76.546        0.053      343.286       19.286      859.391
05/26/2013  13:18:00     -269.489     -121.037      -16.103      137.470       98.393       73.489    18897.943     9681.257     5400.654        6.075        1.699      295.423       71.905        0.059      343.459       19.581      859.346
05/26/2013  13:19:00     -228.375     -258.389        1.697      218.766      195.465       89.556    47858.622    38206.613     8020.323       10.649        4.704      344.847      117.396        0.116      343.154       19.064      859.355
05/26/2013  13:20:00     -172.361     -274.488       33.891      147.374      228.334       94.939    21719.130    52136.508     9013.381        9.452        4.143      324.118      110.234        0.116      342.994       18.791      859.403
05/26/2013  13:21:00     -111.774     -236.199        2.243      158.005      178.015       91.958    24965.429    31689.361     8456.311        6.669        3.256      261.311       70.586        0.073      343.262       19.246      859.274
05/26/2013  13:22:00     -519.424     -204.240       -8.632      266.078      193.643      104.415    70797.530    37497.551    10902.528       21.537        5.960      558.136      113.843        0.042      343.105       18.980      859.395
05/26/2013  13:23:00     -483.831     -254.362      -32.412      271.674      147.765       95.073    73806.710    21834.351     9038.787       20.224        5.234      546.619      106.249        0.038      342.872       18.582      859.422
05/26/2013  13:24:00     -502.932     -297.301      -20.962      224.096      212.060      112.349    50219.128    44969.484    12622.264       22.477        5.391      584.233      127.214        0.047      342.928       18.677      859.431
05/26/2013  13:25:00     -444.869     -246.721       -9.817      274.761      216.659      102.686    75493.851    46941.205    10544.508       19.591        6.649      508.704      120.291        0.056      342.936       18.691      859.421
05/26/2013  13:26:00     -295.479     -180.458       -6.745      162.488      150.975       95.782    26402.436    22793.559     9174.171        8.913        2.919      346.227       92.424        0.071      343.197       19.135      859.463
05/26/2013  13:27:00     -262.882     -172.097       12.309      168.934      149.966       96.499    28538.729    22489.949     9312.148        7.960        3.017      314.204       95.794        0.093      343.320       19.346      859.468
05/26/2013  13:28:00     -435.038      -55.326      -22.375      192.652      223.933       84.044    37114.739    50146.058     7063.419       14.356        4.716      438.542       87.883        0.040      343.135       19.031      859.421
05/26/2013  13:29:00     -438.978     -114.786       -4.872      192.975      154.550       90.094    37239.449    23885.841     8116.972       13.756        3.462      453.737       90.843        0.040      343.212       19.162      859.410
05/26/2013  13:30:00     -361.711     -194.226        7.840      194.576      205.872       94.815    37859.629    42383.267     8989.852       12.891        4.462      410.559       96.938        0.056      343.169       19.087      859.440
05/26/2013  13:31:00     -391.517     -271.269      -16.143      295.374      135.012       89.265    87245.898    18228.273     7968.178       17.027        5.672      476.311       86.854        0.033      343.043       18.873      859.449
05/26/2013  13:32:00     -294.539     -309.096      -10.510      196.524      165.218       93.135    38621.779    27297.128     8674.062       12.849        3.730      426.959       92.015        0.046      343.081       18.938      859.416
05/26/2013  13:33:00     -297.047     -224.561      -17.590      178.833      151.589       80.653    31981.217    22979.357     6504.921       10.021        3.073      372.377       79.945        0.046      343.005       18.809      859.428
05/26/2013  13:34:00     -182.075     -132.596        8.690      147.934      109.584       68.208    21884.576    12008.756     4652.280        4.467        1.927      225.239       74.066        0.108      343.166       19.084      859.400
05/26/2013  13:35:00     -272.305     -238.119       -2.546      136.481      113.396       75.487    18627.088    12858.733     5698.354        8.401        1.859      361.733       80.953        0.050      342.820       18.493      859.366
05/26/2013  13:36:00     -237.627     -203.339      -24.884      149.822      108.590       56.387    22446.601    11791.836     3179.487        6.792        1.871      312.751       64.835        0.043      343.059       18.900      859.330
05/26/2013  13:37:00     -167.095     -110.588       33.248      154.739      137.842       74.001    23944.037    19000.465     5476.115        4.483        2.421      200.376       82.333        0.169      343.321       19.347      859.334
05/26/2013  13:38:00     -100.582     -257.239      -11.015      223.834      166.524       92.329    50101.620    27730.397     8524.626        8.137        4.318      276.204       78.713        0.081      343.401       19.484      859.255
05/26/2013  13:39:00     -191.120     -325.953        7.422      274.056      228.017       84.155    75106.506    51991.623     7082.043       13.848        6.709      377.852       96.839        0.066      343.425       19.525      859.277
05/26/2013  13:40:00     -286.241     -119.268        1.877      172.525      151.201       83.364    29764.886    22861.608     6949.570        7.786        2.979      310.095       72.202        0.054      343.545       19.727      859.344
05/26/2013  13:41:00     -400.783     -209.505      -20.878      275.434      210.318      107.730    75864.015    44233.605    11605.676       16.831        6.585      452.238      129.331        0.082      343.297       19.305      859.307
05/26/2013  13:42:00     -295.083     -143.557       23.168      278.511      161.015       90.918    77568.317    25925.706     8266.136       10.997        5.588      328.150       88.287        0.072      343.466       19.594      859.330
05/26/2013  13:43:00     -320.949     -306.031       -0.175      260.017      193.286       94.432    67608.620    37359.364     8917.473       15.526        5.694      443.468      125.911        0.081      343.101       18.973      859.445
05/26/2013  13:44:00     -240.588     -202.389        7.838      171.764      130.190       73.846    29502.974    16949.323     5453.177        7.540        2.595      314.395       84.091        0.072      343.153       19.059      859.424
05/26/2013  13:45:00     -299.162     -168.374       -1.737      169.179      170.870       82.910    28621.376    29196.620     6874.052        9.126        3.235      343.289       88.715        0.067      343.159       19.072      859.427
05/26/2013  13:46:00     -124.284     -290.044      -14.898      161.672      139.358       73.577    26137.914    19420.552     5413.507        7.537        2.549      315.551       31.701        0.010      343.077       18.931      859.459
05/26/2013  13:47:00      -36.381     -184.603      -16.912      163.910      133.325       70.319    26866.527    17775.449     4944.742        4.263        2.479      188.153       69.285        0.136      343.346       19.391      859.417
05/26/2013  13:48:00     -122.981      -80.364       24.851      118.586      102.822       59.486    14062.667    10572.270     3538.626        2.518        1.409      146.910       65.764        0.200      343.463       19.590      859.394
05/26/2013  13:49:00      -73.473      -35.011      -13.785       86.298      127.341       46.310     7447.345    16215.667     2144.634        1.631        1.290       81.388       40.592        0.249      343.528       19.702      859.314
05/26/2013  13:50:00     -199.066     -124.422        9.418      239.155      168.226      102.192    57194.996    28300.065    10443.206        7.555        4.797      234.752      110.029        0.220      343.597       19.818      859.332
05/26/2013  13:51:00      -43.456     -335.439        1.854      154.293      172.495       83.032    23806.333    29754.619     6894.334        8.742        3.023      338.242       70.395        0.043      343.426       19.526      859.419
05/26/2013  13:52:00     -281.469     -404.756       -7.579      179.213      227.444      109.065    32117.348    51730.888    11895.123       16.941        4.787      493.003       99.204        0.040      343.331       19.364      859.395
05/26/2013  13:53:00     -303.462     -262.896      -11.750      224.218      169.653      107.167    50273.910    28782.065    11484.754       12.593        4.527      401.501      101.089        0.063      343.309       19.328      859.415
05/26/2013  13:54:00     -351.336     -160.956       -2.539      212.357      175.463       80.324    45095.475    30787.089     6452.007       11.583        4.117      386.450       87.384        0.051      343.141       19.041      859.421
05/26/2013  13:55:00      -76.307     -123.034       -6.402      127.560      115.767       64.239    16271.533    13402.110     4126.688        2.740        1.690      144.776       54.071        0.139      343.410       19.499      859.411
05/26/2013  13:56:00      -99.966     -186.394       -1.876      207.860      121.555       69.316    43205.756    14775.572     4804.668        5.375        3.139      211.508       67.829        0.103      343.439       19.549      859.424
05/26/2013  13:57:00      -88.337     -189.586       -0.342      108.927      111.603       65.496    11865.174    12455.282     4289.663        3.617        1.431      209.157       53.424        0.065      343.189       19.122      859.410
05/26/2013  13:58:00      -40.920     -151.836       27.741       98.922      165.420       54.214     9785.592    27363.692     2939.107        3.279        2.004      157.254       68.895        0.192      343.548       19.735      859.392
05/26/2013  13:59:00     -270.933     -318.970       -4.803      173.569      200.365       71.663    30126.218    40145.940     5135.632       12.528        3.770      418.505       64.349        0.024      343.511       19.670      859.394
05/26/2013  14:00:00     -224.306     -291.168        0.899      191.859      200.778       74.712    36809.844    40311.637     5581.904       10.888        4.135      367.549       93.104        0.064      343.359       19.412      859.414
05/26/2013  14:01:00     -281.905     -525.908       -2.046      178.759      245.798      101.662    31954.618    60416.817    10335.148       22.936        5.135      596.699       89.868        0.023      343.193       19.129      859.429
05/26/2013  14:02:00     -213.383     -442.841      -12.719      157.240      200.151       70.099    24724.412    40060.538     4913.818       15.574        3.485      491.569       63.057        0.016      343.150       19.056      859.424
05/26/2013  14:03:00     -116.954     -131.452       18.088      162.957       88.261       62.671    26555.107     7789.964     3927.635        3.477        1.914      175.949       62.448        0.126      343.417       19.512      859.359
05/26/2013  14:04:00     -222.407     -161.680       -5.365      202.886      123.781       71.822    41162.886    15321.709     5158.454        6.863        3.082      274.964       53.368        0.038      343.530       19.704      859.380
05/26/2013  14:05:00     -130.202     -171.003        8.283      126.435      111.560       70.612    15985.932    12445.726     4986.018        3.983        1.671      214.929       51.801        0.058      343.305       19.321      859.391
05/26/2013  14:06:00      -47.160     -369.031      -15.840      196.638      181.537       87.302    38666.331    32955.772     7621.568       10.894        3.962      372.033       67.500        0.033      343.179       19.104      859.323
05/26/2013  14:07:00      -97.785     -256.965       13.011      137.153      153.877       88.252    18810.809    23678.104     7788.406        6.301        2.514      274.942       79.394        0.083      343.269       19.259      859.272
05/26/2013  14:08:00      -74.521     -221.168      -19.897      172.754      184.434       75.903    29843.774    34015.972     5761.199        6.223        3.481      233.385       64.548        0.076      343.388       19.462      859.305
05/26/2013  14:09:00     -270.564     -256.130       -5.981      197.557      155.890       81.989    39028.708    24301.543     6722.223       10.444        3.503      372.569       62.010        0.028      343.449       19.564      859.329
05/26/2013  14:10:00     -511.121     -305.585      -20.918      242.443      207.994      112.882    58778.676    43261.483    12742.277       23.490        5.739      595.505      131.729        0.049      343.209       19.158      859.365
05/26/2013  14:11:00     -383.716     -255.432       -1.855      226.876      181.016       95.880    51472.666    32766.741     9193.028       15.294        4.672      460.960      101.351        0.048      343.093       18.959      859.374
05/26/2013  14:12:00     -278.834     -241.194       -2.314      229.030      166.582       96.208    52454.726    27749.685     9256.072       11.268        4.473      368.677       99.109        0.072      343.156       19.067      859.388
05/26/2013  14:13:00     -491.272     -349.399      -14.402      214.278      184.818      103.652    45915.132    34157.823    10743.647       22.721        4.541      602.849      117.807        0.038      343.142       19.042      859.367
05/26/2013  14:14:00     -336.593      -54.867        5.605      199.789      164.524       96.735    39915.602    27068.063     9357.586        9.633        3.817      341.036       98.238        0.083      343.203       19.146      859.380
05/26/2013  14:15:00     -581.611     -295.659       -9.276      224.607      167.515      102.156    50448.168    28061.412    10435.779       25.734        4.447      652.446      106.802        0.027      342.995       18.792      859.341
05/26/2013  14:16:00     -307.687     -215.186       17.705      183.352      143.329       85.874    33617.982    20543.171     7374.327       10.140        3.077      375.468       83.673        0.050      343.410       19.499      859.377
05/26/2013  14:17:00     -231.336     -215.360        2.343      207.111      185.566       83.551    42895.069    34434.797     6980.809        9.209        4.216      316.064       62.689        0.039      343.327       19.357      859.383
05/26/2013  14:18:00     -238.919     -251.719       20.057      169.052      196.267       80.473    28578.563    38520.539     6475.825        9.720        3.679      347.052       82.277        0.056      343.505       19.660      859.344
05/26/2013  14:19:00     -280.373     -170.758       11.792      211.579      223.506       89.985    44765.610    49954.947     8097.291       10.534        5.141      328.279      100.663        0.094      343.765       20.104      859.375
05/26/2013  14:20:00     -289.563      -14.411        9.837      207.378      140.449       79.533    43005.471    19725.926     6325.467        7.659        3.453      289.921       89.130        0.095      343.793       20.153      859.409
05/26/2013  14:21:00     -416.832      -35.981      -17.731      279.283      182.369       93.268    77998.865    33258.462     8698.889       14.764        5.998      418.382      124.163        0.088      343.459       19.583      859.445
05/26/2013  14:22:00     -263.009      -86.387        1.016      189.241      137.296       76.394    35812.300    18850.325     5836.070        6.856        3.025      276.833       76.789        0.077      343.672       19.944      859.460
05/26/2013  14:23:00     -543.237     -403.053      -11.836      303.711      188.764      111.330    92240.410    35631.886    12394.363       29.896        7.013      676.430      124.884        0.034      342.953       18.721      859.445
05/26/2013  14:24:00     -498.429     -272.119       -9.038      197.794      191.961       97.915    39122.447    36849.048     9587.320       20.405        4.278      567.873       86.996        0.023      342.991       18.785      859.434
05/26/2013  14:25:00     -232.519     -379.055        2.338      156.003      248.149       94.450    24336.790    61578.104     8920.810       14.628        4.742      444.688      102.687        0.053      342.987       18.778      859.496
05/26/2013  14:26:00     -148.312     -212.905       -4.835      171.570      147.067       75.465    29436.428    21628.701     5694.991        6.204        2.838      259.470       64.873        0.063      343.128       19.019      859.460
05/26/2013  14:27:00     -161.215     -121.189        9.387      128.250       85.961       58.616    16448.182     7389.307     3435.779        3.401        1.364      201.686       60.165        0.089      343.617       19.852      859.457
05/26/2013  14:28:00     -349.623     -197.123      -22.064      128.869      147.615       75.546    16607.291    21790.072     5707.131       10.284        2.205      401.365       58.023        0.021      343.577       19.784      859.495
05/26/2013  14:29:00     -211.996     -321.089      -20.886      188.814      178.136       89.036    35650.665    31732.436     7927.347       11.188        3.766      384.761       90.080        0.055      343.210       19.157      859.524
05/26/2013  14:30:00     -211.307     -130.519       10.296      166.585      102.872       68.267    27750.517    10582.745     4660.377        5.239        2.150      248.366       75.261        0.092      343.397       19.475      859.488
05/26/2013  14:31:00     -331.607     -171.718        1.110      228.571      199.368       86.908    52244.837    39747.788     7552.932       11.948        4.977      373.430       84.746        0.052      343.424       19.522      859.513
05/26/2013  14:32:00     -151.654     -242.426       10.600      176.391      135.541       86.976    31113.722    18371.390     7564.833        6.946        2.852      285.954       88.056        0.095      343.480       19.617      859.461
05/26/2013  14:33:00     -247.864     -180.969      -13.146      128.620      124.786       65.523    16543.047    15571.598     4293.274        6.538        1.820      306.898       66.748        0.047      343.842       20.236      859.477
05/26/2013  14:34:00     -261.037     -237.295        0.417      165.466      152.521       85.596    27378.979    23262.531     7326.675        9.120        2.898      352.774       93.138        0.070      343.847       20.244      859.480
05/26/2013  14:35:00     -328.230     -237.849       -4.345      195.779      176.712       79.855    38329.383    31227.144     6376.827       12.012        3.797      405.348       88.913        0.048      343.308       19.324      859.507
05/26/2013  14:36:00     -285.647     -154.508        3.834      192.429      137.826       82.159    37029.034    18995.951     6750.052        8.412        3.139      324.757       91.915        0.080      343.350       19.398      859.471
05/26/2013  14:37:00     -220.449     -317.842        2.818      177.090      173.986       99.396    31360.745    30271.099     9879.566       11.056        3.576      386.809       81.294        0.044      343.615       19.848      859.516
05/26/2013  14:38:00     -420.277     -292.939      -12.046      163.655      134.949       76.977    26783.117    18211.352     5925.530       15.675        2.546      512.295       71.339        0.019      343.076       18.930      859.556
05/26/2013  14:39:00     -234.993     -161.815        8.676      157.098      104.335       75.537    24679.766    10885.810     5705.913        6.137        2.064      285.317       62.694        0.048      343.158       19.069      859.535
05/26/2013  14:40:00     -299.050     -170.256       -0.523      146.721      153.912       72.271    21527.105    23688.858     5223.102        8.442        2.522      344.119       67.114        0.038      343.340       19.379      859.507
05/26/2013  14:41:00     -197.861     -279.992        6.197      157.030      210.712       79.281    24658.405    44399.641     6285.449        9.645        3.767      342.848       80.806        0.056      343.464       19.591      859.551
05/26/2013  14:42:00     -339.421     -256.218      -22.385      188.833      178.087       89.133    35657.885    31715.121     7944.647       12.832        3.766      425.269       92.040        0.047      343.416       19.510      859.541
05/26/2013  14:43:00     -394.145     -272.180      -27.792      230.750      178.498       93.814    53245.519    31861.539     8801.064       16.204        4.695      478.991       94.364        0.039      343.324       19.354      859.548
05/26/2013  14:44:00     -333.781     -249.913       -6.999      195.781      178.766       88.754    38330.244    31957.147     7877.285       12.603        3.908      416.973       84.617        0.041      343.279       19.276      859.561
05/26/2013  14:45:00     -184.928     -273.541      -11.735      129.831      185.399       81.187    16856.005    34372.936     6591.253        8.348        2.891      330.186       70.013        0.045      343.387       19.459      859.623
05/26/2013  14:46:00     -308.495     -346.065      -10.181      246.268      180.831       94.171    60648.151    32699.837     8868.085       15.861        5.111      463.606       94.250        0.041      343.171       19.092      859.650
05/26/2013  14:47:00     -348.261     -300.683       27.862      298.834      252.909      118.289    89301.933    63962.865    13992.279       18.984        8.363      460.104      164.602        0.128      343.344       19.388      859.649
05/26/2013  14:48:00     -392.087     -360.818      -14.729      217.545      190.526       95.283    47325.903    36300.310     9078.913       18.841        4.635      532.843      110.644        0.043      343.119       19.003      859.641
05/26/2013  14:49:00     -345.175     -298.425      -10.243      195.540      169.029       84.958    38235.790    28570.814     7217.872       14.115        3.701      456.293       89.102        0.038      343.338       19.376      859.633
05/26/2013  14:50:00     -389.551     -277.782       15.506      224.884      197.542       97.350    50572.945    39022.990     9477.065       16.410        4.954      478.448      105.254        0.048      343.371       19.433      859.646
05/26/2013  14:51:00     -416.420     -311.614       11.837      239.895      212.252      111.176    57549.620    45051.065    12360.001       19.279        5.748      520.105      136.437        0.069      343.188       19.121      859.640
05/26/2013  14:52:00     -570.441     -358.741      -18.602      245.522      196.942      109.208    60281.179    38786.216    11926.357       28.270        5.550      673.868      121.068        0.032      342.947       18.710      859.610
05/26/2013  14:53:00     -417.766     -289.143       -5.109      227.318      181.620      102.803    51673.619    32985.643    10568.388       17.668        4.761      508.067      104.952        0.043      343.177       19.101      859.606
05/26/2013  14:54:00     -282.054     -261.466       14.509      194.717      155.190       94.634    37914.676    24084.004     8955.605       10.953        3.548      384.602       82.383        0.046      343.176       19.099      859.658
05/26/2013  14:55:00     -293.328     -214.276       -7.695      151.581      157.022       79.948    22976.742    24655.813     6391.749        9.301        2.701      363.257       72.826        0.040      343.232       19.196      859.624
05/26/2013  14:56:00     -390.844     -260.900       -6.322      175.627      164.371       79.917    30844.678    27017.745     6386.794       14.255        3.212      469.924       72.280        0.024      343.010       18.818      859.585
05/26/2013  14:57:00     -232.392      -94.192       18.163      163.258      173.762       86.678    26653.055    30193.332     7513.146        6.377        3.218      250.755       96.783        0.149      343.056       18.896      859.555
05/26/2013  14:58:00     -187.793     -242.148       13.352      154.962      171.321       81.096    24013.318    29350.864     6576.629        7.700        2.997      306.434       78.514        0.066      343.376       19.442      859.501
05/26/2013  14:59:00     -321.483     -272.261      -15.391      139.295      132.994       76.659    19403.042    17687.412     5876.656       11.033        2.148      421.281       75.096        0.032      343.458       19.580      859.529
05/26/2013  15:00:00     -297.814     -350.713      -19.812      165.084      172.073       99.573    27252.656    29608.969     9914.802       13.942        3.339      460.101       85.407        0.034      343.023       18.840      859.509
05/26/2013  15:01:00     -480.786     -301.753      -21.749      309.746      186.491      100.666    95942.784    34779.015    10133.703       23.175        7.043      567.636      128.127        0.051      343.382       19.453      859.510
05/26/2013  15:02:00     -297.371     -232.539       39.142      299.482      235.406      109.944    89689.426    55415.768    12087.667       15.059        7.860      377.497      125.348        0.110      343.614       19.846      859.491
05/26/2013  15:03:00     -429.550     -171.330      -12.984      195.792      173.315       94.565    38334.477    30037.974     8942.559       14.566        3.866      462.457       90.316        0.038      343.369       19.427      859.532
05/26/2013  15:04:00     -360.628     -291.990       -8.589      228.139      162.595      102.046    52047.407    26437.010    10413.436       15.213        4.445      464.016      107.476        0.054      343.232       19.196      859.494
05/26/2013  15:05:00     -519.414     -317.755      -17.727      230.382      260.451      108.603    53075.851    67834.565    11794.636       25.187        6.635      608.900      120.277        0.039      343.176       19.100      859.499
05/26/2013  15:06:00     -603.711     -343.133      -40.112      279.235      226.497      109.142    77972.417    51300.741    11911.906       31.248        7.059      694.412      107.406        0.024      343.053       18.890      859.406
05/26/2013  15:07:00     -528.444     -295.155        3.780      354.718      194.806      115.373   125825.160    37949.239    13310.882       27.170        8.854      605.285      137.375        0.052      343.067       18.914      859.442
05/26/2013  15:08:00     -463.435     -120.312       -2.445      261.960      220.745      103.983    68623.012    48728.440    10812.393       17.869        6.408      478.798      118.275        0.061      343.173       19.095      859.431
05/26/2013  15:09:00     -333.327     -159.190       -8.608      206.696      163.095       89.061    42723.327    26599.890     7931.910       10.688        3.863      369.389       85.345        0.053      343.362       19.418      859.419
05/26/2013  15:10:00     -479.157     -112.996       -5.083      249.426      193.519      124.487    62213.485    37449.530    15497.088       17.875        5.758      492.300      131.744        0.072      343.298       19.307      859.370
05/26/2013  15:11:00     -240.981      -85.384       21.844      160.574      124.734       77.986    25784.083    15558.505     6081.796        5.662        2.371      255.661       73.357        0.082      343.716       20.020      859.450
05/26/2013  15:12:00     -219.537     -237.296       -6.652      207.385      193.891       94.972    43008.348    37593.868     9019.715        9.707        4.481      323.274       87.391        0.073      343.489       19.633      859.420
05/26/2013  15:13:00     -304.613     -291.837        2.644      195.057      231.374       91.011    38047.269    53533.740     8282.920       13.890        4.993      421.851      102.190        0.059      343.454       19.573      859.428
05/26/2013  15:14:00     -257.510     -289.149       -3.448      220.691      170.209       92.401    48704.516    28971.050     8537.859       11.806        4.311      387.193       96.114        0.062      343.204       19.147      859.426
05/26/2013  15:15:00     -318.532     -191.964       -8.497      210.928      157.967       96.946    44490.605    24953.471     9398.440       10.860        3.942      371.904       99.487        0.072      343.387       19.458      859.387
05/26/2013  15:16:00     -405.235     -195.708       12.961      216.581      180.918       96.458    46907.142    32731.145     9304.098       14.580        4.447      450.019      110.144        0.060      343.430       19.531      859.384
05/26/2013  15:17:00     -381.162     -186.100        5.008      225.610      183.876       82.614    50899.817    33810.499     6825.020       13.572        4.577      424.167       93.076        0.048      343.068       18.916      859.375
05/26/2013  15:18:00     -386.543     -326.265        9.918      297.523      206.448      110.497    88519.938    42620.982    12209.665       19.963        7.168      505.830      126.373        0.062      343.112       18.991      859.393
05/26/2013  15:19:00     -380.400     -340.144      -20.252      216.674      172.817       91.084    46947.767    29865.602     8296.230       17.295        4.255      510.296      109.397        0.046      343.246       19.218      859.330
05/26/2013  15:20:00     -267.412     -148.754       12.874      209.690      140.276       74.166    43969.759    19677.368     5500.545        8.146        3.457      306.002       80.601        0.069      343.687       19.972      859.375
05/26/2013  15:21:00     -397.951     -168.766       12.512      250.290      249.069      109.017    62645.290    62035.575    11884.680       16.176        6.828      432.258      122.030        0.080      343.447       19.562      859.380
05/26/2013  15:22:00     -472.852     -319.907      -13.919      274.382      190.611      119.088    75285.255    36332.366    14181.855       22.594        6.290      570.902      129.332        0.051      343.344       19.386      859.374
05/26/2013  15:23:00     -417.670     -320.836      -17.495      270.666      182.490      114.562    73259.915    33302.695    13124.513       19.867        5.984      526.673      129.339        0.060      343.129       19.020      859.383
05/26/2013  15:24:00     -523.167     -316.888      -29.305      198.840      148.976       79.594    39537.480    22193.960     6335.180       22.151        3.403      611.655       88.474        0.021      343.008       18.815      859.424
05/26/2013  15:25:00     -403.351     -295.984      -16.407      259.271      198.121      100.269    67221.508    39252.042    10053.831       18.353        5.826      500.299       97.243        0.038      343.119       19.004      859.392
05/26/2013  15:26:00     -395.718     -405.280       -1.679      242.130      207.316      102.914    58627.029    42980.113    10591.266       21.650        5.610      566.432      102.745        0.033      343.133       19.027      859.387
05/26/2013  15:27:00     -260.675     -295.411       -3.643      172.209      181.857       86.820    29655.941    33072.063     7537.786       11.274        3.513      393.979       84.806        0.046      343.302       19.315      859.387
05/26/2013  15:28:00     -114.649     -156.199       21.745      162.243      149.528       85.069    26322.811    22358.701     7236.674        4.696        2.796      193.759       93.300        0.232      343.655       19.917      859.400
05/26/2013  15:29:00     -444.977     -281.108       -8.525      301.202      259.376      100.190    90722.552    67275.762    10038.126       22.254        8.402      526.333      129.133        0.060      343.402       19.485      859.408
05/26/2013  15:30:00     -468.240     -307.958       -7.378      251.676      241.364      126.478    63340.704    58256.703    15996.660       22.584        6.880      560.435      134.759        0.058      343.181       19.107      859.400
05/26/2013  15:31:00     -459.291     -328.221      -15.518      227.815      209.388       91.412    51899.847    43843.403     8356.173       21.149        5.205      564.515      106.988        0.036      343.039       18.867      859.379
05/26/2013  15:32:00     -373.904     -287.935      -13.292      198.412      192.349       99.481    39367.331    36998.060     9896.438       15.456        4.313      471.922       77.499        0.027      343.144       19.046      859.360
05/26/2013  15:33:00     -468.063     -400.114      -22.445      271.810      197.332      121.031    73880.759    38939.913    14648.471       25.355        6.373      615.771      134.705        0.048      343.069       18.917      859.365
05/26/2013  15:34:00     -420.508     -286.955        0.602      180.670      190.509       96.817    32641.548    36293.536     9373.579       16.873        3.915      509.087      100.038        0.039      343.055       18.892      859.349
05/26/2013  15:35:00     -272.497     -141.955      -11.728      161.643      171.638       85.631    26128.621    29459.618     7332.599        7.872        3.146      307.255       83.016        0.073      343.430       19.534      859.354
05/26/2013  15:36:00     -496.161     -417.211      -16.684      328.349      300.108      137.531   107812.829    90064.689    18914.641       31.862       10.840      648.260      156.040        0.058      343.199       19.139      859.349
05/26/2013  15:37:00     -466.557     -399.273       -8.903      249.380      222.891      112.689    62190.171    49680.312    12698.703       25.085        6.228      614.080      117.893        0.037      343.085       18.945      859.360
05/26/2013  15:38:00     -590.488     -399.314       -9.746      309.751      267.088      141.265    95945.946    71335.843    19955.843       34.770        9.362      712.831      153.993        0.047      343.016       18.829      859.317
05/26/2013  15:39:00     -381.234     -223.057       -6.066      276.086      155.633      103.406    76223.721    24221.764    10692.736       15.312        5.557      441.694      108.126        0.060      343.255       19.235      859.385
05/26/2013  15:40:00     -192.022     -265.639        3.131      160.762      167.784       72.940    25844.531    28151.349     5320.235        8.337        2.966      327.775       81.107        0.061      343.389       19.464      859.423
05/26/2013  15:41:00     -356.146     -320.151        3.524      269.174      171.451       92.824    72454.539    29395.458     8616.359       16.989        5.523      478.891      119.923        0.063      343.404       19.488      859.355
05/26/2013  15:42:00     -532.103     -330.288      -12.360      238.749      247.168      113.066    57001.055    61091.855    12783.875       26.160        6.544      626.277      126.646        0.041      343.471       19.601      859.309
05/26/2013  15:43:00     -371.789     -275.104        1.779      212.720      212.302      110.612    45249.895    45072.233    12235.082       15.822        5.128      462.503      113.198        0.060      343.370       19.431      859.364
05/26/2013  15:44:00     -334.160      -84.908       14.618      260.957      143.652       90.185    68098.296    20635.922     8133.413       10.796        4.843      344.779      115.621        0.112      343.556       19.747      859.376
05/26/2013  15:45:00     -314.549      -93.561        1.074      230.782      134.564       78.113    53260.431    18107.443     6101.599        9.257        3.873      328.169      100.806        0.094      343.540       19.721      859.404
05/26/2013  15:46:00     -376.022      -34.321      -18.510      215.278      120.243       75.186    46344.592    14458.414     5652.957       10.467        3.323      377.585       95.395        0.064      343.352       19.401      859.396
05/26/2013  15:47:00     -348.308     -147.716       15.012      261.927      221.211      118.610    68605.689    48934.197    14068.412       13.746        6.580      378.337      142.845        0.143      343.387       19.459      859.342
05/26/2013  15:48:00     -417.600     -130.135       13.334      234.461      207.062       98.099    54972.020    42874.677     9623.337       14.947        5.374      437.407      101.086        0.053      343.362       19.417      859.368
05/26/2013  15:49:00     -224.319     -207.504        4.872      153.976      229.555       86.220    23708.571    52695.324     7433.832        8.861        4.192      305.576       82.781        0.073      343.381       19.450      859.401
05/26/2013  15:50:00     -349.166     -264.876      -12.566      194.399      187.761       90.359    37791.057    35254.214     8164.711       13.671        4.060      438.266      105.962        0.058      343.251       19.228      859.374
05/26/2013  15:51:00     -404.828     -198.725       13.970      244.726      202.028      104.038    59890.586    40815.488    10823.894       15.753        5.576      450.974      113.101        0.063      343.188       19.121      859.290
05/26/2013  15:52:00     -469.952     -400.424       -4.139      321.222      240.858      125.243   103183.549    58012.530    15685.881       27.902        8.844      617.409      155.914        0.064      343.304       19.317      859.280
05/26/2013  15:53:00     -461.426     -358.549        2.739      213.059      208.974      120.672    45394.006    43670.130    14561.676       22.254        5.181      584.356      123.328        0.045      343.310       19.327      859.392
05/26/2013  15:54:00     -425.190     -344.258       -4.322      257.949      201.869      120.038    66537.541    40751.272    14409.194       21.049        6.085      547.083      143.830        0.069      343.117       19.000      859.366
05/26/2013  15:55:00     -330.415     -216.546        4.464      184.085      141.812       95.404    33887.396    20110.617     9101.878       10.958        3.155      395.052       91.474        0.054      343.475       19.608      859.362
05/26/2013  15:56:00     -484.815     -400.834      -26.074      253.110      201.096      119.639    64064.819    40439.722    14313.518       25.759        5.941      629.057      124.117        0.039      343.064       18.909      859.379
05/26/2013  15:57:00     -321.337     -311.027      -15.031      197.400      169.242       88.715    38966.650    28643.014     7870.263       13.784        3.774      447.208       96.628        0.047      343.095       18.962      859.408
05/26/2013  15:58:00     -332.993     -210.238        3.079      154.161      109.715       67.583    23765.668    12037.484     4567.400        9.773        2.019      393.807       53.157        0.018      343.246       19.219      859.403
05/26/2013  15:59:00     -291.472     -272.698      -12.074      173.060      179.093       92.340    29949.860    32074.186     8526.624       11.500        3.528      399.149       95.870        0.058      343.299       19.308      859.416
05/26/2013  16:00:00     -541.203     -150.794       -7.391      276.413      187.830       93.737    76404.356    35280.234     8786.688       21.806        6.024      561.818      105.733        0.035      343.150       19.057      859.360
05/26/2013  16:01:00     -204.485     -252.391       23.661      207.820      250.520       77.847    43189.074    62760.257     6060.167       10.902        5.600      324.831       77.592        0.057      343.084       18.943      859.385
05/26/2013  16:02:00     -273.349     -210.693       -5.428      218.108      189.898       85.908    47571.068    36061.250     7380.234       10.506        4.551      345.125      104.465        0.092      343.237       19.203      859.369
05/26/2013  16:03:00     -262.109     -294.598       -1.908      287.748      220.346       93.507    82798.776    48552.326     8743.477       14.777        7.005      394.321      113.371        0.083      343.086       18.946      859.304
05/26/2013  16:04:00     -325.164     -362.595      -15.112      254.422      270.405      101.792    64730.714    73118.923    10361.671       19.280        7.411      487.039      103.489        0.045      343.274       19.266      859.398
05/26/2013  16:05:00     -164.307     -177.463       12.338      181.757      129.949       71.463    33035.607    16886.702     5106.980        5.683        2.751      241.847       58.243        0.058      343.213       19.164      859.374
05/26/2013  16:06:00     -251.619     -169.910        0.820      206.017      192.689       91.818    42443.113    37128.870     8430.526        9.008        4.400      303.614       93.848        0.096      343.173       19.095      859.359
05/26/2013  16:07:00     -161.824      -84.231       -9.176      148.050       93.668       57.392    21918.771     8773.777     3293.804        3.367        1.699      182.433       56.877        0.097      343.109       18.988      859.312
05/26/2013  16:08:00     -374.076     -113.219       -3.700      214.485      150.935       88.422    46003.963    22781.413     7818.392       11.467        3.830      390.834       98.056        0.063      343.182       19.109      859.309
05/26/2013  16:09:00     -607.915     -266.428      -17.614      249.539      230.781      108.872    62269.668    53259.954    11853.218       28.410        6.369      663.736      114.007        0.030      342.885       18.604      859.320
05/26/2013  16:10:00     -331.202      -79.953       34.931      263.482      185.346      112.415    69422.658    34353.245    12637.226       11.684        5.821      340.716      126.411        0.138      343.269       19.258      859.324
05/26/2013  16:11:00     -521.501     -256.410       12.207      296.035      256.587      116.472    87636.618    65836.963    13565.755       25.242        8.352      581.128      125.341        0.047      343.144       19.045      859.337
05/26/2013  16:12:00     -520.943     -398.833      -11.169      271.890      205.543      128.830    73924.439    42247.912    16597.205       28.165        6.638      656.087      139.452        0.045      342.947       18.708      859.369
05/26/2013  16:13:00     -462.267     -245.581       -8.062      222.754      202.771      102.129    49619.169    41116.049    10430.249       18.760        5.058      523.451      117.077        0.050      343.038       18.864      859.386
05/26/2013  16:14:00     -473.998     -199.644        4.304      323.485      204.005      101.145   104642.633    41617.872    10230.221       21.049        7.825      514.327      133.044        0.067      343.022       18.838      859.406
05/26/2013  16:15:00     -209.525     -245.054        3.843      113.915      155.359       69.853    12976.728    24136.315     4879.509        7.297        2.100      322.417       59.387        0.034      343.243       19.214      859.410
05/26/2013  16:16:00     -221.266     -105.763        8.726      134.551      142.518       69.983    18103.957    20311.516     4897.613        5.176        2.166      245.243       65.932        0.072      343.362       19.417      859.343
05/26/2013  16:17:00     -474.300     -124.566      -24.261      187.601      125.205       71.517    35193.972    15676.328     5114.610       14.852        2.799      490.385       55.874        0.013      343.301       19.313      859.360
05/26/2013  16:18:00     -408.527     -307.365       -1.215      237.700      161.563      107.333    56501.510    26102.633    11520.304       17.773        4.706      511.241      107.192        0.044      343.199       19.139      859.362
05/26/2013  16:19:00     -567.442     -333.483      -19.631      289.225      214.033      122.760    83651.270    45810.208    15069.941       28.903        7.227      658.180      137.774        0.044      343.092       18.958      859.297
05/26/2013  16:20:00     -306.509     -218.718       12.087      260.026      159.663       85.989    67613.609    25492.142     7394.094       12.120        5.025      376.544      104.255        0.077      343.343       19.384      859.347
05/26/2013  16:21:00     -241.778     -169.715       21.745      196.982      137.353       82.078    38802.068    18865.796     6736.854        7.606        3.220      295.398       57.774        0.038      343.566       19.765      859.337
05/26/2013  16:22:00     -317.721     -210.741        4.123      249.918      159.993       81.182    62458.999    25597.872     6590.507       12.000        4.732      381.259      106.926        0.079      343.339       19.379      859.374
05/26/2013  16:23:00     -502.462     -307.738      -15.983      213.426      197.761      107.806    45550.798    39109.586    11622.213       22.184        4.814      589.212      118.523        0.040      342.942       18.702      859.340
05/26/2013  16:24:00     -479.232     -214.267       -7.730      202.997      159.886      106.057    41207.847    25563.505    11248.147       17.681        3.901      524.951      113.360        0.047      343.202       19.144      859.302
05/26/2013  16:25:00     -541.772     -269.530       -5.666      321.152      197.558      111.849   103138.344    39028.995    12510.192       26.041        7.734      605.114      130.701        0.047      343.160       19.073      859.292
05/26/2013  16:26:00     -396.513     -143.848       -2.354      254.960      212.005      112.910    65004.570    44946.099    12748.684       15.029        6.135      421.800       98.965        0.055      343.374       19.436      859.280
05/26/2013  16:27:00     -587.328     -343.002       -7.118      300.974      227.024      125.564    90585.565    51539.713    15766.294       31.025        7.895      680.151      122.115        0.032      343.147       19.050      859.236
05/26/2013  16:28:00     -379.990     -254.029       -0.082      259.242      238.660      105.245    67206.346    56958.400    11076.603       17.206        6.762      457.081      117.003        0.066      343.248       19.222      859.240
05/26/2013  16:29:00     -566.596     -376.575      -25.712      330.304      211.932      111.359   109100.812    44915.291    12400.800       31.493        8.321      680.323      146.499        0.046      342.978       18.763      859.256
05/26/2013  16:30:00     -260.119     -241.870        8.778      240.225      208.808       93.769    57707.908    43600.804     8792.616       11.815        5.505      355.194      111.423        0.098      343.156       19.065      859.308
05/26/2013  16:31:00     -388.182     -132.567       10.329      272.233      160.517      103.178    74110.890    25765.761    10645.796       13.943        5.526      410.194      122.332        0.089      343.251       19.229      859.299
05/26/2013  16:32:00     -569.072     -443.031        0.608      368.798      253.074      131.985   136012.246    64046.318    17420.106       36.876       10.874      721.193      166.964        0.054      342.810       18.478      859.324
05/26/2013  16:33:00     -584.075     -330.642      -18.403      309.278      269.590      102.080    95652.724    72678.825    10420.282       31.475        8.938      671.169      131.310        0.038      342.749       18.373      859.324
05/26/2013  16:34:00     -415.687     -281.036        2.474      184.764      168.596       93.038    34137.708    28424.492     8656.035       16.149        3.561      501.774       99.968        0.040      343.043       18.874      859.357
05/26/2013  16:35:00     -398.912     -375.438      -11.135      221.906      207.781      112.903    49242.444    43173.127    12747.137       20.267        5.258      547.799      102.891        0.035      343.073       18.924      859.369
05/26/2013  16:36:00     -453.160     -375.870      -30.920      193.770      195.652      101.109    37546.688    38279.641    10223.039       21.680        4.302      588.755      103.396        0.031      343.174       19.095      859.389
05/26/2013  16:37:00     -523.612     -187.303      -23.045      236.149      203.913      102.382    55766.175    41580.510    10482.035       20.879        5.391      556.104       98.172        0.031      343.033       18.856      859.423
05/26/2013  16:38:00     -430.276     -289.668      -14.863      238.933      205.588       98.712    57088.972    42266.363     9744.104       18.916        5.455      518.696       99.721        0.037      343.029       18.849      859.455
05/26/2013  16:39:00     -514.711     -346.275      -18.158      206.496      187.723      112.091    42640.692    35239.844    12564.294       23.779        4.522      620.350       99.005        0.025      342.620       18.153      859.485
05/26/2013  16:40:00     -355.135     -138.958       -1.662      175.691      149.273       79.915    30867.375    22282.500     6386.472       10.247        2.977      381.353       85.436        0.050      342.966       18.743      859.487
05/26/2013  16:41:00     -563.957     -237.168      -21.523      262.672      252.542      104.945    68996.612    63777.591    11013.556       25.925        7.189      611.797      113.580        0.034      342.844       18.534      859.507
05/26/2013  16:42:00     -542.769     -244.222       -7.758      245.061      254.980       98.892    60055.064    65014.998     9779.647       24.455        6.742      595.183       94.082        0.025      342.720       18.325      859.505
05/26/2013  16:43:00     -299.392      -97.381        3.816      197.487      140.546       78.569    39001.166    19753.067     6173.056        8.202        3.246      314.831       86.966        0.076      343.030       18.852      859.508
05/26/2013  16:44:00     -155.531     -326.699       -8.197      165.430      171.383       91.212    27367.155    29372.123     8319.647        9.801        3.253      361.832       72.229        0.040      343.136       19.031      859.545
05/26/2013  16:45:00     -152.574     -278.200        2.640      165.549      183.203       85.573    27406.412    33563.331     7322.750        8.448        3.415      317.292       68.871        0.047      343.186       19.115      859.546
05/26/2013  16:46:00     -197.904     -342.993       -9.952      146.898      274.668       77.289    21579.022    75442.442     5973.522       12.993        5.150      395.993       62.924        0.025      343.206       19.152      859.574
05/26/2013  16:47:00     -222.739     -272.171       11.342      210.033      238.418      101.967    44113.900    56842.919    10397.305       11.757        5.568      351.696      107.018        0.093      343.282       19.281      859.572
05/26/2013  16:48:00     -400.010     -151.980      -14.939      201.472      195.774       83.257    40590.795    38327.617     6931.730       13.458        4.293      427.908       98.719        0.053      342.940       18.698      859.629
05/26/2013  16:49:00     -383.760     -240.968      -11.951      203.317      134.362       90.565    41337.782    18053.214     8202.016       13.653        3.380      453.141       80.942        0.032      342.857       18.557      859.620
05/26/2013  16:50:00     -368.298     -112.980       -7.384      189.159      164.366       79.969    35781.197    27016.176     6395.018       10.882        3.460      385.238       85.838        0.050      342.890       18.614      859.629
05/26/2013  16:51:00     -131.971     -137.670        6.484      115.917       95.102       61.382    13436.705     9044.392     3767.730        3.133        1.312      190.707       66.015        0.120      343.128       19.018      859.688
05/26/2013  16:52:00     -283.333     -212.621       15.674      158.541      176.615       87.328    25135.184    31192.766     7626.112        9.483        3.198      354.239       77.937        0.048      342.941       18.701      859.660
05/26/2013  16:53:00     -193.748     -152.837       -6.527      184.538      150.580       67.848    34054.139    22674.348     4603.382        6.113        3.067      246.774       62.735        0.065      343.054       18.893      859.680
05/26/2013  16:54:00     -203.957       13.783        6.523      157.824      126.741       76.503    24908.461    16063.326     5852.750        4.432        2.341      204.422       69.228        0.115      343.121       19.007      859.644
05/26/2013  16:55:00     -380.505     -180.224      -28.726      143.997      132.453       71.455    20735.083    17543.822     5105.805       11.073        2.169      421.028       64.213        0.023      342.925       18.671      859.646
05/26/2013  16:56:00     -178.616     -126.506       11.656      169.250      150.456       78.401    28645.417    22637.136     6146.688        5.273        2.871      218.878       88.335        0.163      343.236       19.204      859.663
05/26/2013  16:57:00     -298.286     -204.844      -12.175      231.204      206.219       93.039    53455.280    42526.223     8656.304       11.784        5.232      361.850      120.309        0.111      342.941       18.700      859.632
05/26/2013  16:58:00     -272.828     -113.489       -4.249      135.269      153.919       76.305    18297.802    23690.942     5822.480        6.756        2.391      295.491       71.427        0.058      343.192       19.126      859.642
05/26/2013  16:59:00     -268.532     -267.031        7.817      190.540      184.501       92.403    36305.630    34040.694     8538.223       11.117        3.944      378.702       73.779        0.038      343.130       19.021      859.648
05/26/2013  17:00:00     -351.336     -219.258       17.990      249.977      166.738      108.464    62488.265    27801.543    11764.374       13.693        5.103      414.139      117.089        0.080      343.038       18.864      859.687
05/26/2013  17:01:00     -331.402     -228.918      -23.078      202.911      140.964       90.184    41172.879    19870.808     8133.168       11.596        3.459      402.779       89.133        0.049      343.021       18.837      859.729
05/26/2013  17:02:00     -321.416     -115.207        3.813      223.991      199.787       86.348    50172.159    39914.918     7456.057       10.705        4.877      341.440      102.762        0.091      342.922       18.669      859.682
05/26/2013  17:03:00     -519.588     -229.202      -13.459      260.949      176.706       96.234    68094.270    31224.887     9260.915       21.561        5.429      567.895      107.795        0.036      342.815       18.485      859.688
05/26/2013  17:04:00     -366.782     -198.059      -14.238      268.073      213.430       97.816    71863.017    45552.350     9567.920       15.045        6.349      416.841      131.795        0.100      342.882       18.600      859.662
05/26/2013  17:05:00     -241.606     -301.163       -1.835      210.129      224.304       83.015    44154.084    50312.078     6891.461       12.520        5.068      386.100       78.280        0.041      342.936       18.691      859.692
05/26/2013  17:06:00     -271.503     -242.300       -1.211      175.117      145.366       82.448    30665.848    21131.324     6797.677        9.550        2.930      363.899       70.591        0.038      343.022       18.838      859.679
05/26/2013  17:07:00     -375.897     -289.337        0.106      278.104      231.665      108.794    77342.057    53668.660    11836.088       18.391        7.142      474.357      127.739        0.073      342.919       18.664      859.699
05/26/2013  17:08:00     -594.089     -402.638       -3.714      317.289      215.503      105.672   100672.213    46441.566    11166.490       33.665        7.914      717.676      123.941        0.030      342.625       18.162      859.675
05/26/2013  17:09:00     -385.606     -357.214       -2.801      290.177      277.050      102.436    84202.629    76756.611    10493.082       22.385        8.573      525.637      120.629        0.053      342.807       18.473      859.683
05/26/2013  17:10:00     -366.444     -301.162      -13.573      243.715      226.755      107.781    59396.866    51417.826    11616.847       17.378        6.122      474.320      132.282        0.078      342.756       18.386      859.700
05/26/2013  17:11:00     -269.978     -102.980        1.511      136.546      133.911       81.114    18644.903    17932.247     6579.528        6.332        2.158      288.952       78.537        0.074      342.804       18.467      859.698
05/26/2013  17:12:00     -200.137     -368.160      -14.384      174.795      180.197       93.269    30553.251    32470.804     8699.155       12.375        3.586      419.043       99.218        0.056      342.839       18.526      859.726
05/26/2013  17:13:00     -194.958     -251.752       14.890      178.526      165.499       89.781    31871.666    27389.764     8060.615        8.445        3.366      318.414       91.341        0.082      342.937       18.693      859.706
05/26/2013  17:14:00     -350.600     -294.343        5.053      259.863      193.879      113.166    67529.014    37588.978    12806.649       16.373        5.896      457.775      139.135        0.092      342.751       18.377      859.662
05/26/2013  17:15:00     -624.889     -263.873      -20.860      322.603      263.675      117.198   104072.721    69524.261    13735.303       32.391        9.367      678.318      121.362        0.032      342.657       18.218      859.615
05/26/2013  17:16:00     -526.514     -374.637        2.012      287.717      188.207      124.848    82781.209    35421.783    15587.032       27.566        6.690      646.196      145.174        0.050      342.666       18.232      859.610
05/26/2013  17:17:00     -374.155     -391.038      -22.784      180.198      236.912      109.186    32471.261    56127.386    11921.656       19.695        5.026      541.205      100.403        0.034      342.797       18.454      859.652
05/26/2013  17:18:00     -359.619     -376.768      -20.520      200.570      252.117       98.465    40228.287    63562.952     9695.444       19.257        5.674      520.846      100.623        0.037      342.796       18.452      859.663
05/26/2013  17:19:00     -242.999     -223.669       20.731      200.398      237.980       94.459    40159.174    56634.490     8922.577       10.759        5.286      330.267      102.402        0.096      342.948       18.711      859.653
05/26/2013  17:20:00     -284.256     -165.023        3.375      240.316      147.473       82.443    57751.741    21748.211     6796.860        9.716        4.315      328.685       75.872        0.053      342.999       18.799      859.648
05/26/2013  17:21:00     -505.538     -278.223       -6.902      254.938      177.329      101.852    64993.260    31445.456    10373.772       21.990        5.341      577.041      108.677        0.035      342.782       18.430      859.667
05/26/2013  17:22:00     -540.789     -455.673      -30.698      211.839      208.804      120.091    44875.884    43599.032    14421.813       30.195        5.145      707.171      111.447        0.025      342.540       18.019      859.666
05/26/2013  17:23:00     -345.113     -211.155       23.170      232.213      212.694      102.341    53922.857    45238.829    10473.721       13.691        5.482      404.585      109.921        0.074      342.624       18.163      859.664
05/26/2013  17:24:00     -281.725     -171.056        8.826      245.595      156.849       85.095    60316.923    24601.523     7241.093       10.042        4.608      329.590      101.953        0.096      342.801       18.463      859.658
05/26/2013  17:25:00     -282.549     -256.467       -7.126      172.224      153.395       83.170    29661.256    23530.101     6917.315       10.287        3.005      381.588       83.522        0.048      342.952       18.717      859.728
05/26/2013  17:26:00     -359.716     -209.917      -12.837      231.535      173.475       82.697    53608.382    30093.507     6838.731       13.207        4.527      416.486      102.805        0.061      342.734       18.348      859.724
05/26/2013  17:27:00     -334.644     -218.761        8.074      185.930      145.429       92.882    34569.985    21149.521     8627.052       11.212        3.217      399.804      101.630        0.065      342.701       18.292      859.735
05/26/2013  17:28:00     -357.351     -212.130      -14.327      171.025      160.858       80.699    29249.563    25875.167     6512.408       11.726        3.082      415.570       72.708        0.031      342.748       18.372      859.752
05/26/2013  17:29:00     -182.826     -326.931        8.649      157.452      174.826       94.662    24791.154    30564.047     8960.844       10.234        3.216      374.579       95.702        0.065      342.800       18.459      859.723
05/26/2013  17:30:00     -350.918     -326.985      -20.280      196.254      168.307       93.271    38515.767    28327.166     8699.528       15.300        3.777      479.649       99.009        0.043      342.840       18.529      859.732
05/26/2013  17:31:00     -269.813     -243.164       10.341      210.954      126.319       83.558    44501.587    15956.453     6982.018        9.973        3.372      363.218       88.389        0.059      342.888       18.609      859.684
05/26/2013  17:32:00     -264.017     -254.670       17.047      244.575      193.513      107.067    59816.932    37447.120    11463.380       12.177        5.436      366.827      111.225        0.092      342.844       18.534      859.704
05/26/2013  17:33:00     -451.480     -248.947       -4.551      209.081      193.220       99.725    43714.694    37333.816     9945.051       17.840        4.550      515.566      107.922        0.044      342.787       18.438      859.698
05/26/2013  17:34:00     -192.474     -135.657        9.474      149.858      124.706       66.113    22457.564    15551.482     4370.949        4.895        2.119      235.476       74.091        0.099      342.885       18.604      859.751
05/26/2013  17:35:00     -269.550     -302.909      -12.727      172.899      150.554       76.906    29893.929    22666.461     5914.595       11.151        2.924      405.477       87.322        0.046      342.857       18.555      859.761
05/26/2013  17:36:00     -424.911     -255.039       -8.180      266.141      197.638      107.544    70830.952    39060.755    11565.744       18.354        6.073      495.575      104.739        0.045      342.904       18.636      859.764
05/26/2013  17:37:00     -471.780     -325.381        7.689      225.470      207.138      107.579    50836.625    42906.124    11573.184       21.689        5.266      573.105      118.662        0.043      342.668       18.237      859.791
05/26/2013  17:38:00     -496.566     -365.907       -8.061      247.465      196.122      119.047    61238.826    38464.021    14172.178       24.718        5.694      616.819      131.651        0.046      342.595       18.112      859.773
05/26/2013  17:39:00     -337.711     -191.417       -5.715      157.513      146.501       82.803    24810.383    21462.689     6856.387       10.192        2.656      388.187       85.018        0.048      342.674       18.246      859.802
05/26/2013  17:40:00     -298.167     -197.429      -26.370      168.787      157.023       71.149    28489.131    24656.088     5062.115        9.338        2.910      357.606       62.567        0.031      342.757       18.386      859.821
05/26/2013  17:41:00     -317.811     -222.913      -10.206      218.726      144.370       79.771    47840.893    20842.581     6363.374       11.291        3.752      388.193       98.483        0.064      342.554       18.042      859.792
05/26/2013  17:42:00     -263.605     -211.349       -6.245      166.937      138.411       76.244    27868.062    19157.667     5813.185        8.351        2.642      337.870       87.990        0.068      342.736       18.351      859.806
05/26/2013  17:43:00     -227.982     -101.371       -0.835       86.143       99.877       52.216     7420.540     9975.330     2726.492        4.118        1.006      249.503       46.118        0.034      342.965       18.740      859.801
05/26/2013  17:44:00     -240.789     -143.590       -9.183      127.778      113.914       64.972    16327.169    12976.414     4221.331        5.610        1.676      280.352       65.524        0.055      342.979       18.763      859.823
05/26/2013  17:45:00     -281.367     -160.578       -0.711      215.741      168.801       67.031    46544.134    28493.903     4493.174        9.223        3.977      323.964       86.481        0.071      343.033       18.857      859.829
05/26/2013  17:46:00     -307.450     -173.977       -3.556      151.730      137.613       81.388    23022.000    18937.211     6624.053        8.669        2.429      353.261       81.712        0.054      342.941       18.701      859.814
05/26/2013  17:47:00     -452.396     -379.141      -25.507      283.626      258.245      111.227    80443.779    66690.351    12371.364       25.426        7.975      590.263      139.259        0.056      342.730       18.340      859.811
05/26/2013  17:48:00     -332.426     -218.580        9.956      261.144      168.533       97.897    68196.229    28403.279     9583.768       13.227        5.309      397.850      127.121        0.102      342.599       18.119      859.811
05/26/2013  17:49:00     -369.934     -283.143       -2.793      202.722      144.801       96.618    41096.357    20967.330     9335.079       14.420        3.570      465.855      105.172        0.051      342.619       18.153      859.794
05/26/2013  17:50:00     -287.190     -249.843        1.727      180.563      154.311       74.221    32602.848    23811.882     5508.738       10.340        3.096      380.657       83.635        0.048      342.646       18.199      859.799
05/26/2013  17:51:00     -415.103     -282.753      -18.425      219.521      182.558       98.503    48189.308    33327.550     9702.845       17.189        4.561      502.255      106.916        0.045      342.632       18.174      859.798
05/26/2013  17:52:00     -381.985     -261.564       -5.129      235.516      173.195       99.884    55467.588    29996.597     9976.785       15.488        4.772      462.956      113.080        0.060      342.649       18.204      859.805
05/26/2013  17:53:00     -285.791     -177.268       -0.983      167.259      143.305       85.147    27975.439    20536.264     7250.069        8.442        2.788      336.304       88.166        0.069      342.736       18.352      859.820
05/26/2013  17:54:00     -429.748     -266.199       -0.920      233.834      188.852      107.347    54678.422    35664.921    11523.354       17.869        5.093      505.515      113.398        0.050      342.651       18.206      859.844
05/26/2013  17:55:00     -514.452     -345.599      -11.538      250.606      207.896      103.968    62803.306    43220.694    10809.347       25.051        5.842      619.758      114.699        0.034      342.580       18.085      859.838
05/26/2013  17:56:00     -576.407     -393.522      -19.610      282.706      219.343      110.052    79922.410    48111.383    12111.541       31.379        7.007      697.929      133.772        0.037      342.443       17.853      859.849
05/26/2013  17:57:00     -574.659     -325.239        3.009      312.202      200.957      118.402    97469.876    40383.637    14018.932       29.392        7.594      660.313      141.493        0.046      342.421       17.814      859.864
05/26/2013  17:58:00     -629.230     -323.836      -22.615      224.975      185.662      102.677    50613.857    34470.243    10542.604       29.845        4.781      707.672       94.502        0.018      342.287       17.586      859.865
05/26/2013  17:59:00     -398.342     -308.766      -28.395      248.223      223.554      100.070    61614.541    49976.190    10014.061       18.819        6.080      503.997      110.483        0.048      342.452       17.869      859.879
05/26/2013  18:00:00     -377.246     -149.943        4.927      268.297      155.240       98.384    71983.488    24099.535     9679.431       13.527        5.288      405.953      108.170        0.071      342.554       18.041      859.862
05/26/2013  18:01:00     -287.424     -164.352        6.048      166.019      130.618       85.720    27562.301    17061.184     7347.889        8.081        2.599      331.096       85.018        0.066      342.567       18.064      859.855
05/26/2013  18:02:00     -360.691     -340.675       -9.816      209.668      210.988       92.891    43960.470    44515.965     8628.759       17.166        4.855      496.142       89.020        0.032      342.463       17.888      859.844
05/26/2013  18:03:00     -460.063     -273.456       -3.121      239.974      214.411       96.683    57587.626    45972.128     9347.621       19.966        5.645      535.198      119.653        0.050      342.428       17.827      859.838
05/26/2013  18:04:00     -394.402     -175.071       -3.777      218.643      188.840       86.051    47804.877    35660.706     7404.727       13.853        4.544      431.512       88.609        0.042      342.451       17.867      859.841
05/26/2013  18:05:00     -483.938     -285.839      -11.809      276.495      205.164       99.711    76449.681    42092.277     9942.217       22.224        6.424      562.050      111.488        0.039      342.480       17.916      859.802
05/26/2013  18:06:00     -588.078     -320.369      -12.196      329.409      211.315      114.508   108510.466    44653.856    13111.980       30.742        8.314      669.680      142.721        0.045      342.498       17.948      859.813
05/26/2013  18:07:00     -262.141     -221.490       24.145      273.195      222.018      106.946    74635.596    49292.150    11437.420       12.684        6.768      343.184      138.444        0.163      342.568       18.067      859.872
05/26/2013  18:08:00     -580.229     -315.818      -36.694      263.426      181.703      112.102    69393.399    33015.888    12566.880       27.635        5.749      660.611      125.650        0.036      342.298       17.607      859.881
05/26/2013  18:09:00     -387.507      -63.460        6.232      228.697      128.258       95.398    52302.515    16450.151     9100.768       11.603        3.893      392.669      114.079        0.084      342.363       17.717      859.866
05/26/2013  18:10:00     -321.888     -175.887        3.720      178.199      171.165       87.029    31754.986    29297.354     7574.062       10.158        3.431      366.808       98.715        0.072      342.452       17.868      859.906
05/26/2013  18:11:00     -420.537     -390.712       -7.168      208.619      215.299      128.763    43521.853    46353.657    16580.036       21.799        5.323      574.027      128.674        0.050      342.392       17.766      859.891
05/26/2013  18:12:00     -399.139     -237.012        1.294      200.161      228.154      107.072    40064.619    52054.044    11464.327       15.952        5.179      464.206      110.294        0.056      342.434       17.838      859.894
05/26/2013  18:13:00     -443.472     -443.081       -4.065      256.970      222.572      105.876    66033.629    49538.097    11209.725       25.987        6.339      626.888      120.420        0.037      342.361       17.714      859.908
05/26/2013  18:14:00     -443.006     -260.635      -10.479      210.508      165.733       90.390    44313.625    27467.436     8170.400       17.211        3.998      513.989       94.139        0.034      342.421       17.816      859.889
05/26/2013  18:15:00     -348.435     -311.456      -11.710      252.674      175.383      104.766    63844.360    30759.139    10976.002       16.205        5.279      467.346      132.457        0.080      342.460       17.883      859.880
05/26/2013  18:16:00     -514.171     -357.259      -10.486      298.325      209.152      154.546    88997.721    43744.475    23884.336       27.434        7.831      626.103      171.270        0.075      342.388       17.759      859.888
05/26/2013  18:17:00     -655.502     -443.347      -15.465      323.335      261.279      134.143   104545.551    68266.567    17994.456       40.861        9.540      791.353      170.479        0.046      342.262       17.545      859.869
05/26/2013  18:18:00     -415.919     -349.687        1.624      307.769      238.217      122.729    94721.741    56747.310    15062.304       23.087        8.327      543.387      147.385        0.074      342.334       17.668      859.879
05/26/2013  18:19:00     -361.768     -242.528        8.184      229.359      199.043      102.320    52605.424    39618.201    10469.438       14.621        5.135      435.541      119.307        0.075      342.345       17.687      859.935
05/26/2013  18:20:00     -483.068     -219.132      -18.339      199.754      153.517       80.650    39901.762    23567.337     6504.401       17.583        3.499      530.446       83.012        0.024      342.411       17.799      859.923
05/26/2013  18:21:00     -330.406     -266.011        2.076      202.766      189.030       94.074    41113.961    35732.477     8849.853       13.280        4.285      424.181      100.472        0.056      342.426       17.824      859.954
05/26/2013  18:22:00     -515.944     -314.491      -16.101      229.167      210.059       98.349    52517.730    44124.621     9672.582       23.582        5.316      604.238      110.175        0.033      342.339       17.677      859.937
05/26/2013  18:23:00     -433.278     -289.602        9.808      298.118      201.729      128.107    88874.203    40694.716    16411.514       20.881        7.299      521.152      141.952        0.074      342.332       17.664      859.902
05/26/2013  18:24:00     -531.567     -222.797      -11.006      236.869      225.125      115.889    56106.968    50681.390    13430.197       22.625        6.011      576.369      126.339        0.048      342.327       17.656      859.942
05/26/2013  18:25:00     -584.078     -413.366      -12.427      292.701      246.824      129.204    85673.598    60922.234    16693.784       33.770        8.164      715.555      144.360        0.041      342.248       17.522      859.925
05/26/2013  18:26:00     -513.765     -281.826      -12.140      284.114      198.279      110.334    80720.630    39314.401    12173.680       23.785        6.610      585.987      139.398        0.057      342.203       17.445      859.915
05/26/2013  18:27:00     -542.562     -338.886       -3.374      290.133      216.299      126.915    84177.166    46785.285    16107.441       27.812        7.353      639.701      146.056        0.052      342.217       17.470      859.910
05/26/2013  18:28:00     -627.115     -413.340      -15.585      264.653      268.506      114.087    70041.227    72095.431    13015.853       35.973        7.758      751.081      112.791        0.023      342.205       17.448      859.908
05/26/2013  18:29:00     -484.157     -286.390      -20.778      284.108      227.902      111.304    80717.157    51939.198    12388.679       23.093        7.252      562.519      139.793        0.062      342.274       17.566      859.908
05/26/2013  18:30:00     -353.178     -239.099        8.309      187.959      177.863       96.998    35328.604    31635.267     9408.617       12.916        3.819      426.501       99.271        0.054      342.355       17.704      859.909
05/26/2013  18:31:00     -365.435     -310.650        6.811      226.745      218.850      102.687    51413.221    47895.183    10544.670       16.995        5.493      479.631       92.995        0.038      342.325       17.652      859.907
05/26/2013  18:32:00     -392.235     -255.352       -6.187      205.827      183.591       99.994    42364.571    33705.732     9998.707       15.257        4.303      468.031      104.253        0.050      342.361       17.715      859.909
05/26/2013  18:33:00     -391.788     -282.885       -7.038      197.349      177.320       94.365    38946.520    31442.253     8904.719       15.642        3.965      483.241       91.903        0.036      342.379       17.744      859.928
05/26/2013  18:34:00     -471.572     -272.772        5.581      282.662      270.192      124.457    79897.580    73003.700    15489.468       23.258        8.420      544.780      125.501        0.053      342.297       17.605      859.890
05/26/2013  18:35:00     -543.592     -402.955      -13.538      273.316      221.922      121.331    74701.751    49249.308    14721.276       29.834        6.934      676.657      130.877        0.037      342.193       17.427      859.872
05/26/2013  18:36:00     -500.406     -350.430      -19.178      266.489      267.330      122.434    71016.293    71465.459    14990.173       26.550        7.874      610.907      145.128        0.056      342.192       17.427      859.882
05/26/2013  18:37:00     -452.734     -315.192       18.258      266.087      197.589      112.682    70802.071    39041.452    12697.324       21.357        6.127      551.647      133.348        0.058      342.246       17.518      859.892
05/26/2013  18:38:00     -468.005     -284.609        5.079      297.237      185.563      118.487    88349.540    34433.561    14039.232       21.842        6.841      547.751      142.066        0.067      342.160       17.373      859.934
05/26/2013  18:39:00     -547.750     -256.366      -15.432      270.804      183.939      123.637    73334.599    33833.515    15286.077       24.420        6.123      604.775      139.928        0.054      342.172       17.393      859.909
05/26/2013  18:40:00     -435.025     -282.155        7.011      248.458      160.398      109.537    61731.467    25727.517    11998.284       18.417        4.973      518.516      104.510        0.041      342.158       17.370      859.925
05/26/2013  18:41:00     -401.391     -273.513       -1.480      253.384      220.364       88.174    64203.610    48560.181     7774.741       17.821        6.027      485.720       96.810        0.040      342.254       17.531      859.938
05/26/2013  18:42:00     -542.528     -257.878      -10.307      253.475      239.084      104.627    64249.406    57161.302    10946.851       24.663        6.618      600.698       98.467        0.027      342.120       17.304      859.948
05/26/2013  18:43:00     -320.208     -135.819       10.055      236.247      172.293       93.409    55812.743    29684.855     8725.240       10.764        4.711      347.822      106.350        0.093      342.229       17.490      859.976
05/26/2013  18:44:00     -475.058     -282.231        1.319      302.031      193.034      109.545    91222.798    37262.063    12000.147       22.289        7.024      552.571      125.193        0.051      342.182       17.410      859.980
05/26/2013  18:45:00     -338.525     -300.598        5.152      273.854      249.748      126.931    74996.015    62373.831    16111.421       17.921        7.674      452.723      156.293        0.119      342.176       17.399      859.983
05/26/2013  18:46:00     -196.419      -98.497       16.014      171.483      165.335       83.688    29406.261    27335.549     7003.670        5.613        3.187      219.732       68.012        0.096      342.313       17.632      860.020
05/26/2013  18:47:00     -310.636     -228.806        4.889      200.502      149.781       97.259    40201.246    22434.420     9459.384       11.047        3.605      385.807      109.087        0.080      342.260       17.543      860.029
05/26/2013  18:48:00     -284.915     -200.399        0.999      165.013      144.864       79.168    27229.211    20985.706     6267.521        8.790        2.724      348.334       86.409        0.062      342.299       17.609      860.071
05/26/2013  18:49:00     -331.088     -236.679      -16.720      203.460      179.285       96.176    41395.880    32142.950     9249.783       12.434        4.139      406.984      114.030        0.079      342.274       17.566      860.072
05/26/2013  18:50:00     -341.317     -160.391       -9.398      163.892      145.172       94.591    26860.657    21074.924     8947.449        9.959        2.844      377.124       82.323        0.048      342.288       17.590      860.096
05/26/2013  18:51:00     -346.744     -255.259       13.196      227.748      186.432      104.183    51869.110    34756.875    10854.050       14.150        4.874      430.568      126.356        0.086      342.203       17.444      860.091
05/26/2013  18:52:00     -618.839     -221.164      -16.703      256.274      188.266      105.568    65676.271    35444.166    11144.602       27.219        5.613      657.172      126.282        0.037      342.040       17.169      860.094
05/26/2013  18:53:00     -344.065     -172.070        9.691      291.062      160.392       99.388    84717.180    25725.710     9877.928       13.418        6.016      384.693      121.039        0.099      342.146       17.348      860.105
05/26/2013  18:54:00     -444.669     -341.467      -17.359      248.502      218.517      114.268    61753.095    47749.574    13057.155       21.858        6.128      560.652      127.661        0.052      341.977       17.061      860.090
05/26/2013  18:55:00     -453.000     -364.837       -0.169      295.943      233.223      121.044    87582.269    54393.191    14651.551       24.744        7.831      581.648      148.518        0.065      341.987       17.079      860.093
05/26/2013  18:56:00     -193.187     -167.997       22.830      190.751      197.273       94.411    36385.845    38916.805     8913.530        7.513        4.211      256.016       99.273        0.150      342.150       17.355      860.099
05/26/2013  18:57:00     -355.336     -153.288       -5.940      191.759      129.580       73.378    36771.384    16790.861     5384.310       10.436        2.947      386.990       83.651        0.047      342.134       17.327      860.092
05/26/2013  18:58:00     -437.757     -289.342        0.092      296.499      229.354      130.093    87911.858    52603.362    16924.318       21.637        7.872      524.738      156.352        0.089      342.059       17.200      860.104
05/26/2013  18:59:00     -309.590     -145.591       -5.389      173.702      178.474       71.608    30172.425    31853.053     5127.664        9.210        3.358      342.116       64.617        0.036      342.069       17.217      860.112
05/26/2013  19:00:00     -521.503     -213.434      -10.801      225.234      218.481      103.553    50730.165    47733.892    10723.300       21.339        5.459      563.488       92.334        0.027      342.015       17.126      860.075
05/26/2013  19:01:00     -316.832     -174.455        4.224      217.602      160.076       92.894    47350.690    25624.361     8629.284       10.621        4.080      361.686      104.552        0.084      342.053       17.189      860.126
05/26/2013  19:02:00     -442.393     -343.428       -7.265      221.515      142.742      117.002    49068.984    20375.260    13689.503       19.841        4.157      560.049      107.519        0.037      342.028       17.147      860.099
05/26/2013  19:03:00     -444.945     -286.440      -11.876      255.298      212.691      107.638    65177.150    45237.598    11585.939       20.106        6.100      529.173      132.801        0.063      342.044       17.174      860.143
05/26/2013  19:04:00     -596.598     -353.165      -52.828      270.211      191.394      118.057    73013.741    36631.520    13937.415       30.349        6.179      693.293      142.370        0.042      341.905       16.939      860.140
05/26/2013  19:05:00     -466.457     -227.581      -17.002      280.759      194.917       99.032    78825.564    37992.598     9807.410       19.812        6.331      519.014      115.789        0.050      341.952       17.019      860.147
05/26/2013  19:06:00     -607.693     -254.285      -33.661      177.110      201.342       90.648    31368.068    40538.598     8217.095       25.759        4.006      658.750      104.350        0.025      341.914       16.955      860.152
05/26/2013  19:07:00     -491.703     -129.919      -10.053      262.430      205.420       95.989    68869.417    42197.292     9213.809       18.950        6.014      508.577       93.167        0.034      341.950       17.015      860.165
05/26/2013  19:08:00     -450.166     -291.034      -11.494      241.048      219.055      107.170    58103.944    47985.047    11485.512       20.251        5.879      536.051      101.808        0.036      341.948       17.011      860.211
05/26/2013  19:09:00     -578.693     -453.417      -15.091      274.424      220.015      141.041    75308.311    48406.622    19892.600       34.213        7.180      735.168      156.742        0.045      341.855       16.853      860.189
05/26/2013  19:10:00     -452.104     -152.462       -3.637      246.617      154.268      104.242    60819.823    23798.491    10866.419       16.155        4.774      477.119      122.411        0.066      341.897       16.924      860.241
05/26/2013  19:11:00     -375.937     -277.426      -10.400      211.252      149.867       86.354    44627.380    22460.062     7457.082       14.646        3.727      467.219       96.979        0.043      341.918       16.962      860.264
05/26/2013  19:12:00     -431.644     -308.149      -19.076      231.658      239.340      106.047    53665.608    57283.752    11246.006       20.190        6.110      530.351      117.570        0.049      341.828       16.808      860.253
05/26/2013  19:13:00     -588.274     -241.969      -35.856      235.864      216.858      112.728    55631.616    47027.402    12707.512       26.061        5.768      636.094      116.363        0.033      341.797       16.755      860.275
05/26/2013  19:14:00     -402.977     -212.057       -3.049      242.559      150.755       85.944    58835.037    22727.043     7386.447       14.814        4.447      455.366      100.728        0.049      341.828       16.808      860.299
05/26/2013  19:15:00     -501.008     -250.534      -12.712      268.023      184.692      101.192    71836.339    34111.281    10239.828       21.504        5.809      560.158      102.503        0.033      341.772       16.712      860.284
05/26/2013  19:16:00     -485.285     -233.311        6.663      278.411      202.178      116.986    77512.424    40875.999    13685.695       21.100        6.604      538.456      137.839        0.066      341.764       16.699      860.300
05/26/2013  19:17:00     -343.787     -212.191      -10.845      223.491      265.743      109.567    49948.123    70619.085    12005.004       14.793        6.629      403.998      116.215        0.083      341.795       16.752      860.329
05/26/2013  19:18:00     -392.998     -198.324      -13.620      182.394      183.935       80.782    33267.509    33832.242     6525.769       13.378        3.681      440.204       84.659        0.037      341.800       16.759      860.352
05/26/2013  19:19:00     -297.420     -127.666        2.427      237.473      150.919       87.304    56393.303    22776.665     7622.060        9.576        4.340      323.663       96.600        0.089      341.811       16.779      860.357
05/26/2013  19:20:00     -445.150     -236.139       -5.085      242.426      230.318       97.863    58770.537    53046.353     9577.141       18.765        6.070      503.905      118.655        0.055      341.726       16.637      860.360
05/26/2013  19:21:00     -469.873     -354.253      -21.930      228.477      193.079      105.089    52201.945    37279.309    11043.752       22.362        5.026      588.452      108.630        0.034      341.721       16.625      860.364
05/26/2013  19:22:00     -339.227     -244.622        2.836      192.717      184.588       98.728    37139.861    34072.575     9747.198       12.793        4.048      418.229      102.786        0.060      341.703       16.598      860.357
05/26/2013  19:23:00     -347.205     -191.394        0.614      197.868      135.173       88.748    39151.826    18271.793     7876.220       11.123        3.265      396.463       88.103        0.049      341.686       16.568      860.364
05/26/2013  19:24:00     -388.272     -254.806       -9.401      183.534      151.070      101.860    33684.662    22822.233    10375.425       14.131        3.344      464.415      105.595        0.052      341.698       16.587      860.394
05/26/2013  19:25:00     -331.547     -241.613       -3.099      212.992      229.127       86.692    45365.397    52498.983     7515.506       13.683        5.269      410.244      110.793        0.073      341.735       16.649      860.408
05/26/2013  19:26:00     -348.467     -239.722       -4.096      285.684      189.737      104.555    81615.148    36000.199    10931.809       15.371        6.427      422.961      131.749        0.097      341.661       16.525      860.392
05/26/2013  19:27:00     -224.653      -89.797        1.992      156.412      126.802       79.879    24464.679    16078.639     6380.719        5.272        2.346      241.935       73.491        0.092      341.757       16.688      860.427
05/26/2013  19:28:00     -224.597      -85.466        8.435      164.249      151.512       81.729    26977.777    22955.774     6679.566        5.721        2.831      240.309       89.897        0.140      341.770       16.711      860.450
05/26/2013  19:29:00     -372.022     -257.749      -27.241      305.886      234.758      114.944    93566.397    55111.236    13212.079       18.371        8.094      452.587      136.710        0.091      341.691       16.577      860.439
05/26/2013  19:30:00     -418.005     -245.341      -11.313      258.743      160.795       99.111    66948.125    25855.061     9822.917       16.882        5.131      484.686      113.127        0.054      341.669       16.539      860.460
05/26/2013  19:31:00     -400.380     -306.408       -5.380      239.310      220.245      115.570    57269.166    48507.806    13356.519       18.666        5.957      504.173      132.753        0.069      341.632       16.477      860.493
05/26/2013  19:32:00     -437.343     -245.847      -13.001      200.361      179.560      105.179    40144.407    32241.869    11062.659       16.765        4.172      501.707      109.990        0.048      341.611       16.441      860.495
05/26/2013  19:33:00     -400.744     -251.138      -14.474      164.086      150.075       86.332    26924.236    22522.651     7453.235       14.038        2.845      472.933       80.340        0.029      341.642       16.494      860.515
05/26/2013  19:34:00     -369.085     -189.260        3.619      231.010      138.352       91.441    53365.746    19141.256     8361.500       12.645        4.043      414.781       95.595        0.053      341.651       16.507      860.548
05/26/2013  19:35:00     -396.764     -262.857       -0.615      226.462      159.819       92.173    51284.854    25541.968     8495.941       15.590        4.266      475.936      101.629        0.046      341.629       16.471      860.539
05/26/2013  19:36:00     -194.545     -172.830       16.654      214.069      167.641       86.945    45825.579    28103.516     7559.457        7.473        4.074      260.227      106.458        0.167      341.692       16.579      860.527
05/26/2013  19:37:00     -419.130     -154.692      -17.863      220.026      155.680       79.193    48411.384    24236.361     6271.572       13.941        3.946      446.765       92.532        0.043      341.607       16.434      860.515
05/26/2013  19:38:00     -453.796     -153.671      -31.510      142.314      180.720       78.506    20253.414    32659.848     6163.164       14.480        2.954      479.109       77.544        0.026      341.608       16.436      860.525
05/26/2013  19:39:00     -401.413      -38.682      -16.974      174.771      126.513       73.623    30545.040    16005.487     5420.285       10.744        2.599      403.273       83.651        0.043      341.609       16.437      860.589
05/26/2013  19:40:00     -319.901      -30.772      -13.370      116.628      126.399       54.927    13602.165    15976.639     3016.947        6.802        1.630      321.377       41.530        0.017      341.619       16.453      860.616
05/26/2013  19:41:00     -323.056     -182.059        2.209      204.379      172.712      111.562    41770.955    29829.295    12446.095       11.077        4.202      370.824       98.313        0.070      341.561       16.355      860.643
05/26/2013  19:42:00     -347.683      -69.180       13.133      282.509      163.453       97.828    79811.104    26716.802     9570.303       12.095        5.805      354.499      136.479        0.148      341.520       16.286      860.655
05/26/2013  19:43:00     -260.146      -97.710       -2.140      209.304      177.264       85.635    43808.344    31422.390     7333.275        7.988        4.128      277.891       93.859        0.114      341.517       16.282      860.697
05/26/2013  19:44:00     -346.624     -257.380        2.402      256.490      172.225      114.345    65787.315    29661.450    13074.819       14.744        5.426      431.732      111.857        0.067      341.467       16.196      860.712
05/26/2013  19:45:00     -367.181      -92.925        0.623      210.542      174.748       90.979    44327.910    30537.011     8277.254       11.329        4.157      378.757      100.928        0.071      341.466       16.193      860.731
05/26/2013  19:46:00     -355.428     -146.502        1.940      212.686      198.708       96.932    45235.302    39484.985     9395.817       12.094        4.706      384.437      107.587        0.078      341.445       16.159      860.745
05/26/2013  19:47:00     -326.971     -119.713       -0.368      157.505      165.772       82.146    24807.750    27480.483     6748.019        9.013        2.952      348.197       72.234        0.043      341.435       16.144      860.763
05/26/2013  19:48:00     -262.192      -19.117        4.342      198.103      108.993       71.846    39244.831    11879.390     5161.801        6.270        2.814      262.888       82.163        0.098      341.466       16.195      860.810
05/26/2013  19:49:00     -206.646      -67.056        4.688      129.221      111.781       71.076    16697.967    12494.960     5051.837        4.073        1.712      217.253       71.890        0.109      341.446       16.162      860.835
05/26/2013  19:50:00     -220.477     -111.853       -5.800      134.640      126.463       60.227    18127.904    15992.973     3627.278        4.945        1.887      247.227       63.279        0.066      341.444       16.156      860.852
05/26/2013  19:51:00     -426.681     -248.053      -10.529      246.044      170.999       91.565    60537.889    29240.600     8384.123       17.091        4.908      493.545      106.230        0.046      341.371       16.035      860.835
05/26/2013  19:52:00     -194.046      -55.787       22.714      153.127      130.730       76.895    23447.794    17090.405     5912.888        4.386        2.323      201.906       77.914        0.149      341.404       16.090      860.832
05/26/2013  19:53:00     -142.916      -81.420       20.997      118.601      106.471       73.529    14066.094    11336.122     5406.578        2.915        1.540      164.481       72.892        0.196      341.403       16.090      860.850
05/26/2013  19:54:00     -143.799      -75.170       13.178      129.978      124.466       71.932    16894.151    15491.744     5174.226        3.202        1.878      162.261       70.505        0.189      341.440       16.152      860.849
05/26/2013  19:55:00     -417.519     -276.255      -13.508      228.342      162.600      108.589    52140.237    26438.736    11791.544       17.058        4.519      500.638      106.976        0.046      341.325       15.955      860.808
05/26/2013  19:56:00     -442.727     -208.486      -10.950      197.148      167.957       93.448    38867.468    28209.430     8732.488       15.769        3.790      489.361       94.253        0.037      341.300       15.914      860.814
05/26/2013  19:57:00     -298.007     -172.725       -4.330      210.818      158.772       91.824    44444.342    25208.498     8431.581        9.836        3.904      344.445      110.466        0.103      341.308       15.928      860.834
05/26/2013  19:58:00     -248.124     -189.097        5.064      229.434      202.363       94.951    52640.183    40950.645     9015.688        9.996        5.130      311.967      113.310        0.132      341.282       15.885      860.835
05/26/2013  19:59:00     -270.173     -184.789       -2.500      201.666      141.470       91.195    40669.060    20013.785     8316.562        8.806        3.450      327.323       97.377        0.089      341.267       15.859      860.834
05/26/2013  20:00:00     -275.716     -137.104       -5.189      161.829      140.634       66.536    26188.497    19777.793     4427.011        7.261        2.520      307.923       66.810        0.047      341.285       15.887      860.845
05/26/2013  20:01:00     -145.149     -141.141       14.677      141.223      105.328       84.407    19943.801    11093.986     7124.536        3.968        1.908      202.457       94.324        0.217      341.284       15.888      860.870
05/26/2013  20:02:00     -215.610      -45.881        6.331      151.332      105.584       63.388    22901.373    11147.955     4018.075        4.334        1.903      220.437       55.037        0.062      341.261       15.849      860.883
05/26/2013  20:03:00     -322.086     -207.511      -17.184      229.698      163.625       91.709    52761.077    26773.267     8410.601       11.751        4.397      383.145       98.722        0.066      341.228       15.792      860.881
05/26/2013  20:04:00     -317.086     -154.501       -5.333      229.485      163.546       91.057    52663.496    26747.419     8291.446       10.606        4.385      352.724      112.737        0.102      341.235       15.803      860.901
05/26/2013  20:05:00     -197.084     -167.243      -10.204      156.393      108.009       65.627    24458.804    11665.849     4306.931        5.367        2.022      258.481       82.147        0.101      341.223       15.785      860.935
05/26/2013  20:06:00     -282.549     -168.633      -19.880      148.600      125.371       67.157    22082.098    15717.877     4510.100        7.548        2.116      329.046       63.202        0.037      341.203       15.750      860.956
05/26/2013  20:07:00     -327.977     -131.487      -26.668      186.237      167.734       78.463    34684.248    28134.549     6156.436        9.726        3.449      353.352       79.332        0.050      341.177       15.706      860.972
05/26/2013  20:08:00     -204.190      -99.775       -3.915      115.921      111.121       47.812    13437.674    12347.911     2285.964        3.986        1.404      227.263       53.846        0.056      341.194       15.735      861.017
05/26/2013  20:09:00     -123.501      -86.510       16.651      133.578       98.611       62.632    17843.024     9724.183     3922.817        2.725        1.575      150.786       63.571        0.178      341.184       15.719      861.048
05/26/2013  20:10:00     -349.459      -34.068      -41.761      147.689       67.114       47.604    21812.086     4504.261     2266.098        7.680        1.429      351.116       63.756        0.033      341.175       15.701      861.086
05/26/2013  20:11:00     -130.725      -35.833       12.418      103.222      128.881       70.594    10654.752    16610.399     4983.550        2.538        1.612      135.548       71.952        0.282      341.110       15.595      861.107
05/26/2013  20:12:00     -108.458      -25.165        1.168      119.787       82.017       42.098    14348.978     6726.789     1772.231        1.762        1.142      111.339       47.259        0.180      341.143       15.652      861.116
05/26/2013  20:13:00     -211.014     -107.765        1.220      145.599      163.875       67.877    21198.986    26854.939     4607.346        5.439        2.633      236.939       77.743        0.108      341.112       15.595      861.137
05/26/2013  20:14:00     -242.540      -99.062        3.709      199.318      108.869       66.483    39727.743    11852.519     4419.955        6.232        2.800      261.990       84.511        0.104      341.118       15.606      861.133
05/26/2013  20:15:00     -185.679      -33.799        9.540      116.378       87.175       58.932    13543.914     7599.460     3472.925        3.016        1.231      188.730       56.831        0.091      341.088       15.557      861.182
05/26/2013  20:16:00     -332.048      -38.315      -13.366      149.021      110.190       68.829    22207.308    12141.805     4737.464        7.549        1.954      334.251       72.709        0.047      341.047       15.487      861.199
05/26/2013  20:17:00     -194.279      -41.514       11.204      188.573      147.662       67.267    35559.941    21803.964     4524.833        5.073        3.094      198.665       64.844        0.107      341.056       15.503      861.250
05/26/2013  20:18:00     -124.928      -18.706       -2.844       65.412       58.062       35.957     4278.702     3371.148     1292.881        1.245        0.447      126.321       27.698        0.048      341.060       15.512      861.295
05/26/2013  20:19:00     -132.070     -105.546       -5.989       86.963       73.506       42.338     7562.599     5403.070     1792.484        2.169        0.738      169.063       47.590        0.079      341.062       15.512      861.311
05/26/2013  20:20:00     -186.304      -97.749        0.588      152.799       92.439       54.884    23347.684     8544.958     3012.246        3.958        1.745      210.390       70.703        0.113      341.021       15.443      861.337
05/26/2013  20:21:00     -102.285       36.125       10.330       88.226       77.473       42.898     7783.905     6002.084     1840.204        1.375        0.781      108.476       43.797        0.163      340.989       15.390      861.359
05/26/2013  20:22:00     -156.958     -135.739        4.248      130.733      111.293       68.662    17091.100    12386.224     4714.534        3.863        1.710      207.511       72.002        0.120      341.021       15.442      861.378
05/26/2013  20:23:00     -131.184      -86.454       -3.846       84.916       90.829       52.808     7210.645     8249.948     2788.672        2.147        0.912      157.110       56.288        0.128      341.021       15.442      861.390
05/26/2013  20:24:00     -179.556      -49.609       18.730      220.273      120.195       78.974    48520.236    14446.925     6236.842        5.212        3.460      186.283      110.769        0.354      340.995       15.397      861.364
05/26/2013  20:25:00     -336.531     -111.873       -7.384      153.657      118.811       60.460    23610.387    14116.057     3655.367        8.360        2.069      354.638       74.774        0.044      340.966       15.348      861.402
05/26/2013  20:26:00     -174.760     -114.524       -1.374      168.884      112.992       62.306    28521.888    12767.293     3882.071        4.441        2.259      208.943       65.830        0.099      340.971       15.358      861.407
05/26/2013  20:27:00     -318.262      -77.287      -35.286      153.173      110.868       55.586    23461.995    12291.798     3089.840        7.367        1.942      327.512       52.850        0.026      340.971       15.358      861.419
05/26/2013  20:28:00     -117.745      -84.880       13.144      158.103       90.044       60.068    24996.629     8107.989     3608.107        2.897        1.836      145.150       62.423        0.185      341.005       15.415      861.432
05/26/2013  20:29:00     -229.389      -12.947      -14.609      123.435      124.626       62.343    15236.274    15531.671     3886.589        4.382        1.733      229.754       60.157        0.069      340.958       15.334      861.452
05/26/2013  20:30:00     -255.130      -27.601       -4.574      132.259      101.305       68.392    17492.461    10262.642     4677.481        4.915        1.622      256.619       74.095        0.083      340.916       15.263      861.476
05/26/2013  20:31:00     -292.779      -51.184      -11.283       96.889       90.677       53.502     9387.560     8222.324     2862.513        5.447        1.024      297.219       47.740        0.026      340.893       15.224      861.497
05/26/2013  20:32:00     -252.468      -47.960       -7.797      158.321      107.460       60.626    25065.504    11547.707     3675.533        5.319        2.014      256.983       77.499        0.091      340.912       15.257      861.519
05/26/2013  20:33:00     -411.385     -237.922       -9.213      226.322      179.338      108.033    51221.665    32162.142    11671.165       16.048        4.753      475.231      131.835        0.077      340.888       15.216      861.540
05/26/2013  20:34:00     -264.601     -117.125       -3.129      172.040      108.548       77.709    29597.872    11782.637     6038.711        6.557        2.371      289.365       97.389        0.113      340.883       15.208      861.582
05/26/2013  20:35:00     -157.524     -103.228       -2.789      123.130       92.563       51.613    15160.986     8567.899     2663.895        3.093        1.320      188.334       39.356        0.044      340.859       15.167      861.630
05/26/2013  20:36:00     -230.490       -3.933       -0.330      136.005      140.218       60.801    18497.416    19661.087     3696.756        4.749        2.093      230.524       56.747        0.061      340.835       15.127      861.645
05/26/2013  20:37:00     -408.107     -121.911      -17.537      145.706      102.473       66.143    21230.241    10500.704     4374.893       10.891        1.805      425.927       66.567        0.024      340.815       15.092      861.670
05/26/2013  20:38:00     -453.947     -109.571      -42.224      160.830      130.381       73.854    25866.366    16999.229     5454.367       13.408        2.416      466.984       73.781        0.025      340.815       15.093      861.699
05/26/2013  20:39:00     -358.253      -55.594      -18.655      123.398      168.619       69.066    15227.079    28432.322     4770.151        9.010        2.421      362.541       65.915        0.033      340.808       15.080      861.702
05/26/2013  20:40:00     -239.987       11.572      -22.588      113.880       61.157       47.697    12968.599     3740.238     2274.973        3.861        0.949      240.266       49.679        0.043      340.789       15.050      861.717
05/26/2013  20:41:00     -233.397      -44.221        0.033      162.632      118.146       77.711    26449.185    13958.572     6039.009        5.143        2.322      237.549       76.148        0.103      340.766       15.011      861.737
05/26/2013  20:42:00     -276.077     -102.106      -24.293      132.159      119.042       62.549    17465.880    14170.913     3912.347        6.139        1.777      294.354       44.689        0.023      340.793       15.056      861.744
05/26/2013  20:43:00     -256.756      -74.185       -0.679      124.354       82.176       54.421    15463.977     6752.974     2961.653        4.830        1.259      267.258       51.712        0.037      340.758       14.998      861.754
05/26/2013  20:44:00     -264.448     -125.676      -10.258      119.398      118.044       64.231    14255.878    13934.319     4125.593        5.907        1.616      292.792       57.360        0.038      340.751       14.985      861.766
05/26/2013  20:45:00     -357.963     -128.045      -13.497      197.868      130.162       76.175    39151.864    16942.073     5802.589       10.330        3.095      380.175       91.557        0.058      340.745       14.976      861.769
05/26/2013  20:46:00     -347.084      -55.265      -16.553      110.093       96.590       57.525    12120.363     9329.556     3309.110        7.427        1.238      351.456       52.755        0.023      340.728       14.946      861.759
05/26/2013  20:47:00     -415.727      -66.014      -22.962      216.944      110.601       67.575    47064.877    12232.667     4566.402       12.078        3.193      420.935       92.649        0.048      340.680       14.865      861.749
05/26/2013  20:48:00     -259.102      -41.528       -9.541      163.967      103.274       59.674    26885.123    10665.478     3560.944        5.502        2.056      262.409       78.651        0.090      340.694       14.889      861.748
05/26/2013  20:49:00     -372.651     -150.523      -12.709      202.682      143.314       79.367    41079.988    20538.930     6299.080       11.479        3.396      401.903       91.982        0.052      340.697       14.894      861.740
05/26/2013  20:50:00     -468.949     -132.194       -4.653      213.953      131.986       87.073    45775.964    17420.272     7581.680       15.408        3.539      487.226       92.924        0.036      340.668       14.844      861.714
05/26/2013  20:51:00     -474.692     -236.781       -9.100      232.253      171.980       98.768    53941.313    29577.188     9755.135       18.736        4.664      530.469      114.618        0.047      340.667       14.843      861.744
05/26/2013  20:52:00     -375.434      -58.527       -6.230      197.352      168.786       68.619    38947.745    28488.697     4708.528       10.827        3.607      379.968       79.974        0.044      340.660       14.831      861.757
05/26/2013  20:53:00     -283.147     -175.141       -8.731      206.381      127.217       79.261    42593.234    16184.291     6282.373        8.798        3.253      332.936       94.650        0.081      340.678       14.863      861.760
05/26/2013  20:54:00     -283.969      -83.926      -19.804      163.009      170.302       78.362    26571.866    29002.659     6140.542        7.488        3.086      296.111       79.066        0.071      340.645       14.805      861.770
05/26/2013  20:55:00     -386.858     -379.270      -10.699      259.081      197.574      130.395    67123.214    39035.407    17002.917       20.837        6.158      541.761      135.931        0.063      340.628       14.776      861.744
05/26/2013  20:56:00     -231.095     -148.419      -11.320      192.826      153.868       83.821    37181.809    23675.498     7026.002        7.171        3.394      274.651       94.081        0.117      340.628       14.777      861.774
05/26/2013  20:57:00     -270.558     -100.430      -11.880      173.370       95.397       61.470    30057.033     9100.545     3778.537        6.318        2.147      288.596       69.565        0.058      340.625       14.771      861.790
05/26/2013  20:58:00     -403.692     -209.823      -15.094      169.471      176.889       76.595    28720.553    31289.778     5866.803       13.654        3.294      454.964       71.996        0.025      340.586       14.706      861.766
05/26/2013  20:59:00     -257.714      -94.172       10.678      187.769      138.596       77.126    35257.311    19208.976     5948.441        6.790        3.021      274.381       91.912        0.112      340.588       14.710      861.780
05/26/2013  21:00:00     -209.164      -37.159        2.002      132.889       92.055       57.059    17659.358     8474.173     3255.714        3.726        1.469      212.440       56.038        0.070      340.535       14.620      861.784
05/26/2013  21:01:00     -291.825     -130.640      -11.056      134.796      101.208       60.247    18170.084    10242.991     3629.675        6.719        1.602      319.732       60.211        0.035      340.535       14.620      861.770
05/26/2013  21:02:00     -328.430      -13.944      -15.033      148.845       78.059       64.753    22154.892     6093.211     4192.908        7.036        1.622      328.726       65.601        0.040      340.531       14.613      861.754
05/26/2013  21:03:00     -393.286      -53.552      -24.055      118.652      128.746       64.711    14078.247    16575.477     4187.463        9.647        1.742      396.915       52.228        0.017      340.511       14.579      861.757
05/26/2013  21:04:00     -360.178     -144.660        3.591      185.969      187.957       74.471    34584.494    35327.659     5545.933       11.305        3.773      388.143       75.566        0.038      340.515       14.586      861.753
05/26/2013  21:05:00     -334.097     -103.431       -6.125      183.221      109.706       66.861    33569.962    12035.407     4470.401        8.621        2.504      349.741       77.341        0.049      340.530       14.612      861.757
05/26/2013  21:06:00     -498.542     -124.390      -25.940      163.815      147.294       91.222    26835.217    21695.380     8321.394       16.076        2.843      513.826       89.789        0.031      340.496       14.553      861.751
05/26/2013  21:07:00     -442.826     -129.276      -25.708      121.982      116.531       63.537    14879.653    13579.543     4036.974       12.298        1.625      461.310       55.004        0.014      340.500       14.560      861.756
05/26/2013  21:08:00     -370.536      -34.213      -15.512      202.321      126.317       79.942    40933.828    15955.870     6390.754       10.098        3.164      372.112       94.788        0.065      340.476       14.519      861.752
05/26/2013  21:09:00     -483.902      -98.546      -43.861      161.593      137.530       87.140    26112.276    18914.452     7593.378       14.920        2.631      493.834       85.459        0.030      340.480       14.525      861.746
05/26/2013  21:10:00     -403.202      -55.015      -20.189      184.055      183.425       73.422    33876.124    33644.641     5390.770       11.945        3.646      406.938       81.133        0.040      340.480       14.526      861.741
05/26/2013  21:11:00     -396.744      -48.173       -6.897      180.518      130.539       87.203    32586.702    17040.529     7604.349       10.849        2.862      399.658       97.913        0.060      340.453       14.481      861.751
05/26/2013  21:12:00     -435.300      -55.144      -25.225      206.196      188.506       95.465    42516.897    35534.352     9113.497       14.015        4.358      438.779      100.650        0.053      340.450       14.475      861.729
05/26/2013  21:13:00     -475.402     -157.521       -3.816      215.784      111.537       78.232    46562.599    12440.472     6120.285       15.797        3.256      500.819       84.576        0.029      340.437       14.454      861.730
05/26/2013  21:14:00     -376.371      -47.758      -17.408      183.844      146.124       80.698    33798.512    21352.301     6512.158       10.294        3.083      379.389       85.351        0.051      340.445       14.468      861.721
05/26/2013  21:15:00     -445.804      -99.208      -33.976      147.802      144.019       69.993    21845.418    20741.508     4899.079       12.860        2.374      456.710       66.432        0.021      340.429       14.441      861.735
05/26/2013  21:16:00     -498.091      -65.239      -36.144      122.581      156.973       63.882    15026.123    24640.451     4080.952       14.870        2.187      502.346       61.370        0.015      340.395       14.383      861.755
05/26/2013  21:17:00     -411.055      -77.436      -10.673      181.506      147.578       87.805    32944.253    21779.220     7709.649       11.874        3.122      418.285       79.006        0.036      340.393       14.381      861.759
05/26/2013  21:18:00     -581.272      -93.827      -30.680      240.338      159.136       97.392    57762.446    25324.253     9485.119       22.008        4.629      588.796      130.541        0.049      340.366       14.335      861.740
05/26/2013  21:19:00     -539.584      -65.692      -44.414      180.376      158.413       85.094    32535.585    25094.605     7241.007       18.114        3.244      543.568       80.613        0.022      340.348       14.303      861.784
05/26/2013  21:20:00     -370.494      -72.830      -18.673      260.398      153.489       95.497    67807.206    23558.779     9119.619       12.169        5.024      377.584      117.925        0.098      340.337       14.286      861.813
05/26/2013  21:21:00     -582.883     -140.051      -20.161      208.978      192.898       96.736    43671.793    37209.661     9357.914       22.499        4.512      599.472       94.956        0.025      340.335       14.280      861.781
05/26/2013  21:22:00     -510.310      -77.019      -27.766      208.261      192.265       79.345    43372.828    36965.972     6295.603       17.686        4.332      516.089       91.504        0.031      340.335       14.281      861.803
05/26/2013  21:23:00     -618.250      -30.150      -43.266      235.692      235.349       91.142    55550.522    55388.954     8306.830       25.211        5.962      618.984       90.638        0.021      340.345       14.299      861.809
05/26/2013  21:24:00     -429.091      -29.520      -13.227      201.910      152.755       91.534    40767.652    23334.005     8378.541       12.881        3.624      430.105      101.637        0.056      340.333       14.279      861.820
05/26/2013  21:25:00     -380.286     -110.137      -14.675      156.874      144.835       86.257    24609.571    20977.219     7440.231       10.499        2.651      395.914       76.825        0.038      340.330       14.274      861.808
05/26/2013  21:26:00     -496.137     -171.377      -24.452      197.463      229.406       95.225    38991.752    52627.024     9067.858       18.839        5.034      524.902       92.439        0.031      340.323       14.261      861.786
05/26/2013  21:27:00     -397.886      -69.567      -22.525      267.044      168.497      106.901    71312.537    28391.253    11427.790       13.738        5.557      403.922      145.554        0.130      340.324       14.262      861.811
05/26/2013  21:28:00     -405.974     -100.644       -6.801      267.515      193.772       90.862    71564.371    37547.761     8255.820       14.616        5.868      418.263      111.534        0.071      340.318       14.251      861.806
05/26/2013  21:29:00     -494.302     -169.360        3.050      175.014      147.666       90.144    30630.019    21805.174     8125.902       16.678        3.028      522.511       98.916        0.036      340.282       14.190      861.846
05/26/2013  21:30:00     -406.705      -31.363      -30.560      173.386      144.245       78.121    30062.794    20806.504     6102.816       11.214        2.849      407.912       89.595        0.048      340.272       14.174      861.871
05/26/2013  21:31:00     -455.070      -69.146      -20.037      219.539      130.536       83.855    48197.330    17039.702     7031.614       14.226        3.613      460.293      103.386        0.050      340.256       14.150      861.880
05/26/2013  21:32:00     -374.172     -123.551      -11.551      130.979      153.111       70.124    17155.453    23442.863     4917.362       10.045        2.276      394.043       58.521        0.022      340.253       14.142      861.910
05/26/2013  21:33:00     -307.465      -71.395       11.460      215.694      163.468       93.398    46523.899    26721.788     8723.235        9.085        4.098      315.645      107.329        0.116      340.247       14.134      861.923
05/26/2013  21:34:00     -445.511      -80.580       -7.995      178.511      142.270       78.453    31866.080    20240.686     6154.845       13.164        2.913      452.740       75.074        0.027      340.240       14.121      861.951
05/26/2013  21:35:00     -450.656       -8.649      -14.664      210.251      169.566       90.319    44205.433    28752.564     8157.552       14.223        4.056      450.739       97.058        0.046      340.243       14.125      861.949
05/26/2013  21:36:00     -442.992      -75.168      -24.539      243.734      193.331       97.428    59406.370    37376.949     9492.290       15.437        5.314      449.324      108.702        0.059      340.255       14.144      861.942
05/26/2013  21:37:00     -505.228     -114.127      -13.225      190.574      169.517       73.459    36318.606    28736.130     5396.163       16.944        3.523      517.958       79.606        0.024      340.232       14.105      861.968
05/26/2013  21:38:00     -402.765     -124.255      -16.149      134.083      134.264       66.520    17978.344    18026.731     4424.940       10.917        2.022      421.496       67.057        0.025      340.235       14.113      861.976
05/26/2013  21:39:00     -266.422     -122.616       10.201      194.769      136.030       79.222    37934.825    18504.185     6276.188        7.441        3.136      293.284       97.493        0.111      340.234       14.110      861.970
05/26/2013  21:40:00     -321.369      -80.278       -3.366      228.224      134.620       76.266    52086.393    18122.466     5816.476        9.287        3.801      331.244       92.545        0.078      340.214       14.075      861.974
05/26/2013  21:41:00     -502.382     -170.494      -26.285      209.478      173.031       84.458    43880.894    29939.878     7133.211       18.154        4.048      530.524       85.253        0.026      340.198       14.048      861.960
05/26/2013  21:42:00     -562.737     -121.726      -29.251      228.396      174.385       96.716    52164.622    30410.287     9353.890       21.212        4.596      575.752       96.576        0.028      340.190       14.036      861.957
05/26/2013  21:43:00     -703.856     -209.807      -13.914      238.985      182.283       90.836    57113.856    33226.990     8251.093       31.909        4.930      734.461       94.885        0.017      340.185       14.027      861.979
05/26/2013  21:44:00     -443.697     -128.111      -29.514      213.016      164.567       91.052    45375.701    27082.452     8290.402       14.744        4.037      461.822       90.079        0.038      340.175       14.010      862.011
05/26/2013  21:45:00     -379.578      -83.946      -14.976      189.063      164.442       94.401    35744.992    27041.046     8911.570       11.151        3.585      388.750       96.087        0.061      340.168       13.999      862.022
05/26/2013  21:46:00     -439.596      -68.336      -19.222      227.568      198.553       85.449    51787.319    39423.173     7301.536       14.838        4.926      444.876       90.762        0.042      340.150       13.968      862.071
05/26/2013  21:47:00     -522.909     -125.132      -25.460      189.544      193.026       90.296    35926.969    37258.880     8153.452       18.553        4.067      537.673       93.445        0.030      340.145       13.959      862.092
05/26/2013  21:48:00     -533.523      -88.874      -16.768      209.898      170.855       75.548    44057.004    29191.575     5707.445       18.588        3.948      540.874       91.461        0.029      340.135       13.944      862.098
05/26/2013  21:49:00     -459.691     -105.234       -7.169      150.766      148.260       80.442    22730.249    21980.998     6470.849       13.680        2.559      471.583       79.621        0.029      340.115       13.909      862.121
05/26/2013  21:50:00     -307.892      -62.244       -2.496      174.792      117.897       72.562    30552.143    13899.706     5265.181        7.419        2.486      314.120       74.334        0.056      340.122       13.920      862.137
05/26/2013  21:51:00     -610.498     -205.422      -35.234      210.761      169.152      101.195    44420.237    28612.557    10240.496       24.970        4.164      644.132      111.170        0.030      340.107       13.896      862.125
05/26/2013  21:52:00     -451.548     -136.127      -19.656      168.080      129.245       81.603    28251.007    16704.286     6659.002       13.720        2.581      471.620       83.068        0.031      340.088       13.864      862.170
05/26/2013  21:53:00     -568.157      -24.656      -35.928      245.542      219.292       82.524    60290.833    48089.098     6810.252       21.993        5.760      568.692       95.514        0.028      340.086       13.860      862.196
05/26/2013  21:54:00     -515.868      -42.575      -34.325      189.372      185.402       81.223    35861.601    34373.742     6597.187       17.296        3.842      517.622       86.893        0.028      340.073       13.839      862.221
05/26/2013  21:55:00     -514.361     -259.128      -21.570      200.096      152.494       82.629    40038.233    23254.475     6827.537       20.114        3.506      575.946       80.081        0.019      340.068       13.830      862.206
05/26/2013  21:56:00     -334.007      -63.104      -11.195      224.323      138.630       85.826    50320.590    19218.164     7366.020        9.627        3.845      339.916       89.356        0.069      340.061       13.818      862.246
05/26/2013  21:57:00     -410.457     -134.163      -11.982      175.714      109.337       75.400    30875.379    11954.544     5685.136       11.756        2.426      431.827       84.517        0.038      340.032       13.769      862.283
05/26/2013  21:58:00     -424.429     -104.270      -27.314      198.975      120.945       78.382    39591.054    14627.657     6143.732       12.605        3.018      437.049       95.241        0.047      340.029       13.765      862.312
05/26/2013  21:59:00     -458.566     -104.515      -26.132      193.464      173.867       80.766    37428.350    30229.882     6523.227       14.802        3.709      470.325       84.646        0.032      340.014       13.738      862.299
05/26/2013  22:00:00     -396.201     -135.987        3.751      212.444      169.441      100.033    45132.435    28710.242    10006.568       12.965        4.192      418.888      111.185        0.070      340.000       13.716      862.335
05/26/2013  22:01:00     -359.109     -138.398        0.964      240.204      143.515       80.799    57698.088    20596.551     6528.478       11.645        4.241      384.855      107.501        0.078      340.014       13.738      862.333
05/26/2013  22:02:00     -582.852     -201.948      -24.568      240.512      147.482       96.627    57846.187    21750.975     9336.856       23.500        4.447      616.847       96.118        0.024      340.015       13.739      862.340
05/26/2013  22:03:00     -365.011     -106.164      -27.057      142.454      119.797       64.320    20293.178    14351.380     4137.094        9.200        1.939      380.137       61.231        0.026      340.003       13.722      862.364
05/26/2013  22:04:00     -495.035      -96.927       -6.909      179.099      172.865       82.733    32076.393    29882.193     6844.676       16.164        3.440      504.435       83.156        0.027      339.980       13.682      862.371
05/26/2013  22:05:00     -436.851      -81.402      -17.686      162.872      141.232       74.203    26527.292    19946.394     5506.036       12.487        2.599      444.371       74.965        0.028      339.986       13.692      862.391
05/26/2013  22:06:00     -363.233      -98.005      -17.032      186.021      120.417       67.007    34603.770    14500.324     4489.992        9.770        2.680      376.222       87.218        0.054      339.973       13.669      862.423
05/26/2013  22:07:00     -465.901      -17.938      -15.029      196.239      170.206       77.379    38509.884    28970.160     5987.547       14.553        3.673      466.247       92.372        0.039      339.985       13.691      862.422
05/26/2013  22:08:00     -385.907     -118.153      -18.780      128.096      145.321       62.905    16408.592    21118.215     3956.983       10.235        2.074      403.589       64.453        0.026      339.978       13.678      862.448
05/26/2013  22:09:00     -464.526        8.378      -34.921      167.660      128.307       80.856    28109.720    16462.566     6537.758       13.408        2.556      464.602       81.028        0.030      339.952       13.635      862.453
05/26/2013  22:10:00     -284.907     -140.556       12.397      173.487      105.391       68.233    30097.796    11107.225     4655.809        7.346        2.293      317.692       88.246        0.077      339.938       13.611      862.452
05/26/2013  22:11:00     -381.597      -46.238      -29.841      163.247      129.748       70.957    26649.457    16834.580     5034.915        9.857        2.426      384.388       83.622        0.047      339.935       13.606      862.454
05/26/2013  22:12:00     -577.295     -130.046      -51.886      222.982      154.781       85.662    49721.158    23957.274     7337.947       21.693        4.051      591.762       97.369        0.027      339.978       13.677      862.438
05/26/2013  22:13:00     -607.948      -74.966      -44.753      235.595      156.064       92.094    55504.973    24356.111     8481.308       23.277        4.417      612.552      110.818        0.033      339.953       13.638      862.446
05/26/2013  22:14:00     -545.100      -70.479      -32.369      178.405      135.098       80.823    31828.292    18251.436     6532.286       17.987        2.831      549.637       90.576        0.027      339.983       13.687      862.465
05/26/2013  22:15:00     -474.962      -51.641      -23.754      181.148      138.403       76.659    32814.476    19155.365     5876.577       14.332        2.892      477.762       89.255        0.035      339.972       13.668      862.474
05/26/2013  22:16:00     -394.205      -85.722      -11.998      127.990      113.483       65.253    16381.418    12878.332     4258.004        9.820        1.676      403.418       59.793        0.022      339.961       13.649      862.486
05/26/2013  22:17:00     -555.337      -24.110      -37.978      205.606      147.857       72.563    42273.786    21861.838     5265.327       18.990        3.470      555.860       92.602        0.028      339.964       13.654      862.476
05/26/2013  22:18:00     -417.819     -137.402      -11.452      157.661      146.747       75.368    24856.837    21534.563     5680.321       12.282        2.604      439.832       83.889        0.036      339.949       13.629      862.488
05/26/2013  22:19:00     -380.471      -98.296       -8.424      178.243      129.853       79.762    31770.644    16861.833     6361.966       10.473        2.750      392.963       95.693        0.059      339.923       13.586      862.489
05/26/2013  22:20:00     -347.488      -16.719      -16.631      117.113      132.936       68.399    13715.471    17671.910     4678.385        7.868        1.803      347.890       62.941        0.033      339.922       13.584      862.482
05/26/2013  22:21:00     -367.493      -91.726      -12.600      174.959      159.380       71.798    30610.595    25402.095     5154.948       10.239        3.058      378.767       81.814        0.047      339.913       13.569      862.472
05/26/2013  22:22:00     -361.860     -114.947       -9.252      225.842      168.087       71.285    51004.734    28253.287     5081.535       11.428        4.217      379.678       80.270        0.045      339.884       13.520      862.487
05/26/2013  22:23:00     -520.038      -29.588      -25.869      168.108      173.738       75.045    28260.264    30184.830     5631.759       16.802        3.204      520.879       63.355        0.015      339.896       13.539      862.484
05/26/2013  22:24:00     -503.225     -175.417       -9.403      263.863      172.836       92.873    69623.559    29872.445     8625.441       19.609        5.406      532.923      108.289        0.041      339.891       13.532      862.483
05/26/2013  22:25:00     -524.607     -101.726      -22.806      206.689      110.608       77.818    42720.177    12234.027     6055.682       17.354        3.050      534.379       83.405        0.024      339.912       13.567      862.489
05/26/2013  22:26:00     -380.195      -47.692      -20.901      132.468      100.441       68.709    17547.770    10088.340     4720.962        8.980        1.618      383.175       71.057        0.034      339.894       13.534      862.491
05/26/2013  22:27:00     -344.772      -77.462      -12.416      110.540      125.014       58.093    12218.999    15628.416     3374.758        7.812        1.561      353.367       43.399        0.015      339.861       13.479      862.509
05/26/2013  22:28:00     -275.492      -39.174       -4.448      205.974      131.165       78.638    42425.282    17204.289     6183.942        7.162        3.291      278.264       97.928        0.124      339.866       13.489      862.473
05/26/2013  22:29:00     -492.053      -77.686      -20.661      211.376      144.383       91.819    44679.899    20846.394     8430.659       16.125        3.698      498.147      103.546        0.043      339.846       13.455      862.458
05/26/2013  22:30:00     -499.953      -69.064      -25.016      178.616      170.588       79.507    31903.587    29100.229     6321.376       16.133        3.366      504.701       78.892        0.024      339.852       13.464      862.461
05/26/2013  22:31:00     -362.138      -27.087       -4.607      195.723      151.387       83.005    38307.649    22917.932     6889.904       10.000        3.406      363.150       98.031        0.073      339.850       13.462      862.455
05/26/2013  22:32:00     -480.602     -134.790      -13.805      196.661      130.052       79.345    38675.595    16913.614     6295.601       15.560        3.094      499.145       92.166        0.034      339.835       13.437      862.443
05/26/2013  22:33:00     -576.614       25.633      -46.022      246.911      191.375       98.006    60965.171    36624.459     9605.195       22.121        5.360      577.184      108.388        0.035      339.873       13.500      862.424
05/26/2013  22:34:00     -507.813     -126.370      -20.100      199.395      164.266       78.116    39758.260    26983.290     6102.148       17.353        3.642      523.300       66.306        0.016      339.864       13.485      862.470
05/26/2013  22:35:00     -382.485      -11.527      -37.947      148.249      118.412       62.748    21977.793    14021.503     3937.307        9.390        1.997      382.659       61.937        0.026      339.854       13.468      862.482
05/26/2013  22:36:00     -508.548     -147.777      -23.908      186.052      124.779       83.687    34615.255    15569.729     7003.468       16.910        2.859      529.584       87.019        0.027      339.827       13.424      862.485
05/26/2013  22:37:00     -616.839      -78.239      -27.145      154.514      157.810       77.662    23874.688    24903.971     6031.348       22.107        2.741      621.781       84.410        0.018      339.820       13.411      862.512
05/26/2013  22:38:00     -518.556      -66.303      -30.559      186.610      150.590       89.625    34823.349    22677.295     8032.689       16.987        3.277      522.778       96.878        0.034      339.841       13.447      862.519
05/26/2013  22:39:00     -381.732     -101.544      -19.858      149.024      140.344       73.954    22208.119    19696.506     5469.161       10.189        2.369      395.007       62.458        0.025      339.851       13.465      862.516
05/26/2013  22:40:00     -516.399      -60.434      -55.624      162.966      118.540       80.940    26557.778    14051.814     6551.230       16.028        2.358      519.923       86.590        0.028      339.859       13.477      862.535
05/26/2013  22:41:00     -499.696     -120.156       -6.248      217.045      157.246       83.780    47108.362    24726.436     7019.103       17.150        3.943      513.939       94.392        0.034      339.842       13.448      862.541
05/26/2013  22:42:00     -579.140     -172.857      -42.873      212.878      174.100       92.860    45316.947    30310.951     8622.963       22.567        4.213      604.386       61.864        0.010      339.869       13.493      862.529
05/26/2013  22:43:00     -429.791     -164.759      -21.987      209.051      140.692       73.760    43702.366    19794.296     5440.503       14.063        3.447      460.289       74.221        0.026      339.848       13.460      862.545
05/26/2013  22:44:00     -371.746      -54.328      -23.981      132.107      158.006       71.564    17452.212    24966.022     5121.427        9.462        2.377      375.695       61.050        0.026      339.829       13.427      862.573
05/26/2013  22:45:00     -403.487      -56.496      -16.772      169.682      134.028       75.416    28791.902    17963.490     5687.568       10.935        2.622      407.423       83.944        0.042      339.813       13.400      862.571
05/26/2013  22:46:00     -358.232     -114.612      -18.447      175.915      153.604       65.703    30946.021    23594.235     4316.832       10.032        2.943      376.120       66.415        0.031      339.820       13.412      862.588
05/26/2013  22:47:00     -524.200      -94.180      -28.404      227.392      155.850       85.019    51706.972    24289.238     7228.204       18.383        4.161      532.593      101.189        0.036      339.820       13.413      862.572
05/26/2013  22:48:00     -360.239      -10.186      -16.284      228.168      157.295       76.912    52060.469    24741.744     5915.409       10.642        4.136      360.383       84.066        0.054      339.803       13.385      862.559
05/26/2013  22:49:00     -469.633     -110.082      -13.050      175.463      149.561       85.950    30787.191    22368.442     7387.392       14.668        3.027      482.362       83.340        0.030      339.815       13.404      862.548
05/26/2013  22:50:00     -439.000     -126.486      -21.709      138.011      141.340       72.315    19047.023    19976.883     5229.421       12.671        2.213      456.859       69.488        0.023      339.801       13.381      862.559
05/26/2013  22:51:00     -495.555       23.010      -28.648      150.817      146.285       85.405    22745.656    21399.328     7293.948       14.917        2.572      496.089       74.675        0.023      339.811       13.396      862.565
05/26/2013  22:52:00     -448.502      -84.898      -14.079      169.438      188.395       72.284    28709.369    35492.562     5225.041       13.898        3.471      456.467       67.652        0.022      339.796       13.372      862.552
05/26/2013  22:53:00     -482.835     -119.782      -35.418      207.443      159.691       89.718    43032.523    25501.073     8049.266       16.264        3.829      497.471       95.789        0.037      339.828       13.425      862.542
05/26/2013  22:54:00     -415.617      -47.477      -27.624      152.870      117.849       73.268    23369.342    13888.314     5368.240       10.918        2.131      418.320       74.255        0.032      339.806       13.389      862.548
05/26/2013  22:55:00     -520.649     -101.800      -21.965      182.095      173.668       84.451    33158.485    30160.560     7131.905       17.617        3.523      530.508       82.739        0.024      339.792       13.366      862.527
05/26/2013  22:56:00     -518.494      -72.700      -32.517      153.815      152.825       80.416    23658.975    23355.525     6466.684       16.432        2.674      523.566       83.014        0.025      339.799       13.378      862.518
05/26/2013  22:57:00     -454.660      -93.842      -15.953      186.123      164.308       75.633    34641.817    26997.068     5720.338       14.156        3.368      464.243       72.897        0.025      339.796       13.372      862.519
05/26/2013  22:58:00     -385.119     -112.143       -3.270      213.613      139.621       88.884    45630.447    19493.970     7900.401       11.695        3.651      401.114      117.673        0.086      339.776       13.339      862.506
05/26/2013  22:59:00     -273.741      -95.746      -21.329      127.348      119.424       76.428    16217.570    14262.108     5841.194        6.043        1.816      290.002       61.242        0.045      339.761       13.313      862.511
05/26/2013  23:00:00     -522.883     -102.527      -19.947      177.649      137.715       81.711    31559.115    18965.383     6676.626       17.075        2.860      532.840       87.633        0.027      339.767       13.323      862.506
05/26/2013  23:01:00     -301.896     -124.544       -5.018      134.704      111.807       68.941    18145.104    12500.709     4752.857        7.103        1.770      326.577       67.879        0.043      339.729       13.258      862.503
05/26/2013  23:02:00     -335.139      -77.482       -6.991      195.511      149.459       80.671    38224.580    22337.948     6507.758        9.271        3.354      343.979       77.453        0.051      339.740       13.279      862.497
05/26/2013  23:03:00     -375.515      -38.875      -13.568      157.395      120.001       68.563    24773.056    14400.215     4700.939        9.328        2.194      377.522       79.687        0.045      339.733       13.267      862.488
05/26/2013  23:04:00     -441.603      -69.393      -14.778      177.798      141.846       74.930    31612.044    20120.401     5614.452       12.869        2.867      447.022       88.278        0.039      339.750       13.295      862.465
05/26/2013  23:05:00     -321.918      -67.226      -12.516      155.734      102.465       64.495    24253.233    10499.170     4159.591        7.360        1.946      328.862       71.131        0.047      339.733       13.265      862.451
05/26/2013  23:06:00     -515.136       29.708      -29.321      157.752      131.173       81.392    24885.751    17206.435     6624.651       15.790        2.436      515.992       78.155        0.023      339.743       13.284      862.440
05/26/2013  23:07:00     -359.795      -16.657      -13.949      177.106      112.782       68.837    31366.627    12719.831     4738.491        8.937        2.441      360.180       78.730        0.048      339.729       13.259      862.430
05/26/2013  23:08:00     -339.568      -79.563      -14.657      211.700      134.987       88.476    44817.028    18221.581     7828.034        9.635        3.543      348.764      109.172        0.098      339.745       13.286      862.390
05/26/2013  23:09:00     -368.101      -76.875      -13.808      176.518      155.867       70.849    31158.523    24294.558     5019.627       10.103        3.024      376.042       83.030        0.049      339.731       13.264      862.386
05/26/2013  23:10:00     -323.531      -66.975       -6.113      160.060      119.594       62.707    25619.169    14302.653     3932.178        7.652        2.193      330.391       70.929        0.046      339.699       13.210      862.379
05/26/2013  23:11:00     -392.141      -91.855      -10.699      183.026      130.498       73.761    33498.692    17029.613     5440.752       10.914        2.798      402.755       87.631        0.047      339.694       13.200      862.372
05/26/2013  23:12:00     -302.376      -73.519        2.387      187.689      129.291       81.835    35226.989    16716.109     6696.972        7.773        2.932      311.185       79.109        0.065      339.705       13.220      862.367
05/26/2013  23:13:00     -410.250      -74.543      -16.031      143.536      116.286       76.983    20602.536    13522.353     5926.374       10.708        2.003      416.968       79.832        0.037      339.722       13.247      862.374
05/26/2013  23:14:00     -384.010      -63.603      -10.401      151.289      115.861       60.141    22888.220    13423.693     3616.955        9.577        1.996      389.242       65.996        0.029      339.701       13.212      862.377
05/26/2013  23:15:00     -264.848      -74.082       -1.228      121.582      131.967       65.546    14782.174    17415.381     4296.269        5.606        1.825      275.013       62.625        0.052      339.680       13.178      862.402
05/26/2013  23:16:00     -294.846     -154.842       -0.291      143.018      122.112       67.549    20454.016    14911.312     4562.917        7.541        1.996      333.032       64.617        0.038      339.677       13.172      862.420
05/26/2013  23:17:00     -320.949      -63.372      -18.058      139.043      112.060       58.811    19332.943    12557.503     3458.702        7.134        1.767      327.145       66.222        0.041      339.670       13.161      862.456
05/26/2013  23:18:00     -339.725      -90.302      -11.722      112.540       99.536       53.417    12665.240     9907.480     2853.341        7.456        1.271      351.522       47.204        0.018      339.704       13.219      862.457
05/26/2013  23:19:00     -292.238     -103.355      -22.655      125.575       86.606       47.357    15769.017     7500.662     2242.699        6.105        1.276      309.977       36.811        0.014      339.671       13.160      862.466
05/26/2013  23:20:00     -254.222     -123.814      -11.938      140.655       97.837       61.248    19783.692     9572.063     3751.266        5.660        1.655      282.770       56.608        0.040      339.640       13.107      862.478
05/26/2013  23:21:00     -365.672      -92.910       -8.470      188.631      119.060       66.586    35581.753    14175.274     4433.737        9.830        2.710      377.291       58.740        0.024      339.672       13.164      862.476
05/26/2013  23:22:00     -353.532      -73.154      -21.076      128.033      103.914       64.439    16392.398    10798.041     4152.332        8.106        1.567      361.021       65.974        0.033      339.656       13.136      862.483
05/26/2013  23:23:00     -329.586      -93.912       -3.512      143.616      131.252       67.773    20625.661    17227.029     4593.155        7.995        2.122      342.704       72.176        0.044      339.646       13.120      862.493
05/26/2013  23:24:00     -279.502      -84.225       -4.062      161.927       96.037       70.056    26220.409     9223.014     4907.799        6.278        2.018      291.917       75.501        0.067      339.623       13.078      862.495
05/26/2013  23:25:00     -312.218       -6.031       -8.352      138.325       92.093       57.714    19133.884     8481.052     3330.908        6.426        1.547      312.276       65.205        0.044      339.651       13.127      862.478
05/26/2013  23:26:00     -299.087      -99.206      -18.450      173.887      104.847       58.031    30236.529    10992.865     3367.551        7.211        2.230      315.111       56.610        0.032      339.631       13.093      862.464
05/26/2013  23:27:00     -266.911      -72.124       -9.394      186.687      108.319       64.273    34852.085    11733.061     4131.068        6.362        2.536      276.484       57.341        0.043      339.647       13.121      862.438
05/26/2013  23:28:00     -181.256      -24.622        3.297      102.776      105.849       55.656    10562.989    11204.099     3097.536        2.916        1.243      182.921       56.798        0.096      339.601       13.045      862.453
05/26/2013  23:29:00     -416.777      -38.128      -20.051      147.627       97.549       59.391    21793.851     9515.724     3527.334       10.519        1.742      418.517       70.069        0.028      339.644       13.114      862.448
05/26/2013  23:30:00     -174.908      -58.459       11.461      128.884       88.759       59.138    16611.080     7878.162     3497.256        3.106        1.399      184.418       52.113        0.080      339.607       13.052      862.441
05/26/2013  23:31:00     -413.842       35.756      -17.103      162.405      124.623       65.301    26375.368    15530.886     4264.227       10.950        2.309      415.384       74.757        0.032      339.706       13.221      862.452
05/26/2013  23:32:00     -338.845      -75.393      -14.553      142.999      127.315       59.846    20448.833    16209.099     3581.603        8.047        2.012      347.132       67.716        0.038      339.697       13.206      862.428
05/26/2013  23:33:00     -317.028      -21.663      -23.629      194.746      130.680       67.916    37925.920    17077.151     4612.594        8.057        2.981      317.767       83.426        0.069      339.699       13.208      862.426
05/26/2013  23:34:00     -232.759      -53.889       -1.812      129.095      118.883       60.851    16665.401    14133.168     3702.791        4.579        1.725      238.916       60.971        0.065      339.656       13.135      862.443
05/26/2013  23:35:00     -383.446      -61.983      -11.994      138.693       96.605       67.472    19235.620     9332.543     4552.499        9.206        1.656      388.424       74.256        0.037      339.656       13.135      862.453
05/26/2013  23:36:00     -402.841      -39.220      -34.739      138.215      105.865       61.684    19103.368    11207.403     3804.878        9.957        1.706      404.746       57.922        0.020      339.668       13.156      862.459
05/26/2013  23:37:00     -368.184      -93.989       -2.821      183.040      140.167       79.780    33503.665    19646.724     6364.832       10.195        2.976      379.991       88.366        0.054      339.645       13.117      862.473
05/26/2013  23:38:00     -310.295      -21.399       -7.128      120.956      134.415       51.652    14630.310    18067.465     2667.883        6.607        1.768      311.032       44.313        0.020      339.667       13.153      862.489
05/26/2013  23:39:00     -352.648       -1.409      -17.998      136.641      119.727       60.410    18670.858    14334.525     3649.382        8.066        1.833      352.651       66.516        0.036      339.672       13.161      862.492
05/26/2013  23:40:00     -137.363      -49.223       40.916      213.416      112.339       88.271    45546.483    12620.115     7791.691        4.445        3.298      145.916      115.033        0.621      339.622       13.080      862.479
05/26/2013  23:41:00     -386.778        8.458      -23.160      210.431      170.039       71.095    44281.347    28913.409     5054.457       11.421        3.912      386.870       89.057        0.053      339.658       13.138      862.490
05/26/2013  23:42:00     -422.655      -61.894      -37.638      141.823      146.360       66.062    20113.674    21421.351     4364.180       11.488        2.295      427.163       67.777        0.025      339.643       13.114      862.492
05/26/2013  23:43:00     -194.559      -12.064       -9.543      107.616      101.800       56.132    11581.163    10363.288     3150.829        3.159        1.255      194.933       47.489        0.059      339.622       13.078      862.488
05/26/2013  23:44:00     -313.719      -64.555      -14.704      118.063       87.292       50.445    13938.901     7619.880     2544.727        6.345        1.205      320.292       23.624        0.005      339.610       13.059      862.475
05/26/2013  23:45:00     -330.908     -153.476      -18.251       97.684       75.175       46.777     9542.138     5651.308     2188.090        7.538        0.869      364.767       36.131        0.010      339.633       13.096      862.475
05/26/2013  23:46:00     -425.961      -67.640      -19.391      158.098      129.704       66.613    24995.033    16823.234     4437.270       11.632        2.313      431.298       65.110        0.023      339.630       13.091      862.476
05/26/2013  23:47:00     -277.427      -25.685       -7.168      115.106      104.713       60.419    13249.406    10964.738     3650.415        5.277        1.393      278.614       63.565        0.052      339.634       13.098      862.486
05/26/2013  23:48:00     -244.545      -67.030      -10.814      142.986       83.598       49.228    20445.088     6988.685     2423.429        4.713        1.493      253.565       57.946        0.052      339.605       13.050      862.486
05/26/2013  23:49:00     -255.227      -97.435        3.673      128.864       95.689       63.265    16606.020     9156.391     4002.517        5.220        1.488      273.193       62.453        0.052      339.593       13.029      862.464
05/26/2013  23:50:00     -275.528     -100.051       -4.779      117.836       93.875       56.682    13885.358     8812.515     3212.852        5.593        1.296      293.132       55.974        0.036      339.609       13.055      862.461
05/26/2013  23:51:00     -330.567      -43.123      -31.281      122.700      101.811       66.213    15055.289    10365.563     4384.177        7.095        1.490      333.368       61.432        0.034      339.625       13.083      862.474
05/26/2013  23:52:00     -320.646      -73.044      -17.985      164.708       97.976       61.150    27128.669     9599.260     3739.310        7.446        2.023      328.861       75.729        0.053      339.625       13.083      862.470
05/26/2013  23:53:00     -416.765      -70.703      -37.208      150.333      137.812       62.702    22600.077    18992.211     3931.549       11.279        2.276      422.720       71.997        0.029      339.620       13.075      862.479
05/26/2013  23:54:00     -250.928      -99.155      -12.593      146.857       95.889       61.728    21566.879     9194.792     3810.405        5.376        1.729      269.808       72.040        0.071      339.631       13.093      862.476
05/26/2013  23:55:00     -308.537      -73.569      -16.693      133.682      101.429       50.382    17870.769    10287.761     2538.358        6.579        1.535      317.187       49.244        0.024      339.629       13.090      862.482
05/26/2013  23:56:00     -319.694      -23.783      -27.684      119.824       87.373       53.573    14357.758     7634.026     2870.114        6.420        1.243      320.578       52.613        0.027      339.655       13.134      862.482
05/26/2013  23:57:00     -233.202      -71.302        2.274      157.136       77.029       68.599    24691.833     5933.474     4705.826        4.740        1.767      243.858       75.056        0.095      339.596       13.036      862.495
05/26/2013  23:58:00     -215.984      -14.569       -5.402      150.741       83.421       59.275    22722.996     6959.059     3513.563        4.004        1.660      216.475       75.142        0.120      339.570       12.992      862.503
05/26/2013  23:59:00     -270.042      -97.655      -27.461      112.127      142.310       55.941    12572.416    20252.161     3129.363        5.958        1.798      287.157       53.874        0.035      339.680       13.176      862.500
